GFSSGP_sfc_thetae_000.txt.gz
Theta_e
363 363 363 355 332 325 316 318 328 326 328 334 333 331 330 332 326 323 349 353 354 354 357 357 360 360 361 360 363 365 366 365 366 365 363 362 363 364 365 366 364 364 364 363 362 361 361 360 359
363 360 356 343 321 312 318 325 324 329 333 337 336 334 332 327 337 340 345 353 353 353 355 355 361 362 360 360 363 363 364 363 364 362 362 362 363 364 365 364 363 363 363 361 361 361 360 360 359
357 357 343 326 317 315 318 326 330 333 334 333 333 338 334 333 341 344 351 353 354 355 354 359 360 361 361 361 362 365 364 363 364 362 362 361 362 364 364 363 362 362 361 361 360 359 359 360 360
351 347 342 317 312 318 323 329 334 333 334 335 335 331 339 345 344 349 353 354 353 355 357 357 359 361 361 362 363 363 364 364 364 363 362 363 364 363 362 361 362 361 360 360 359 359 359 359 360
349 338 321 315 316 320 326 333 334 331 332 332 334 330 335 345 350 352 354 354 353 355 359 357 363 363 362 363 364 366 363 364 364 364 363 364 362 361 361 362 361 360 358 359 358 359 360 360 361
334 331 317 313 316 321 327 334 333 332 334 334 333 334 337 348 349 353 355 353 355 356 357 361 363 365 364 365 365 366 364 365 365 364 364 362 361 361 361 360 359 358 358 358 358 360 360 360 360
329 323 317 317 317 320 325 333 331 332 334 332 337 332 340 343 351 355 356 356 356 357 357 360 361 365 366 366 366 366 365 364 363 363 364 362 361 360 361 360 358 358 359 361 361 360 358 359 359
334 326 317 319 318 318 327 331 334 331 332 340 339 331 334 343 351 354 355 354 354 358 359 361 364 364 364 364 366 366 364 361 362 363 363 363 362 360 359 361 360 359 359 360 361 359 358 358 358
336 322 317 317 319 322 330 328 335 338 336 337 339 337 342 345 350 351 352 350 354 356 358 361 362 364 366 362 362 363 362 362 362 363 363 361 360 362 358 360 359 360 358 358 359 359 359 356 356
327 322 318 323 326 326 329 329 334 333 333 333 337 340 343 344 347 346 348 349 351 354 356 358 360 361 362 359 365 365 360 358 358 358 360 358 363 365 358 361 358 358 358 357 358 356 356 358 354
324 321 325 325 326 330 329 329 335 330 329 333 335 338 341 342 345 346 347 349 351 354 356 358 359 363 362 362 360 360 358 358 359 363 362 360 360 362 364 362 360 360 357 359 361 359 357 356 355
318 323 324 326 329 330 329 333 330 331 330 336 339 342 342 342 342 344 346 348 350 352 354 357 360 361 362 371 359 359 357 358 357 358 363 361 358 360 363 361 364 363 361 360 361 357 358 356 355
317 320 322 324 327 329 333 330 330 331 335 338 341 343 341 343 343 345 346 349 350 351 354 356 360 363 364 364 359 359 358 356 356 356 361 359 356 365 361 364 362 359 362 361 358 358 356 356 353
319 319 320 322 327 330 330 330 332 333 336 339 340 342 342 343 343 345 346 347 349 352 353 357 359 363 364 363 364 360 359 358 357 356 357 362 358 366 358 358 357 358 361 360 358 358 355 354 351
320 318 323 324 327 328 332 327 328 335 338 339 340 341 342 343 346 346 347 348 351 352 355 357 360 362 365 365 364 362 359 358 357 357 362 362 364 363 361 358 356 357 363 361 358 358 356 351 349
317 319 316 324 328 329 330 319 330 337 337 338 339 341 341 343 345 348 349 350 352 354 355 358 357 360 363 364 363 360 359 359 358 357 360 364 364 364 362 359 356 357 357 356 355 354 349 347 346
317 312 315 321 329 329 328 320 330 337 337 336 339 339 340 342 346 349 350 351 352 356 358 359 359 358 361 364 362 362 363 365 368 367 361 363 363 362 361 357 357 360 355 359 353 350 350 344 343
312 312 315 316 325 328 325 323 330 335 335 335 338 339 340 340 343 348 350 352 354 357 360 361 360 361 364 370 369 363 363 360 359 359 364 365 366 362 363 360 358 358 358 352 353 351 348 346 343
316 316 315 318 326 325 323 323 327 334 334 334 337 339 339 340 344 348 351 353 354 357 360 362 362 364 364 362 355 355 353 356 360 358 365 365 363 363 362 357 358 358 355 354 352 347 345 339 347
315 314 315 319 325 325 322 322 327 330 334 334 335 338 340 341 343 347 351 352 353 356 360 363 364 365 365 360 363 360 362 357 358 360 363 364 363 364 361 361 358 359 351 353 348 347 340 341 345
314 314 315 317 322 325 322 320 323 327 333 335 336 338 341 342 341 344 348 350 352 354 359 362 365 366 367 367 363 363 362 363 358 359 361 363 365 365 365 363 359 357 349 340 348 346 342 335 346
311 317 317 317 317 313 323 310 319 324 328 332 335 336 337 342 344 345 346 349 351 353 358 364 366 368 368 369 365 367 356 352 352 356 355 360 365 364 363 362 358 352 345 348 345 346 343 343 338
312 317 316 316 316 316 318 314 317 322 322 328 333 336 336 338 342 344 346 347 351 354 356 360 366 370 371 369 370 363 362 355 354 354 360 363 363 364 359 362 354 350 345 349 349 346 345 343 338
316 315 315 316 314 308 315 313 312 316 321 324 330 335 337 337 339 343 346 348 349 352 355 358 365 370 370 369 368 367 363 361 353 356 353 350 352 356 360 360 354 350 346 348 346 346 345 344 342
313 312 305 304 304 304 316 313 314 319 321 324 323 330 337 338 338 340 343 345 348 350 353 356 362 365 367 367 366 367 366 365 362 360 354 352 347 348 355 360 353 347 350 347 346 345 344 343 340
309 311 305 300 301 304 313 308 313 322 324 325 326 329 336 338 337 339 342 345 348 350 352 355 359 364 366 365 369 371 369 363 361 362 355 351 347 346 352 357 352 350 348 347 345 340 340 342 340
310 308 314 309 310 305 308 313 318 321 322 325 326 330 332 337 338 338 341 344 347 350 353 359 363 363 363 363 366 368 369 366 362 364 363 355 356 347 353 353 350 347 348 345 344 339 340 340 341
311 314 306 309 302 300 305 308 310 317 318 321 324 328 332 337 338 338 340 343 347 349 352 356 359 362 363 363 363 363 365 367 365 365 363 359 357 355 351 350 346 346 345 344 345 341 342 341 335
308 307 310 311 308 302 301 306 318 318 320 320 322 330 331 335 338 339 340 342 346 348 350 354 357 359 361 361 365 364 362 363 365 364 364 363 358 354 350 350 344 344 343 344 344 343 340 339 339
311 309 311 305 306 308 307 306 319 320 321 322 322 324 327 335 339 341 342 343 344 347 348 350 354 356 359 363 366 362 362 362 362 363 362 358 354 351 349 346 344 344 343 343 343 340 338 338 337

GFSSGP_sfc_thetae_003.txt.gz
Theta_e
361 362 361 352 328 321 317 321 326 325 328 335 335 333 329 329 328 325 347 353 353 350 354 356 361 362 364 366 366 366 366 365 366 366 366 366 366 369 367 364 364 363 363 362 361 361 360 360 359
361 361 359 347 325 313 314 324 323 328 333 337 336 334 331 328 339 342 346 350 352 350 352 355 364 361 362 364 364 365 363 363 364 365 364 364 365 365 364 363 363 362 362 361 360 360 360 360 360
363 359 343 333 318 313 316 326 329 333 335 334 333 338 335 329 342 345 351 353 350 351 355 358 362 362 363 364 365 366 365 363 363 363 362 362 363 364 362 362 362 362 361 360 360 360 360 360 361
354 348 343 319 313 322 325 328 331 331 334 336 337 332 340 344 342 348 352 352 351 355 356 360 362 363 363 365 367 366 365 365 364 362 361 362 363 362 361 362 361 361 361 360 360 360 359 359 360
352 341 327 315 315 322 329 332 332 329 332 333 337 333 335 345 350 351 351 351 351 355 356 358 365 364 364 365 365 365 364 364 364 363 362 363 362 361 362 362 360 359 359 358 359 359 360 359 359
336 331 317 313 315 321 328 332 331 331 333 333 335 335 338 349 349 351 352 352 353 353 355 358 363 364 364 365 365 364 364 364 364 363 363 362 361 360 361 360 359 358 358 358 359 358 358 359 358
334 325 317 317 316 317 323 331 329 330 332 332 340 334 341 346 351 352 354 354 353 357 356 360 361 364 366 366 364 365 364 364 363 364 363 362 361 360 360 358 356 357 359 360 360 358 357 358 358
333 324 317 321 316 315 324 328 330 330 331 340 342 334 335 347 352 355 353 353 351 356 356 358 361 362 363 364 365 365 364 362 362 363 362 361 361 360 358 358 358 358 357 358 358 357 357 357 357
332 320 317 317 319 320 325 324 330 336 333 335 337 340 345 350 352 352 350 349 351 354 358 358 358 362 365 365 366 365 362 360 361 362 361 360 357 359 361 363 358 358 358 357 358 357 358 358 358
326 319 319 324 326 324 325 325 328 329 331 332 335 343 347 349 348 347 348 349 351 352 354 356 359 360 361 356 364 362 357 357 357 357 359 358 361 363 358 360 361 359 359 359 360 359 360 360 355
325 321 325 325 327 329 326 326 329 328 326 332 333 338 343 346 347 346 347 349 349 351 353 357 361 363 363 361 358 358 358 357 357 361 361 359 358 360 358 360 360 362 360 360 358 358 356 355 353
320 326 326 327 327 328 325 329 326 326 329 335 339 340 342 344 345 345 347 348 349 352 352 356 361 363 362 362 358 357 355 355 355 358 364 362 358 364 359 359 361 361 358 358 359 357 356 356 356
320 323 324 325 327 328 331 327 325 326 331 336 340 340 340 343 345 347 348 349 350 350 353 355 359 362 363 365 357 356 356 354 355 356 361 359 356 364 364 360 357 359 362 358 356 356 355 355 354
323 323 322 324 326 328 327 327 328 328 333 335 339 339 340 341 344 346 347 348 349 351 353 355 358 363 363 364 365 360 358 360 355 355 356 362 360 362 359 366 359 358 360 361 354 357 355 355 353
322 318 322 323 324 325 328 323 323 330 335 334 337 339 339 341 343 344 347 348 350 352 354 355 357 361 363 364 364 360 358 355 356 354 360 360 362 362 364 362 358 356 360 361 359 358 356 351 344
318 319 315 323 323 325 326 319 327 333 332 332 336 339 339 341 342 345 347 348 351 353 354 356 356 358 362 364 364 361 358 362 357 358 359 362 364 365 364 358 356 361 358 361 355 352 348 343 342
317 311 314 318 324 326 324 320 329 334 331 331 334 337 339 340 343 346 347 348 350 353 355 356 359 358 361 369 364 362 367 361 362 362 363 366 365 366 363 358 359 363 358 356 353 352 350 341 341
312 313 316 318 321 326 322 321 329 333 332 329 332 335 338 339 341 346 348 349 350 353 356 359 358 363 365 373 372 365 358 360 361 360 361 365 363 364 363 359 360 359 361 353 352 352 345 343 342
317 316 315 319 322 322 322 322 326 332 332 331 331 333 336 338 343 346 348 349 350 353 356 360 362 369 363 359 360 358 354 358 357 357 366 367 364 365 364 359 361 357 357 356 351 346 345 340 343
315 315 316 319 320 322 321 321 326 332 332 332 332 332 334 337 340 344 347 349 349 352 356 363 365 370 367 361 363 362 359 355 355 356 365 364 365 365 362 365 358 358 354 354 350 347 340 339 342
314 314 315 316 322 324 321 319 322 328 333 334 334 335 335 335 336 342 345 348 350 352 358 364 370 372 370 371 365 367 366 360 359 356 358 362 364 364 365 362 362 361 354 338 349 345 342 335 343
311 317 317 317 315 312 320 310 320 323 326 332 334 334 334 336 338 341 345 348 349 353 357 366 372 373 373 374 366 368 356 350 349 352 354 359 365 364 364 364 360 359 347 351 346 344 344 343 338
312 318 317 317 317 316 315 312 317 322 321 326 333 335 335 336 338 340 343 347 350 352 355 361 373 375 375 373 370 360 361 353 353 351 367 365 368 361 358 358 360 355 344 349 348 345 346 345 339
317 315 317 316 315 308 315 312 315 317 322 325 330 335 337 338 338 342 344 347 349 352 354 360 371 375 377 374 371 370 368 362 352 354 354 353 352 357 358 356 360 355 346 347 346 347 346 345 344
314 312 305 304 305 304 315 314 317 324 324 326 326 329 336 339 338 340 343 345 349 353 356 360 369 374 375 371 371 370 369 370 366 363 355 356 347 349 360 359 361 352 351 348 348 348 347 344 342
311 311 305 300 302 306 314 309 315 325 326 326 328 327 332 338 340 338 342 347 351 353 359 361 366 372 375 373 374 375 375 361 359 363 357 352 349 349 358 357 357 354 349 348 349 342 341 347 341
310 308 314 309 311 307 310 315 320 324 324 325 325 326 327 335 339 339 340 344 349 351 357 361 366 370 373 366 375 375 374 372 361 369 368 357 363 350 350 355 356 354 349 349 350 340 346 342 343
310 314 307 310 303 302 307 310 311 318 320 322 324 324 327 332 339 340 340 342 348 349 354 361 365 369 368 369 372 369 370 373 371 372 369 366 363 358 358 354 353 352 352 352 351 346 347 345 339
307 308 311 311 309 303 303 308 319 320 323 322 324 325 327 331 337 340 340 342 345 347 351 355 359 366 367 369 369 370 367 369 370 368 368 367 364 362 358 357 354 350 349 347 348 347 344 346 346
311 308 309 307 307 309 309 308 321 322 322 323 324 326 328 332 337 340 341 341 342 347 347 349 353 354 362 368 371 370 371 369 367 368 369 368 365 362 358 356 352 348 347 346 346 342 341 341 339

GFSSGP_sfc_thetae_006.txt.gz
Theta_e
359 359 357 350 327 322 317 319 327 323 326 334 334 330 330 334 328 321 349 350 351 350 353 357 363 365 364 366 367 368 367 367 368 368 369 369 369 368 367 367 366 366 365 362 362 361 361 360 358
356 357 355 334 318 312 317 325 322 328 332 336 335 332 330 329 338 339 344 350 350 350 351 353 364 366 366 366 366 366 366 366 367 367 368 368 368 367 366 364 363 363 363 362 361 361 360 361 359
356 358 344 332 320 313 315 324 327 331 334 334 332 337 333 334 340 343 348 350 348 350 354 356 365 365 366 366 366 366 366 365 366 366 366 368 367 366 365 363 362 361 361 361 361 360 360 360 360
354 350 345 328 317 321 324 327 329 329 335 337 336 330 338 344 343 345 349 349 350 353 355 361 364 364 366 366 367 366 366 366 366 365 366 367 366 364 362 362 360 360 360 360 361 360 360 359 360
355 343 326 322 318 325 329 331 331 328 332 333 334 329 333 344 347 348 349 350 351 352 355 356 365 366 366 366 367 365 365 365 366 365 366 365 364 362 362 360 359 359 360 359 360 359 359 359 359
332 335 320 311 314 322 327 333 332 329 333 333 333 333 335 344 345 348 349 350 352 350 354 356 364 366 366 367 368 367 366 365 365 365 364 363 362 362 362 359 359 358 360 360 361 358 358 358 357
324 326 320 318 314 319 323 330 327 329 331 331 338 330 337 341 347 349 350 352 352 354 355 357 358 363 366 367 367 367 365 365 364 363 363 362 361 361 361 359 357 358 359 359 359 357 356 357 356
330 329 318 319 314 313 324 327 330 328 330 339 341 330 332 341 349 351 351 351 353 352 355 359 360 359 361 361 367 364 364 363 363 363 362 362 361 362 363 362 362 358 356 357 358 356 356 355 357
334 318 317 317 317 317 324 322 331 336 332 337 338 338 342 348 350 348 347 349 349 352 354 356 356 361 364 363 362 365 363 362 363 362 363 363 357 358 360 365 364 360 360 358 359 358 357 357 359
325 320 319 323 324 321 323 323 325 327 328 331 336 341 344 348 347 345 345 344 347 347 353 354 355 360 361 356 364 364 358 356 358 358 361 358 354 362 361 364 361 363 363 358 360 360 359 361 357
326 318 324 325 326 326 323 323 326 326 323 330 335 338 341 344 346 345 346 346 347 350 351 353 358 363 361 360 361 359 357 357 359 367 363 365 360 356 352 355 351 360 358 355 357 359 356 358 354
319 324 325 325 326 326 323 326 323 326 327 334 339 342 342 342 342 343 344 345 348 351 355 359 361 364 364 363 360 361 358 358 357 360 368 370 365 363 352 353 352 356 354 355 358 356 355 354 357
319 323 325 326 326 326 327 324 324 324 331 335 338 341 341 341 342 345 345 348 349 346 355 357 362 366 367 367 360 359 360 357 355 362 365 362 365 360 353 365 365 366 362 358 361 356 356 359 357
321 322 322 324 324 325 326 325 325 325 331 332 335 337 340 341 342 344 345 346 348 349 351 356 361 366 363 367 375 369 368 356 364 355 363 368 369 368 354 364 358 360 358 364 360 360 359 355 352
320 317 320 321 322 323 327 322 322 327 328 330 333 335 338 340 343 344 345 346 349 351 354 357 360 362 363 369 370 371 362 357 359 359 361 367 369 370 371 366 365 362 360 365 360 361 353 347 347
315 317 312 320 322 323 324 317 323 329 327 327 332 333 335 338 340 346 347 347 350 352 356 358 352 360 361 363 365 363 360 363 364 368 356 366 370 371 372 363 355 350 362 361 355 354 354 346 345
313 309 311 315 323 322 321 318 325 330 328 327 330 333 334 338 340 345 346 349 350 354 358 358 360 359 363 364 364 364 363 363 362 367 365 361 357 367 365 362 357 361 359 360 352 346 351 344 345
307 310 313 313 320 320 318 319 322 327 327 327 328 331 334 334 338 343 345 348 351 354 359 360 359 367 364 366 367 364 363 359 362 362 364 360 364 367 367 363 362 366 365 355 357 352 351 347 344
313 314 312 316 322 319 320 319 319 324 329 326 329 329 332 335 340 344 345 347 349 353 357 359 360 366 367 363 358 358 356 362 360 361 361 364 369 368 368 363 363 357 363 349 351 351 346 345 347
313 312 313 318 322 321 319 321 322 328 329 329 327 329 330 332 337 342 345 346 347 351 355 361 361 366 365 364 363 362 359 357 358 361 364 366 364 369 361 363 360 357 355 355 352 350 344 344 348
312 311 313 314 319 321 318 316 322 327 329 330 331 331 331 333 333 341 344 345 348 350 355 358 363 364 365 366 365 366 366 360 358 361 361 365 367 367 358 362 365 362 358 351 353 349 346 340 349
308 315 314 314 314 310 319 307 320 321 327 328 329 330 331 333 336 339 343 346 348 351 356 361 364 366 367 365 363 360 355 354 359 361 359 363 367 366 366 367 365 363 355 355 352 349 346 347 340
311 316 314 314 313 315 316 311 317 324 321 327 329 331 332 335 335 337 343 346 349 352 356 360 365 366 367 366 365 361 360 356 357 355 368 364 367 365 362 364 363 359 355 356 350 348 347 349 344
316 314 313 314 312 306 313 311 312 318 320 323 329 332 334 335 337 339 343 347 349 352 356 358 365 367 368 368 365 365 358 358 354 359 359 358 359 362 365 361 361 359 354 353 351 351 352 348 348
311 309 304 302 304 303 313 312 316 323 325 325 324 330 335 337 337 338 341 344 348 350 354 357 363 365 368 368 365 364 364 362 365 367 359 358 353 356 359 362 360 355 355 355 353 351 351 348 346
308 308 304 298 301 304 313 308 314 326 327 328 328 330 335 337 338 339 342 344 348 350 354 357 361 364 368 367 367 366 365 362 362 364 359 358 354 356 356 358 360 359 352 352 351 348 346 348 345
308 305 311 306 308 305 309 313 318 323 325 324 324 328 329 336 338 339 343 345 348 350 353 356 362 365 368 368 368 368 366 364 361 364 364 361 360 359 358 357 359 356 353 352 352 344 345 347 348
309 312 303 306 300 300 306 309 312 318 323 326 326 326 328 330 338 340 341 346 348 351 353 358 360 364 368 368 368 368 368 366 365 363 364 359 360 360 355 357 354 355 351 352 351 346 348 345 344
307 305 307 308 307 302 302 307 321 323 326 326 326 327 327 329 337 338 341 344 349 352 352 355 357 363 366 368 367 368 367 367 366 367 366 361 363 357 357 354 354 353 351 351 348 346 344 344 344
311 308 307 302 304 307 307 308 320 325 326 325 326 327 329 330 334 338 342 342 345 348 350 353 356 360 364 366 367 366 367 368 366 364 366 363 364 360 356 356 354 353 347 349 346 343 340 344 342

GFSSGP_sfc_thetae_009.txt.gz
Theta_e
358 357 353 346 325 321 316 318 328 324 325 332 334 332 329 331 326 317 342 348 349 350 354 357 363 364 366 366 368 368 368 368 369 369 369 369 366 367 367 365 365 365 364 361 361 361 360 358 357
356 353 342 329 319 311 315 323 322 328 331 333 334 333 330 326 336 337 341 348 349 350 352 356 363 365 366 367 368 367 366 366 368 368 369 368 367 367 366 363 363 363 363 361 360 360 361 359 358
355 355 336 326 318 310 312 324 327 331 335 333 331 335 334 329 338 340 346 348 348 348 351 357 366 366 367 367 367 367 367 366 367 367 369 368 366 365 363 362 362 362 362 361 360 360 360 360 358
349 347 336 323 316 321 321 326 328 330 334 335 334 329 336 342 342 344 348 347 348 350 354 363 367 367 366 367 367 366 366 367 367 367 369 367 366 363 363 361 361 361 361 361 361 361 359 359 359
350 340 324 321 319 322 327 330 333 329 331 332 334 328 332 340 345 347 346 351 349 350 355 359 366 367 367 367 367 367 365 365 366 367 367 367 366 365 362 361 360 360 360 362 361 358 358 357 358
329 331 319 312 316 323 327 330 332 329 331 333 332 331 332 342 343 345 348 348 351 350 353 358 365 367 367 366 365 366 366 365 367 367 367 367 366 366 365 362 362 360 360 360 360 358 357 357 356
326 320 317 314 314 318 325 331 330 330 331 331 336 327 334 339 344 347 349 350 348 352 352 356 358 361 366 368 366 366 367 367 367 367 367 366 366 365 363 363 361 359 358 359 358 356 357 357 357
326 323 318 316 314 312 323 326 333 331 331 339 338 327 328 339 345 347 349 348 350 351 353 353 356 357 358 361 366 365 365 365 364 365 365 365 364 362 362 364 363 357 356 357 358 357 358 359 360
333 317 314 315 316 314 321 326 334 337 334 336 337 336 340 344 347 345 344 346 347 350 351 353 354 356 356 356 360 365 364 364 364 364 366 362 354 353 357 358 361 358 358 357 358 359 361 361 362
320 316 317 323 323 317 321 328 329 332 332 332 335 340 343 345 344 342 341 342 343 347 350 353 354 354 354 358 357 356 356 354 354 355 354 355 354 351 359 357 351 359 361 360 360 362 362 361 353
320 314 321 323 325 322 320 321 326 328 327 331 332 337 341 343 342 342 342 343 344 348 350 351 353 355 354 353 356 357 353 350 352 351 352 351 355 348 350 347 337 347 357 353 353 356 354 352 345
316 321 323 324 326 322 319 320 323 324 330 337 339 341 342 340 340 341 340 343 345 346 348 350 354 353 356 356 355 354 351 351 350 354 352 353 351 348 350 344 348 349 349 353 350 350 353 348 350
316 319 323 325 325 322 324 321 323 324 336 339 339 340 340 340 340 342 342 344 345 345 348 350 353 355 355 354 352 352 352 353 351 355 353 351 352 346 348 348 348 350 350 350 347 352 351 348 350
317 318 321 323 320 324 321 321 322 328 338 337 338 336 338 341 341 341 341 341 344 349 351 353 355 357 355 356 355 353 354 350 352 356 355 353 354 351 349 349 348 352 352 355 352 349 348 346 345
316 312 315 317 317 318 324 317 318 328 332 335 336 337 337 338 341 339 341 341 345 348 352 353 355 357 354 356 355 355 354 350 349 350 357 357 353 351 353 351 348 351 351 352 348 349 343 340 342
310 307 303 313 316 318 318 312 323 324 329 330 333 336 337 337 338 340 341 342 343 345 350 353 357 355 355 355 356 356 351 352 351 354 354 356 356 356 353 350 349 347 353 350 347 345 344 341 337
303 299 303 308 318 318 316 311 320 321 326 326 330 332 334 336 338 340 341 341 344 347 350 352 353 352 353 353 355 354 350 353 351 353 352 356 358 357 351 351 348 348 349 347 343 341 344 333 331
298 300 304 306 313 316 314 313 320 323 321 326 327 329 331 333 335 340 342 343 345 349 350 349 351 353 352 354 355 355 352 354 357 355 349 352 352 354 353 351 349 351 348 343 343 342 337 333 333
306 305 305 309 317 315 316 316 320 319 320 320 326 327 329 331 335 340 342 343 345 350 349 349 348 354 354 353 353 351 350 350 351 351 355 352 355 356 353 352 350 350 350 343 345 338 332 333 336
306 304 304 310 317 314 317 316 320 320 318 321 323 327 328 330 332 337 339 341 343 346 349 349 347 355 354 356 354 350 349 351 351 351 352 354 357 355 353 352 350 349 349 342 338 334 330 333 333
305 303 305 306 314 317 317 313 315 318 321 323 325 327 330 330 331 334 337 339 341 345 349 350 349 354 356 356 355 355 352 351 349 350 353 357 357 357 353 353 350 347 343 341 337 334 331 327 335
302 309 309 308 307 304 316 304 312 317 324 325 326 324 326 330 332 334 336 338 340 345 349 351 352 354 355 356 353 349 346 342 348 350 351 355 358 356 352 352 353 348 342 340 336 337 332 333 328
305 311 309 309 306 307 310 304 307 317 317 319 323 324 326 328 330 334 337 339 341 344 348 353 353 353 356 355 354 351 347 347 350 349 347 354 355 355 356 354 352 345 337 339 339 335 331 336 331
310 308 308 307 304 298 305 306 305 310 316 319 324 326 326 327 330 334 338 340 340 345 349 352 355 355 357 354 355 353 350 348 346 344 350 353 353 352 354 354 350 345 341 338 336 336 334 335 334
306 299 296 295 295 294 302 305 306 317 319 322 324 325 328 328 329 330 335 338 340 343 347 352 354 353 357 356 353 355 352 350 347 347 350 351 349 349 351 352 348 343 341 340 338 335 335 334 332
301 301 296 289 293 296 302 300 305 319 323 326 328 329 330 329 329 330 336 338 341 342 347 351 354 353 357 357 357 354 355 351 349 351 351 351 350 351 350 351 349 344 341 342 341 337 336 336 333
301 298 302 294 297 295 299 303 310 318 319 322 323 325 327 329 329 331 334 338 341 342 348 349 355 356 357 359 359 356 356 355 353 351 354 350 348 350 350 351 349 346 341 341 339 336 333 336 334
304 303 296 299 290 291 298 299 302 308 316 320 321 322 324 327 329 332 334 337 341 343 347 350 354 356 359 358 360 359 357 354 353 351 352 352 347 350 348 351 352 348 342 340 338 334 337 334 334
302 300 298 297 298 293 292 298 306 310 317 319 321 323 323 327 330 332 335 338 342 344 347 349 353 357 359 360 360 359 359 357 355 355 354 352 351 349 349 349 350 347 343 342 339 334 334 336 330
306 300 299 294 291 295 296 298 312 313 318 322 321 322 322 323 329 333 335 337 341 343 344 348 355 357 359 361 360 360 360 359 357 354 355 354 351 350 350 350 347 347 344 342 341 336 336 333 333

GFSSGP_sfc_thetae_012.txt.gz
Theta_e
357 357 353 344 323 322 314 319 327 324 325 332 334 331 327 329 324 316 339 346 347 348 352 355 362 365 366 368 367 367 366 366 368 367 365 364 363 364 363 362 362 362 361 361 361 359 358 357 357
356 352 343 330 317 311 314 323 321 326 330 334 334 332 329 325 335 336 339 346 349 350 351 355 362 365 366 367 367 368 366 366 368 367 365 364 363 364 362 362 362 361 361 360 359 360 360 358 357
346 345 333 326 317 310 312 322 326 329 333 331 331 335 331 329 337 339 345 348 351 350 353 356 363 365 366 366 367 367 366 366 367 365 363 363 362 362 362 361 361 361 360 360 359 359 358 359 357
341 335 330 324 316 319 322 327 331 329 332 335 333 326 336 342 340 344 348 347 347 350 354 361 365 364 365 366 366 365 364 364 366 366 363 362 362 362 361 360 361 360 360 359 359 358 356 357 358
341 335 322 319 319 323 328 327 332 329 331 331 331 327 330 340 345 346 345 347 347 350 354 359 365 367 367 366 365 365 363 363 365 366 363 362 362 361 360 360 360 360 359 359 357 356 356 356 357
327 331 318 311 315 324 329 331 332 330 331 332 330 329 329 342 343 344 347 347 350 351 355 357 364 365 367 365 363 364 363 362 365 366 364 363 363 362 360 359 359 359 359 358 356 356 357 358 357
325 319 316 313 317 322 327 334 329 329 330 330 334 325 332 338 343 346 348 349 350 353 354 355 356 358 364 366 363 364 363 362 363 364 364 365 363 362 359 359 358 357 357 358 358 356 357 358 358
326 322 315 315 314 315 327 330 333 331 330 338 337 326 327 337 344 347 347 347 348 351 354 354 355 355 358 358 364 364 364 363 363 363 362 362 362 361 359 363 361 356 356 357 357 356 358 359 357
334 315 313 313 315 319 329 328 334 338 333 334 337 335 338 342 345 344 343 345 346 349 352 354 354 355 356 357 359 364 364 364 363 362 363 363 354 352 357 358 358 358 358 356 356 357 359 362 360
323 313 315 322 321 321 328 329 331 331 330 331 333 338 340 343 342 341 340 341 344 345 349 353 354 355 355 359 354 356 356 356 356 356 355 354 351 350 358 357 348 352 359 358 360 361 360 359 352
316 312 320 324 325 328 328 330 333 329 326 330 331 334 339 340 340 340 341 343 344 347 349 351 353 354 354 354 354 353 352 351 352 352 351 351 352 346 348 345 339 342 352 350 351 351 353 352 344
310 317 320 324 325 324 326 330 331 331 331 336 337 338 339 338 338 340 340 342 344 347 349 350 352 352 351 351 354 354 351 348 348 349 349 349 349 342 345 338 346 346 349 344 350 349 350 349 348
311 314 319 324 323 322 321 327 330 330 336 339 339 340 339 338 339 341 343 344 345 346 348 349 352 352 352 351 352 352 350 349 348 348 351 350 347 344 343 345 347 345 348 346 347 350 349 348 347
314 314 314 321 321 321 318 321 326 332 337 337 337 337 339 339 340 340 341 342 344 346 346 350 351 351 353 352 350 350 350 349 348 351 352 350 348 345 345 344 346 347 348 350 349 347 346 341 340
313 308 311 311 318 319 321 319 325 333 336 335 336 337 339 339 340 339 341 341 344 344 347 348 350 353 352 351 351 351 354 352 349 352 351 354 351 347 347 347 345 348 348 349 345 343 341 338 340
305 303 299 309 312 321 317 311 328 334 333 333 335 337 338 338 340 340 341 342 344 346 347 348 352 353 351 352 353 352 350 347 347 350 352 354 351 350 349 348 348 347 347 347 345 343 341 342 332
299 296 299 303 311 319 315 310 323 333 332 330 332 335 336 337 339 341 342 342 343 348 349 349 350 352 350 352 353 352 348 349 348 350 351 352 354 354 350 348 347 345 349 344 341 340 340 333 328
295 296 299 301 307 314 311 311 319 331 331 330 331 332 333 336 338 340 342 342 346 348 350 351 351 350 351 352 350 350 347 348 351 349 350 354 354 354 348 349 347 346 345 342 340 338 335 330 331
301 299 299 304 308 312 312 312 316 326 329 329 330 331 332 333 337 339 339 342 343 347 349 350 349 349 350 348 348 346 346 347 348 350 348 349 350 352 349 348 349 347 345 341 340 336 329 329 333
301 300 300 304 308 311 311 312 317 321 324 327 328 329 331 333 335 336 338 341 342 345 348 349 349 349 349 349 350 348 348 348 349 349 350 350 350 351 350 348 347 347 346 341 336 332 327 330 330
300 299 300 300 306 311 314 310 313 318 320 324 327 329 331 332 332 334 337 339 342 344 346 346 349 350 350 350 351 348 348 347 346 347 348 350 353 353 351 350 348 346 344 339 335 332 329 325 330
296 305 304 304 300 297 313 299 312 315 315 318 323 325 327 330 332 334 337 337 340 344 346 347 348 352 352 353 350 348 346 344 347 346 348 352 355 353 351 350 347 344 341 337 335 334 330 328 325
301 306 305 305 301 297 303 301 306 316 312 318 320 323 327 329 331 331 336 338 340 343 346 346 346 353 353 353 351 349 346 347 344 346 347 348 353 354 351 350 348 342 339 337 334 332 329 332 326
307 302 302 301 300 293 301 304 301 309 314 318 322 324 326 329 330 332 336 338 339 342 345 347 346 347 352 353 351 350 347 345 343 342 343 347 352 352 352 351 350 341 336 337 334 332 329 333 333
301 294 291 290 292 291 298 299 303 313 319 321 322 322 324 328 330 331 332 335 337 339 343 347 346 345 349 352 351 350 349 347 345 342 345 348 349 347 350 350 348 341 337 336 333 333 331 331 330
296 296 292 285 287 291 298 294 302 314 322 324 325 325 325 325 329 331 332 335 336 338 343 346 347 346 349 350 351 352 350 350 348 343 348 349 350 351 350 351 347 340 338 336 334 332 332 332 330
299 292 299 290 292 290 294 298 304 309 315 322 323 324 325 325 326 329 333 335 337 338 342 345 348 348 350 351 350 352 352 351 349 347 349 350 349 350 349 350 345 341 339 338 336 332 331 334 330
300 301 293 288 287 287 291 294 299 303 307 314 320 322 325 326 326 329 331 335 338 339 343 347 350 349 352 353 353 351 351 353 350 348 349 349 348 349 349 348 346 342 338 339 337 333 331 332 332
299 296 291 294 292 290 286 294 302 304 307 311 320 325 326 327 328 328 330 335 338 340 344 347 349 349 351 353 353 354 353 351 352 350 350 351 348 346 348 347 346 343 339 338 335 333 333 330 330
304 299 295 294 289 292 295 295 305 307 308 314 318 323 328 329 327 329 330 333 336 339 343 345 350 350 351 354 354 354 354 354 352 350 351 350 349 347 347 347 348 346 342 337 337 332 333 332 329

GFSSGP_sfc_thetae_015.txt.gz
Theta_e
358 356 352 343 323 320 313 318 325 321 324 332 333 328 326 328 323 314 338 345 346 347 350 353 359 362 365 365 365 364 363 364 364 363 363 362 363 362 362 362 361 360 360 360 359 358 357 357 357
356 347 342 328 317 310 313 323 320 325 330 333 333 331 328 325 334 334 338 345 347 348 350 353 360 363 364 364 365 365 364 364 363 363 363 363 363 362 362 361 360 360 359 358 359 360 359 357 357
349 348 333 323 315 311 313 322 325 330 334 331 330 333 330 328 335 336 342 346 347 348 350 354 361 364 363 363 365 366 366 363 363 363 363 362 362 361 361 360 359 359 359 359 359 358 358 357 357
339 338 332 321 315 319 321 326 329 328 332 332 331 326 334 340 337 342 346 348 347 349 352 359 362 363 363 363 363 363 364 363 363 362 362 362 361 360 360 360 360 359 359 358 359 358 358 357 356
341 334 320 319 318 322 327 328 332 328 330 330 331 325 329 339 344 344 346 348 347 348 353 357 365 365 363 362 362 362 362 363 363 362 361 362 360 360 359 359 359 358 358 358 356 357 358 357 358
326 328 317 312 314 323 328 327 332 330 330 330 328 328 329 342 342 344 346 345 349 349 353 356 362 364 364 362 362 362 361 362 363 362 361 362 361 359 358 358 358 358 358 358 357 357 358 356 358
325 317 314 314 317 321 326 331 330 329 328 328 332 324 331 337 342 343 345 347 349 351 353 354 355 358 363 364 362 361 361 362 363 362 361 361 361 360 358 357 357 357 357 357 357 356 357 357 360
327 318 315 313 318 318 329 330 333 330 328 336 335 324 325 336 342 345 346 347 349 352 353 352 351 352 355 356 362 362 361 362 363 362 362 361 361 361 359 361 357 356 355 356 356 356 357 356 358
334 313 310 311 314 318 328 327 333 337 332 333 335 333 336 342 344 343 343 344 346 350 352 353 352 351 354 355 357 362 362 362 362 361 361 362 353 352 357 359 357 359 358 355 356 357 358 357 357
323 311 313 319 319 323 328 329 330 330 329 330 332 336 340 341 341 340 339 339 342 345 350 353 352 353 354 358 354 355 355 355 354 355 354 355 351 349 355 356 354 352 357 357 358 357 358 356 349
325 318 321 321 322 329 328 329 332 328 325 329 328 333 337 339 340 339 340 341 341 346 349 352 353 354 354 354 351 352 352 352 353 353 352 352 350 349 350 345 343 340 352 348 350 349 351 350 344
312 322 326 322 320 329 327 330 328 329 328 334 334 336 336 337 338 338 339 341 343 344 347 351 352 352 352 350 352 351 351 348 348 350 349 347 347 343 342 336 343 343 347 345 345 347 349 347 348
314 316 315 318 320 329 331 329 328 328 334 336 336 336 335 337 338 340 342 343 344 343 346 349 351 351 352 348 352 349 349 348 347 347 348 348 346 344 342 340 345 344 346 345 347 348 349 348 344
311 312 312 313 313 328 327 329 329 330 335 335 335 334 336 337 338 339 341 342 343 345 346 348 349 350 350 348 348 350 349 347 345 346 348 349 347 344 342 340 344 345 345 347 348 345 345 340 339
310 307 308 309 310 322 328 323 325 332 335 333 333 335 336 337 339 339 341 341 344 346 348 347 349 350 349 349 349 348 348 348 345 347 351 351 348 344 343 342 344 346 347 347 345 344 339 337 336
302 301 298 306 309 313 321 311 325 333 332 331 333 334 335 336 338 340 342 342 345 346 345 347 351 349 349 350 348 349 349 350 348 347 349 351 350 346 345 346 344 346 345 346 343 342 339 338 332
297 296 298 302 308 315 314 310 327 332 331 330 332 334 335 336 338 340 342 343 344 345 345 347 349 349 349 350 350 349 349 347 346 346 348 350 350 350 348 347 346 345 345 342 341 338 337 328 327
294 295 296 298 305 313 309 310 326 330 330 330 331 333 334 335 337 340 340 342 344 344 345 346 348 350 350 350 350 349 346 345 346 347 348 350 351 352 349 347 346 344 344 341 338 336 334 328 328
299 297 297 301 306 308 309 310 324 328 329 329 331 332 333 335 338 340 341 341 342 344 345 346 346 348 349 347 347 345 345 344 346 348 348 351 352 353 348 347 345 344 343 340 338 335 329 326 330
299 297 297 301 305 305 306 308 324 327 327 330 330 332 333 335 336 338 339 340 340 343 345 346 347 347 349 349 349 347 345 345 346 348 347 348 351 351 348 346 346 345 343 339 337 331 327 327 329
296 296 298 298 302 304 308 306 312 326 328 329 331 332 334 333 334 337 337 338 339 341 345 347 347 348 348 348 348 345 345 344 344 345 345 348 349 349 349 347 346 345 343 339 334 331 326 324 329
293 301 302 300 297 293 307 297 306 314 323 325 328 330 331 332 334 335 337 336 338 341 346 347 348 348 347 348 347 346 344 342 344 345 346 348 350 350 350 349 347 345 343 338 334 332 327 326 324
299 303 302 301 297 293 298 297 301 312 312 317 323 327 330 332 333 333 335 337 339 341 344 347 348 347 347 348 347 346 343 344 342 343 345 346 349 350 351 348 346 342 339 338 334 331 329 328 325
305 300 298 297 294 289 297 296 297 306 312 315 319 324 327 330 332 334 336 338 339 341 344 346 345 347 348 348 347 346 345 343 341 340 344 344 346 350 350 349 347 343 338 336 334 332 328 331 328
300 293 287 285 287 289 296 295 300 307 316 318 318 321 326 328 330 331 332 335 337 339 342 344 343 346 348 348 348 347 346 345 343 342 343 342 345 345 348 347 346 342 337 336 333 330 327 331 329
295 295 286 282 284 290 294 291 298 311 315 321 322 322 324 326 328 330 331 333 337 338 341 343 343 344 348 349 349 349 348 347 346 343 344 345 347 348 350 349 348 344 336 335 332 330 329 330 329
295 293 298 288 287 286 291 296 301 307 309 315 319 321 323 324 327 329 331 332 335 337 339 343 342 342 346 349 349 349 349 348 346 344 345 346 348 349 349 350 348 344 338 335 332 330 330 331 328
300 299 291 285 285 285 288 291 294 300 304 310 317 319 321 324 325 328 330 332 334 336 339 342 344 343 344 347 349 349 349 349 348 346 345 346 347 348 347 349 347 343 338 335 333 330 329 331 329
294 296 290 291 289 287 287 291 300 303 305 307 313 319 322 323 325 326 329 332 333 336 337 341 344 344 344 345 347 347 349 350 349 346 347 347 347 347 347 348 347 343 338 337 335 332 330 329 329
300 297 292 290 287 288 291 292 301 306 307 307 309 315 320 324 326 327 327 330 332 334 336 340 342 344 345 347 348 347 348 349 350 348 347 349 347 347 347 347 346 343 340 337 335 334 334 329 327

GFSSGP_sfc_thetae_018.txt.gz
Theta_e
357 356 352 342 322 319 313 317 324 319 324 330 331 327 325 328 323 313 338 344 346 346 349 352 357 360 363 365 365 364 363 362 363 363 362 362 362 362 362 361 360 360 360 359 359 358 358 357 356
356 350 340 327 315 306 310 321 319 324 328 332 332 330 328 325 333 334 336 344 347 348 349 351 358 363 363 364 364 365 362 362 363 362 363 362 362 362 361 361 360 359 359 359 358 358 357 356 356
349 347 331 321 314 308 310 320 324 329 333 331 328 332 330 328 334 335 342 345 348 348 350 353 360 365 364 363 364 365 363 363 362 362 362 362 361 361 360 359 359 360 359 359 359 358 357 355 354
343 337 333 319 315 319 319 323 328 328 330 332 331 325 333 339 335 341 344 346 346 349 352 358 362 362 364 363 365 364 362 362 362 361 362 361 360 360 359 360 360 360 359 359 358 357 357 354 353
341 333 320 318 318 321 325 329 331 326 329 328 330 324 327 337 342 343 344 346 345 348 353 355 364 364 364 363 363 363 362 362 361 361 361 361 360 359 359 359 359 359 359 359 357 358 356 356 356
327 330 314 310 314 323 326 327 331 329 329 328 326 326 329 340 340 343 345 345 348 349 353 355 363 362 363 362 363 362 362 362 361 361 361 361 359 358 358 357 358 359 360 358 357 357 355 356 358
323 316 314 313 315 321 326 329 329 326 327 326 330 324 331 335 342 344 344 346 348 352 352 354 356 358 362 362 362 361 361 362 362 361 360 361 360 357 357 356 358 358 358 358 357 356 356 358 356
327 316 313 311 315 316 328 329 332 329 327 334 334 323 324 335 342 343 345 345 346 350 353 351 352 354 355 356 361 361 361 362 362 361 361 360 360 358 356 360 357 358 356 355 357 356 355 359 360
334 314 309 310 316 318 328 326 333 335 330 332 333 332 335 341 341 341 342 343 345 349 350 350 349 349 354 355 356 361 361 361 361 360 360 362 354 355 354 357 356 359 358 355 354 357 359 360 356
324 312 313 318 318 320 328 328 329 329 327 329 331 335 339 339 339 338 339 338 342 345 348 350 349 350 354 357 355 355 355 356 356 357 356 358 356 353 355 356 354 352 359 357 357 357 357 354 351
326 318 320 321 322 324 327 328 331 328 323 328 327 331 336 337 337 338 339 340 341 345 349 351 350 352 354 355 353 354 354 355 355 355 355 356 354 352 354 351 349 345 350 352 353 351 351 353 347
316 321 326 324 322 326 326 329 328 329 327 333 333 335 336 336 336 338 338 340 341 344 347 351 352 352 353 352 353 352 352 352 352 352 353 352 350 349 348 344 343 347 349 349 348 351 350 350 350
317 319 317 320 318 323 329 327 327 328 333 335 335 335 335 336 337 339 341 342 342 343 346 350 352 352 353 349 351 351 350 351 350 350 351 350 349 348 346 345 348 348 350 350 350 350 352 349 347
309 312 316 312 311 319 326 327 328 330 333 332 333 333 335 336 337 339 340 341 342 343 345 349 351 352 352 350 349 350 350 349 348 347 349 350 349 348 347 345 346 348 349 351 351 350 348 344 342
308 305 307 308 308 319 327 322 324 330 332 330 331 332 334 337 338 338 340 341 343 344 345 347 349 351 350 349 347 349 350 349 347 346 348 351 350 349 347 345 346 349 351 352 351 348 345 341 338
301 299 297 305 309 317 324 314 326 331 330 328 330 332 333 335 338 340 342 342 344 345 345 347 349 349 349 348 347 348 348 348 348 347 349 352 352 350 348 347 348 350 350 351 348 347 345 340 336
296 294 297 301 306 311 321 309 325 331 330 328 329 331 333 334 337 339 342 342 344 345 346 346 347 347 348 348 348 348 348 349 349 349 349 351 353 352 349 349 350 351 349 348 347 344 342 335 334
293 293 295 298 303 312 314 309 322 329 329 328 329 331 332 333 335 339 341 343 344 346 346 346 347 348 348 348 349 349 348 348 349 347 349 351 352 352 349 349 350 348 348 345 343 342 338 335 334
299 296 297 300 304 304 308 310 322 327 328 328 329 330 331 333 337 339 340 343 343 345 345 345 346 348 347 347 346 346 346 346 347 348 350 351 352 353 351 350 350 347 347 346 344 340 337 333 335
298 296 296 299 303 300 300 304 322 326 327 328 329 330 332 333 335 338 339 340 341 342 343 344 346 348 349 348 348 349 347 347 347 350 350 352 352 353 352 350 349 348 347 344 343 339 333 332 333
295 295 296 297 300 300 303 302 307 324 327 330 331 332 333 333 333 335 337 338 340 341 342 343 345 347 349 350 349 346 347 347 346 347 349 349 352 353 353 350 350 349 348 345 342 338 334 331 334
291 299 300 299 295 291 303 293 304 316 322 326 328 330 332 334 336 336 337 338 338 340 343 345 346 346 348 349 348 346 345 344 346 346 348 349 351 351 352 351 350 349 348 345 342 337 334 333 332
297 301 299 299 295 292 296 293 297 313 317 321 325 328 332 334 336 336 337 339 340 340 341 345 346 346 347 348 348 346 345 345 345 346 347 348 350 351 351 351 350 349 347 346 342 336 334 333 332
302 299 295 294 292 287 294 294 292 304 315 322 326 329 331 332 335 336 338 340 340 341 341 343 345 346 348 347 347 346 345 343 342 343 344 346 349 350 352 352 350 349 346 345 342 338 336 335 333
298 293 286 285 286 289 293 293 298 304 314 317 323 326 329 332 333 334 334 336 339 338 340 342 344 344 347 346 346 346 346 345 344 344 345 345 346 348 350 351 349 347 345 343 341 337 335 336 334
294 292 286 282 282 288 292 290 295 305 312 318 320 323 327 329 332 334 335 335 337 338 339 342 344 344 346 346 346 347 347 346 346 346 346 346 347 349 352 351 351 349 345 343 340 337 334 335 336
293 293 295 286 286 285 289 294 301 305 306 313 317 319 320 324 329 331 334 335 336 337 339 341 343 344 345 347 347 347 347 347 346 347 347 347 348 350 351 351 350 349 345 342 339 336 335 335 335
296 297 290 284 283 282 287 289 294 299 304 307 312 317 320 322 325 328 331 333 336 338 339 342 343 343 345 347 348 348 348 349 349 348 346 346 348 351 350 351 351 349 345 341 339 336 336 335 333
293 291 288 291 286 284 283 290 297 301 304 305 309 316 319 321 323 325 329 332 334 336 339 340 342 343 343 347 348 348 348 349 349 348 347 347 348 349 350 350 350 348 345 341 338 337 336 335 335
302 297 291 290 286 285 286 291 301 302 305 307 308 312 319 322 323 326 327 330 331 333 336 338 341 342 343 345 348 348 349 350 349 348 349 349 347 349 350 350 350 348 345 342 340 337 337 334 333

GFSSGP_sfc_thetae_021.txt.gz
Theta_e
355 355 353 345 326 323 316 319 327 322 324 332 333 329 327 329 323 319 344 347 349 348 353 355 359 363 364 365 363 364 363 363 363 363 362 361 362 362 361 361 361 360 359 358 358 357 357 356 356
356 353 347 333 320 314 316 324 322 327 331 335 334 333 329 325 333 338 340 347 349 349 352 353 360 365 365 366 366 365 362 362 362 362 363 362 362 362 361 360 359 359 359 358 358 356 355 355 355
354 349 332 326 321 315 317 323 328 330 333 332 331 335 332 329 337 340 346 346 348 350 351 354 361 366 364 365 365 365 364 363 363 363 363 362 361 361 360 360 360 360 359 359 359 356 355 354 353
347 342 335 322 317 321 321 327 331 330 332 335 333 328 335 341 339 344 347 348 348 350 351 358 363 363 364 365 365 363 363 362 362 363 361 362 361 360 360 359 360 360 360 359 357 358 356 354 353
345 334 325 320 318 324 328 332 333 329 331 331 332 326 329 340 346 346 347 348 347 349 353 357 363 365 365 366 365 363 362 362 362 362 361 361 360 360 359 360 359 360 359 358 357 356 356 357 356
332 334 319 315 317 326 328 334 332 330 332 331 329 329 332 344 343 345 347 347 349 350 353 357 363 365 365 364 363 362 362 362 361 361 361 360 360 359 359 359 360 360 359 357 357 356 355 358 358
327 326 318 318 317 322 327 335 332 331 330 328 333 327 333 339 344 346 347 349 350 353 354 357 356 361 363 364 363 363 362 362 361 361 361 360 359 358 357 358 357 358 358 357 356 356 356 356 357
334 326 319 319 319 320 330 331 336 333 329 335 336 327 327 339 345 346 347 348 350 352 353 357 355 356 359 360 361 361 361 362 361 361 360 360 359 357 356 356 357 357 357 356 355 354 354 354 355
336 325 319 317 320 323 333 330 335 338 332 333 335 334 338 343 345 344 344 345 347 350 353 355 354 357 360 360 359 361 360 360 361 360 360 359 365 363 360 359 357 357 357 355 355 355 356 355 357
331 323 320 324 326 321 331 332 333 331 330 330 333 338 340 342 342 340 340 340 343 346 349 353 355 355 358 356 361 361 359 358 359 359 360 362 362 363 359 359 355 353 357 357 356 356 355 354 352
332 324 327 325 326 325 328 332 335 331 327 331 331 334 338 339 340 339 340 341 342 346 349 352 355 358 357 356 357 358 358 358 359 363 362 361 363 361 363 362 361 357 353 358 358 358 354 357 354
326 330 329 326 326 326 327 334 332 333 331 336 337 337 338 337 338 339 339 341 343 346 348 351 354 357 357 357 356 356 356 358 357 358 363 361 358 361 362 359 354 356 356 359 359 357 356 354 355
328 325 325 325 325 322 326 331 331 332 336 338 339 338 337 337 338 341 342 344 345 346 348 350 354 356 357 358 355 355 358 357 357 359 360 358 357 359 360 358 357 358 359 358 355 358 359 353 349
321 319 315 318 320 318 323 327 332 333 338 336 337 336 337 337 338 341 343 345 347 348 349 351 353 356 358 357 358 356 357 358 358 356 357 360 356 357 358 358 355 359 360 359 356 357 353 347 351
313 308 312 313 315 314 322 323 326 335 337 335 335 336 337 338 340 341 344 345 348 349 351 352 354 356 357 357 358 356 355 356 354 354 358 358 359 360 361 359 355 357 361 361 363 354 356 344 344
308 308 304 312 313 317 322 310 327 335 335 333 334 335 336 338 340 343 346 347 350 351 351 353 353 355 356 357 357 355 355 355 354 354 355 357 360 362 361 358 356 359 361 364 363 361 358 349 344
305 303 304 308 314 318 322 313 323 335 334 333 334 334 335 337 341 344 346 348 349 351 351 351 354 354 355 357 357 356 357 355 355 355 354 357 359 361 361 359 358 361 359 363 362 358 354 347 344
300 301 304 306 311 313 318 317 322 333 333 333 333 334 335 336 339 344 346 348 350 352 353 353 353 355 356 356 356 354 354 353 354 354 356 360 360 361 362 359 360 361 358 357 356 356 351 346 346
303 303 304 308 311 313 315 317 323 331 333 332 333 333 334 336 340 344 346 347 349 351 352 353 353 356 354 352 349 349 349 351 354 356 359 362 362 363 363 359 360 360 356 358 357 352 348 342 348
302 302 303 306 309 308 309 311 316 328 331 333 334 334 334 337 339 342 344 346 347 349 352 354 355 357 356 354 354 353 354 353 357 357 360 361 362 363 362 362 360 360 355 357 356 352 345 343 345
302 301 303 304 306 308 308 307 311 325 331 334 336 337 336 337 338 340 342 344 346 348 352 355 358 359 358 358 355 355 357 358 356 356 358 360 362 363 364 363 361 361 358 355 356 352 350 341 343
298 304 304 304 303 301 309 301 311 316 325 329 333 335 336 337 340 341 342 344 345 349 352 356 358 360 358 361 357 357 350 349 352 355 357 359 362 363 363 363 362 362 359 358 357 354 350 345 338
301 305 304 305 303 303 304 302 308 316 319 326 330 333 336 338 340 341 342 344 347 349 349 352 357 359 360 361 361 355 355 353 354 355 360 363 363 362 362 363 363 362 359 360 358 354 350 345 341
308 305 305 304 303 296 302 302 304 309 315 323 330 333 336 338 340 342 344 346 347 348 348 351 355 357 359 360 360 360 359 357 353 354 353 354 356 358 361 362 363 363 361 360 358 356 353 348 344
306 302 296 294 294 295 305 301 305 312 318 320 327 332 335 339 340 341 343 344 347 348 350 350 354 355 358 358 359 360 360 360 359 357 353 355 353 354 360 362 362 360 362 361 359 355 352 349 344
303 302 296 291 293 296 303 299 304 313 316 322 325 331 335 337 339 341 344 346 348 349 350 350 351 354 356 357 358 359 361 356 357 359 354 353 353 355 361 362 363 362 361 360 358 354 351 350 347
302 299 305 297 297 296 300 304 308 312 314 318 322 324 329 334 337 339 344 346 348 349 350 351 351 353 356 356 357 358 359 358 357 360 360 355 361 356 360 361 362 362 361 360 358 353 351 348 348
304 307 297 298 291 291 297 299 302 309 312 315 318 321 325 328 333 338 341 344 347 348 351 351 352 353 355 356 357 356 358 359 359 360 360 360 360 360 359 360 361 361 361 360 358 355 353 349 345
300 300 302 302 299 293 292 297 309 312 317 317 318 321 324 327 329 333 339 343 346 346 348 350 351 352 354 356 357 357 357 357 359 359 360 360 361 361 360 360 360 360 360 359 357 356 354 348 347
306 303 303 297 296 298 298 298 309 313 316 318 319 321 324 329 331 333 335 339 342 345 345 347 349 350 353 355 357 356 358 358 357 358 359 361 361 361 363 362 360 360 360 359 356 355 353 349 347

GFSSGP_sfc_thetae_024.txt.gz
Theta_e
355 357 356 346 328 327 321 323 330 326 328 335 333 333 331 331 327 324 348 348 353 352 352 359 363 362 361 361 363 363 363 363 363 362 362 362 362 361 361 361 360 360 360 359 358 358 357 356 356
354 354 351 340 322 318 321 327 325 329 334 337 337 335 332 326 338 342 345 351 353 353 354 356 360 363 363 363 364 364 362 363 362 362 362 362 361 361 360 359 359 360 359 359 359 357 356 355 354
356 353 339 329 324 317 320 327 330 333 336 335 334 340 336 333 340 344 350 351 352 351 353 359 363 366 364 364 364 365 363 362 363 362 362 362 361 360 360 360 360 360 360 359 358 357 355 353 353
348 345 338 327 320 324 325 331 333 332 335 336 336 332 339 343 342 346 350 351 350 353 354 360 364 364 365 364 364 363 362 362 362 362 361 361 360 360 359 360 357 359 359 358 358 357 357 354 353
347 336 326 325 323 326 331 335 335 332 333 334 336 331 332 341 347 347 349 350 349 351 355 359 366 366 366 364 363 363 362 362 362 361 361 360 361 360 360 360 360 360 358 357 357 356 358 356 357
337 337 322 316 320 328 331 336 335 333 334 334 333 333 335 346 345 348 350 349 350 351 354 357 365 366 366 365 363 362 362 362 362 361 360 360 360 359 360 361 361 360 357 357 357 356 358 357 358
334 330 322 321 321 325 329 337 333 333 333 332 338 332 337 341 347 349 350 350 350 351 352 355 358 362 363 366 362 362 362 362 362 361 360 360 359 358 358 359 359 359 357 356 356 356 356 356 357
338 332 322 323 321 324 332 335 337 335 333 340 340 330 333 342 348 349 350 348 350 350 351 353 356 356 361 361 362 362 362 362 361 361 360 359 358 357 358 357 359 357 356 355 355 354 354 354 355
340 328 321 320 322 325 335 333 338 341 336 335 338 338 342 347 348 347 347 347 347 350 351 351 352 355 359 359 360 361 361 361 361 360 360 360 362 362 361 360 358 356 356 354 354 354 355 356 359
333 327 321 326 326 324 329 333 336 334 333 333 336 341 344 345 346 344 344 345 348 348 350 350 351 353 355 353 359 359 356 355 357 356 359 360 362 365 360 359 356 354 356 356 355 354 356 358 348
331 326 327 326 327 327 327 333 338 333 330 334 334 338 342 343 343 343 344 345 346 349 349 351 352 355 354 354 355 355 355 355 358 361 360 363 365 365 363 360 359 356 356 356 355 354 354 356 351
327 330 331 328 327 326 323 333 334 335 332 338 341 341 342 341 342 342 342 344 345 348 350 352 354 355 355 354 353 354 352 354 354 356 362 362 359 362 364 359 361 358 357 359 358 354 355 358 356
328 327 327 328 328 327 324 326 330 334 337 340 342 341 341 341 342 344 344 345 346 346 349 351 354 357 357 358 353 351 353 352 354 357 359 359 360 365 365 363 361 361 360 358 359 357 353 356 356
327 328 326 321 322 324 320 325 330 334 340 339 340 339 341 341 342 344 344 345 346 348 349 352 354 357 358 357 359 356 356 355 356 354 354 361 360 365 363 362 361 362 362 359 360 358 359 351 353
324 318 317 318 320 319 321 318 325 334 340 338 338 339 340 341 343 343 344 345 347 349 351 352 355 357 359 360 360 359 355 355 354 352 357 360 362 364 367 362 360 361 366 360 361 359 357 351 346
314 314 310 319 320 319 320 315 327 336 338 338 339 339 339 341 342 344 346 347 349 352 353 355 354 356 358 359 360 357 355 354 352 351 353 360 362 366 366 365 358 363 364 360 358 356 352 354 351
311 308 311 315 320 320 320 317 325 335 336 337 339 339 339 340 342 344 346 348 350 354 356 357 358 357 359 361 360 360 358 355 353 352 352 361 363 365 364 365 359 364 361 361 357 358 354 349 347
307 307 311 312 318 318 317 319 323 331 333 335 339 339 339 339 341 344 347 349 351 354 357 358 358 360 362 360 361 357 354 354 354 353 353 360 362 364 365 362 361 359 362 361 360 359 355 349 341
311 310 310 313 318 316 317 317 320 327 332 332 337 339 339 340 344 345 348 349 351 353 356 357 357 361 360 356 354 352 349 351 352 353 359 363 365 367 368 363 361 359 359 361 358 356 353 346 346
308 307 309 314 316 314 315 315 321 325 331 333 336 338 339 341 342 344 347 348 349 352 355 358 359 361 361 358 358 354 353 351 353 355 360 364 365 369 367 372 364 361 363 361 359 359 350 349 343
306 306 308 309 313 314 313 312 316 319 325 331 335 339 340 341 341 343 345 346 348 350 354 357 360 361 362 363 358 356 355 354 352 354 357 362 366 367 369 367 366 366 361 365 361 359 354 346 343
303 309 308 308 308 305 315 305 315 318 321 325 331 335 338 341 343 344 344 345 347 350 354 358 361 362 363 364 360 362 352 350 352 356 356 359 366 365 366 368 367 368 361 363 365 358 357 355 342
305 309 307 307 306 307 309 307 312 318 316 320 327 332 337 341 343 344 345 345 347 350 352 356 362 366 366 365 366 358 359 355 356 355 365 369 368 367 364 367 367 366 366 364 364 361 360 354 347
310 307 306 307 305 300 307 308 309 313 317 320 327 332 337 340 342 345 347 347 347 350 353 355 362 368 367 366 363 367 366 362 355 358 355 356 358 361 365 366 365 366 366 365 364 364 361 358 352
308 305 299 297 297 298 309 306 310 316 320 321 323 327 337 340 342 344 346 347 347 349 352 354 360 364 364 363 364 364 365 366 365 362 357 361 355 355 365 366 367 364 368 366 366 365 362 360 354
306 305 299 294 296 299 308 303 309 319 321 322 325 326 333 339 342 343 346 348 349 349 353 355 359 362 363 363 367 370 369 360 360 364 359 358 356 357 363 364 365 366 366 367 367 362 360 360 356
306 303 308 302 304 301 305 308 314 317 318 320 322 324 327 337 341 343 345 348 350 352 355 359 361 364 363 360 367 369 368 368 361 368 367 361 367 359 362 363 365 365 365 367 367 361 362 360 358
309 310 301 303 296 295 301 304 306 312 315 319 320 323 326 333 339 342 345 346 350 352 354 357 360 363 364 364 364 363 365 369 369 370 368 369 366 367 363 364 364 364 365 366 367 362 363 361 356
305 305 306 306 303 298 297 303 314 314 317 318 321 324 326 330 335 339 342 346 348 351 354 355 356 360 360 364 366 365 364 365 366 366 369 371 368 370 367 367 364 363 364 365 366 366 362 361 359
309 307 307 301 301 303 303 303 313 315 317 320 321 324 327 330 332 335 338 342 346 348 351 353 355 355 359 362 366 366 367 367 364 367 368 371 370 370 369 367 365 363 362 366 365 363 360 360 358

GFSSGP_sfc_thetae_030.txt.gz
Theta_e
356 355 353 347 326 323 318 320 328 326 329 335 338 334 331 335 330 322 342 345 344 346 350 356 361 362 362 365 367 365 366 366 364 363 364 363 362 361 363 363 363 362 361 360 360 358 359 358 356
354 353 350 339 321 311 317 327 323 328 333 337 336 335 334 330 336 337 340 342 343 346 348 353 362 363 363 363 366 365 363 363 363 362 363 363 364 364 363 362 361 361 360 359 358 358 357 357 356
350 353 338 331 323 315 318 324 328 332 337 336 335 340 336 332 336 339 341 342 342 347 349 357 364 364 364 366 366 365 364 364 363 362 362 361 361 363 361 362 362 360 360 359 358 357 356 355 355
348 347 341 323 319 323 326 330 331 332 336 338 336 332 338 341 341 343 338 340 342 348 351 360 362 363 364 366 365 364 364 363 363 362 363 362 361 361 360 360 360 360 359 359 359 359 357 356 356
348 339 325 323 321 326 331 333 333 331 332 334 338 330 334 344 349 343 343 343 345 349 354 354 365 365 366 365 365 365 363 362 363 364 362 361 361 361 362 362 360 360 360 360 360 360 359 358 357
337 330 318 317 319 326 331 335 334 333 335 336 334 333 334 345 346 347 349 347 350 350 351 356 364 365 366 364 365 364 363 361 362 362 362 362 362 363 362 362 360 360 360 359 359 358 357 358 355
329 321 317 320 317 323 329 336 333 333 332 334 339 331 336 341 346 349 348 348 348 349 351 356 359 362 364 365 365 363 362 361 361 361 360 361 360 360 361 362 362 359 359 358 357 356 356 355 357
336 326 321 321 318 317 331 333 336 333 332 343 341 330 330 340 347 348 349 348 349 346 350 355 356 355 358 359 363 362 361 361 360 360 360 360 359 358 358 363 363 359 358 356 355 354 354 356 358
341 325 320 320 321 322 329 332 337 338 336 339 341 338 341 345 346 344 343 346 347 345 347 349 350 357 360 359 359 361 361 360 360 359 358 357 364 357 359 363 362 358 356 354 353 354 355 358 360
330 320 319 328 326 325 329 327 332 332 332 335 338 341 343 344 343 341 340 341 344 342 344 347 350 354 355 351 360 361 357 356 358 355 338 342 358 360 360 359 364 359 355 356 357 359 360 354 351
329 321 325 326 329 329 327 326 333 329 328 336 334 337 341 341 341 340 341 342 343 343 344 347 351 356 353 354 356 356 355 355 355 353 338 345 357 357 356 358 356 358 352 353 354 354 356 353 353
323 327 326 328 331 327 328 329 327 329 329 340 341 340 341 340 340 341 341 342 343 344 345 346 352 357 354 354 351 353 352 352 355 359 361 359 354 353 360 356 361 353 355 354 357 355 358 358 357
324 328 329 326 329 327 331 328 327 327 334 340 342 341 340 341 341 343 345 345 347 345 345 348 352 357 363 359 352 351 355 353 356 360 363 353 351 362 364 364 352 352 351 350 352 358 357 357 348
326 327 327 328 330 328 323 328 328 330 334 337 339 339 340 340 342 344 345 345 346 348 345 350 353 358 366 365 371 361 364 356 357 355 358 365 362 365 369 365 354 359 353 350 352 349 349 350 349
325 320 324 326 327 324 326 320 323 332 334 333 336 339 340 340 341 342 346 345 347 346 349 350 353 356 362 365 369 367 363 352 355 357 364 364 369 370 360 363 360 363 366 364 361 356 351 345 347
320 320 315 324 326 324 322 314 328 332 333 331 334 337 339 340 340 344 345 345 348 347 350 352 350 353 357 360 364 363 357 358 359 360 360 364 369 373 371 359 355 352 362 359 358 357 349 349 346
317 311 314 318 325 323 320 316 323 332 332 333 333 335 337 340 342 345 344 346 347 350 354 354 355 354 356 362 361 360 361 363 362 364 359 364 368 369 370 367 362 364 353 360 358 358 358 346 345
310 311 313 315 321 321 318 317 323 328 331 333 336 334 336 337 340 344 345 347 348 352 355 356 354 358 358 359 363 358 358 360 361 363 362 363 366 369 372 366 368 362 353 362 361 361 355 351 344
316 313 310 315 320 319 317 319 323 326 325 331 334 336 335 337 341 345 345 347 349 352 354 355 357 364 359 358 355 356 351 357 358 363 367 367 367 370 373 369 354 365 358 363 361 359 356 348 348
314 312 311 314 318 318 318 316 322 326 324 327 332 333 337 336 339 343 345 345 346 350 355 356 358 363 362 359 359 357 358 357 357 360 366 365 365 367 368 368 364 364 362 363 364 362 354 348 346
312 311 311 311 315 318 317 314 318 324 327 327 334 334 338 338 338 341 343 344 346 350 355 358 360 365 362 363 363 363 365 365 355 356 360 361 366 367 368 367 368 364 364 360 363 362 359 350 346
306 314 313 312 311 306 315 305 317 320 321 325 327 330 336 340 341 341 343 344 346 350 356 361 362 364 363 366 361 360 353 349 353 355 357 358 363 367 368 367 367 369 365 360 361 365 362 358 345
307 312 311 310 310 309 310 307 312 320 318 321 327 332 335 340 341 341 342 345 347 350 355 360 363 364 365 362 366 359 355 354 353 356 362 361 363 365 365 367 368 369 367 363 362 366 363 363 353
311 309 309 308 307 302 308 308 309 314 319 321 326 329 336 336 342 344 345 347 347 350 354 359 362 362 365 364 361 364 357 356 352 353 354 358 361 363 367 369 367 369 365 366 364 366 367 363 361
309 305 299 298 298 298 308 306 311 318 322 323 324 327 332 338 341 344 345 345 346 348 352 355 361 360 362 363 360 361 362 357 362 360 355 356 354 359 362 367 367 364 366 368 364 366 367 364 361
307 305 300 294 296 298 306 302 308 319 322 326 327 327 331 334 338 343 346 346 346 347 350 354 359 360 362 362 363 361 366 359 355 364 356 357 356 356 365 363 366 366 366 366 369 364 363 364 361
307 303 309 303 304 300 303 306 313 318 319 322 323 327 328 332 335 341 346 348 347 347 350 353 358 360 363 361 364 363 361 364 356 360 364 361 362 361 367 364 364 364 366 366 366 362 363 365 362
310 312 302 304 297 297 301 305 305 313 316 320 323 323 328 332 335 341 345 348 348 348 350 353 357 360 363 364 363 364 361 363 364 359 363 360 364 363 372 365 365 365 365 368 366 364 365 362 363
307 307 307 306 304 299 299 303 316 316 319 321 322 325 327 332 335 339 345 348 350 349 350 351 354 360 363 364 364 364 365 362 362 363 361 366 362 371 363 370 366 365 364 365 366 363 361 363 360
311 308 309 302 302 305 305 305 317 320 321 322 323 325 328 331 337 339 343 347 350 349 349 351 353 357 362 365 365 364 365 366 364 360 362 365 368 364 370 367 366 365 364 365 363 363 359 361 360

GFSSGP_sfc_thetae_033.txt.gz
Theta_e
354 350 349 345 326 322 316 319 328 326 327 335 336 334 330 330 327 318 340 344 346 347 351 357 362 364 363 367 365 364 364 363 365 366 365 363 361 363 364 362 361 361 360 360 360 360 359 357 357
352 351 349 337 320 310 315 325 324 328 332 334 336 335 332 325 334 335 336 343 346 347 350 355 363 364 363 365 366 366 362 362 365 365 365 364 362 364 362 361 361 360 360 359 359 358 358 357 356
350 352 335 328 321 313 317 326 328 332 336 335 334 337 333 326 335 335 340 342 344 344 349 355 365 364 363 365 365 365 365 363 364 365 362 363 365 363 361 362 360 360 359 360 358 358 357 356 355
345 344 338 323 318 323 324 327 331 331 335 336 334 327 334 337 337 338 341 342 341 343 353 361 364 363 364 365 364 364 363 364 364 365 363 362 361 361 361 360 360 359 359 360 359 358 357 356 356
347 338 324 320 320 326 329 332 334 331 333 333 333 326 328 333 338 340 339 340 341 346 354 357 366 365 365 365 363 364 364 364 365 366 362 362 362 362 361 360 361 360 360 360 360 359 358 357 356
336 329 316 313 318 324 329 332 333 333 335 334 331 331 334 332 333 335 337 338 346 350 353 357 364 365 366 363 363 364 362 362 366 366 363 362 363 365 364 360 360 360 359 359 359 358 358 356 354
329 322 313 315 318 321 327 334 330 332 332 331 336 329 335 331 336 338 337 341 348 348 352 356 359 360 363 366 363 362 362 362 363 362 362 362 361 361 362 363 362 359 359 359 358 358 359 358 356
330 322 314 320 317 318 330 332 334 333 332 340 339 328 329 336 343 343 343 344 347 351 354 355 356 355 355 357 363 362 361 361 362 361 360 359 358 359 360 363 364 359 358 358 357 360 362 361 360
341 321 312 319 319 320 329 329 335 340 335 336 337 337 340 343 345 342 341 342 342 347 350 351 352 352 352 354 357 361 361 361 361 360 359 354 352 353 354 360 363 358 359 359 361 361 365 360 354
330 321 320 327 326 324 328 328 331 333 332 333 335 340 342 343 342 339 339 338 339 342 345 347 349 351 351 354 352 353 354 353 354 348 339 341 345 350 355 358 364 361 361 361 364 362 361 361 348
330 321 327 326 328 329 327 328 332 331 327 332 332 336 340 341 340 340 340 340 338 340 343 344 348 351 348 351 351 352 351 350 351 338 344 346 352 352 352 351 352 353 349 347 350 350 351 348 348
322 328 328 325 327 327 326 327 326 330 332 337 338 339 339 338 338 339 339 340 340 338 340 344 347 349 346 349 349 350 349 349 351 343 346 346 348 350 353 351 352 349 348 349 351 351 350 348 347
322 326 326 327 326 325 328 325 326 332 337 339 339 339 337 337 338 340 341 341 342 337 339 343 346 348 348 346 346 345 346 347 351 346 346 349 342 347 350 354 349 349 349 339 340 349 344 347 345
324 327 324 327 326 326 323 322 327 334 337 336 337 336 337 337 337 339 340 340 340 338 339 343 346 349 347 347 343 343 350 345 352 353 352 349 352 349 352 351 347 346 347 343 345 345 339 341 344
324 319 326 325 325 325 328 321 320 336 337 334 335 335 336 337 339 338 340 339 340 341 341 343 344 349 349 348 351 350 349 345 344 353 353 353 352 352 350 348 351 351 349 347 350 346 342 340 343
319 318 312 322 325 326 324 314 325 333 334 332 334 335 336 337 339 340 341 341 342 342 343 345 346 348 350 349 350 350 346 349 347 351 351 352 353 355 351 352 350 348 354 354 349 347 346 343 344
312 307 308 312 322 322 317 313 324 330 331 331 333 334 335 336 338 341 343 342 342 342 344 345 345 346 350 349 351 349 349 348 351 353 350 350 354 355 355 351 352 352 350 349 349 347 349 341 337
305 306 307 309 316 319 315 311 323 327 329 328 330 333 334 334 336 340 342 344 342 344 344 345 346 345 348 350 351 347 346 350 349 349 349 352 354 357 356 352 351 350 347 348 350 344 339 333 332
311 310 308 312 317 315 315 312 322 327 330 331 330 330 333 334 337 339 340 341 342 345 344 346 346 347 347 350 348 347 344 347 345 347 352 354 356 357 356 355 350 353 347 349 347 343 342 332 336
309 308 309 312 315 314 315 312 324 324 323 327 327 327 331 334 335 338 338 340 341 344 345 345 348 348 347 350 347 348 348 348 347 347 354 356 357 358 357 353 351 352 351 349 347 346 342 336 332
306 306 307 307 311 312 312 311 317 324 324 325 326 328 334 333 334 336 337 338 341 344 344 347 347 350 349 351 351 349 350 348 345 345 350 355 356 359 356 355 353 353 352 350 349 349 344 335 334
302 310 311 310 307 300 310 302 309 318 319 320 324 328 331 333 335 337 337 337 341 345 346 348 349 355 352 353 351 348 345 344 344 343 346 352 355 357 358 356 354 354 350 348 349 352 346 342 329
307 311 310 310 306 301 304 300 308 316 315 318 323 330 332 335 335 336 337 339 341 346 347 347 350 355 353 354 352 351 347 346 344 344 345 348 351 356 360 358 356 354 355 350 348 350 348 349 340
313 309 304 307 303 295 300 298 299 309 313 319 325 330 333 329 333 335 339 340 340 346 349 351 351 354 353 354 354 351 348 344 344 343 343 349 352 354 356 358 357 356 353 352 351 352 351 347 348
308 301 292 290 293 292 298 298 300 310 317 318 324 328 328 327 329 336 337 337 340 344 348 352 353 353 355 352 352 354 350 348 344 343 344 348 351 352 354 357 355 357 354 355 353 352 354 350 347
303 301 290 285 288 292 298 294 301 311 314 319 324 328 327 330 334 336 337 338 340 342 347 353 352 352 355 355 351 351 356 352 348 351 345 349 349 353 354 357 358 355 356 356 353 354 353 353 348
302 297 300 291 294 290 294 298 304 308 311 312 318 323 329 333 336 336 337 339 339 342 346 350 353 352 354 355 354 351 352 356 348 347 352 346 350 350 355 356 359 357 357 355 356 355 352 354 351
304 304 295 296 287 287 294 296 298 302 306 310 312 317 325 334 333 338 338 339 340 342 346 348 354 353 354 354 355 354 352 354 356 348 347 354 348 350 352 356 355 357 358 357 355 355 355 353 353
301 300 300 296 294 288 289 295 306 305 308 310 313 317 323 328 336 338 339 341 341 342 345 347 351 353 354 355 354 355 354 352 356 354 348 352 353 353 352 357 355 356 356 359 355 353 353 354 351
306 302 301 296 292 294 293 296 310 310 311 313 314 316 321 327 335 340 341 341 341 341 343 345 348 353 355 356 355 355 356 355 352 356 354 348 354 353 358 359 357 357 357 357 358 355 356 352 352

GFSSGP_sfc_thetae_036.txt.gz
Theta_e
353 351 349 344 325 320 315 319 327 325 327 334 335 331 328 329 325 314 339 342 347 348 354 358 364 364 364 364 364 363 363 362 363 363 363 363 363 363 362 362 361 360 360 360 359 358 357 358 356
351 348 347 337 319 309 313 324 323 328 332 336 336 334 330 323 333 334 336 345 347 350 351 356 363 365 365 364 364 364 361 362 364 363 363 363 362 362 361 361 360 360 360 359 359 358 358 358 357
350 352 335 327 319 310 315 324 327 332 336 335 332 335 330 326 335 334 341 345 348 349 352 356 364 366 365 364 363 364 362 362 362 363 362 362 362 362 362 361 360 360 359 358 357 356 356 356 356
345 344 338 321 317 322 322 326 331 330 334 334 332 324 331 337 334 338 344 345 345 349 352 361 363 364 364 363 364 363 362 363 362 362 362 361 361 362 361 361 360 360 360 359 358 357 356 356 356
345 337 323 319 319 325 329 332 334 330 331 331 330 325 327 333 339 340 341 343 341 349 355 358 365 365 364 362 363 363 363 363 363 363 363 363 361 361 361 361 360 361 361 360 359 358 357 356 356
332 328 315 312 315 324 327 333 333 331 331 329 328 330 324 336 335 337 340 340 349 351 354 358 364 365 365 362 363 363 364 362 363 363 362 362 364 361 361 361 360 359 359 359 357 358 358 355 356
328 318 314 314 317 321 326 335 330 331 330 329 333 326 323 331 335 337 337 343 350 353 354 356 357 359 362 364 363 362 362 363 363 362 362 362 362 361 361 361 361 359 358 358 358 357 357 357 355
330 318 315 319 317 319 331 332 335 332 331 339 338 325 318 329 334 334 336 347 347 351 354 354 354 354 355 357 362 362 362 362 362 361 361 361 360 360 360 362 363 358 357 356 356 357 359 358 357
336 315 312 312 318 319 329 328 336 338 333 335 337 336 330 333 333 332 335 342 346 351 353 354 352 352 353 354 357 360 362 362 361 360 360 357 351 351 355 357 361 357 355 355 357 362 361 358 357
331 314 315 322 326 324 330 329 329 331 332 332 334 334 334 334 332 333 336 340 343 345 350 351 350 350 351 356 352 351 354 353 353 351 346 346 345 346 353 357 360 358 356 359 362 360 358 356 346
329 319 326 327 329 329 326 328 334 331 327 331 330 331 335 334 336 336 337 340 342 345 348 348 348 349 349 350 349 349 350 351 350 344 338 342 348 349 351 350 352 349 349 346 347 347 349 349 346
321 329 330 328 330 328 325 330 331 332 332 337 336 336 337 336 336 337 337 338 341 343 345 346 348 349 344 349 348 349 349 348 348 336 343 345 346 348 348 347 347 347 347 347 347 348 349 348 343
322 325 329 331 330 326 327 325 325 330 337 338 337 338 337 336 337 339 340 339 340 340 342 344 348 347 344 344 345 347 346 347 349 342 343 347 344 346 348 350 349 348 347 344 337 347 345 343 341
323 324 325 327 325 323 323 323 326 333 337 336 335 335 337 337 338 338 338 338 338 339 341 343 346 346 346 344 341 342 344 345 348 346 345 348 343 347 350 349 347 348 347 342 340 344 337 336 339
318 318 322 324 324 323 326 320 327 334 336 334 334 335 336 337 338 338 339 339 338 338 340 341 345 346 345 343 339 340 343 346 348 349 349 348 349 348 348 347 345 345 345 344 344 344 340 341 340
314 315 311 322 325 325 324 314 329 334 332 331 333 334 334 336 337 339 341 340 341 338 338 341 346 347 345 344 345 346 344 342 347 349 350 350 349 352 350 347 348 349 347 347 345 344 343 342 342
305 303 308 314 325 323 322 316 329 333 331 330 331 332 334 335 336 338 341 341 341 340 338 341 343 347 344 346 346 346 345 344 345 347 348 350 352 354 351 349 348 346 346 345 345 343 344 338 340
299 302 306 308 314 321 319 316 328 331 330 330 331 332 332 334 335 338 339 341 340 340 341 341 341 346 345 346 344 344 343 344 348 351 348 349 351 354 352 348 350 348 343 346 346 340 335 328 330
306 306 306 310 315 312 313 320 326 329 329 330 330 331 332 333 336 339 340 341 340 341 341 341 341 344 346 344 342 339 338 340 344 346 348 348 351 353 352 351 349 347 344 346 343 340 337 328 332
305 303 306 312 315 309 310 317 325 328 328 330 330 331 332 333 335 337 339 340 340 340 341 341 341 342 346 345 345 341 340 342 344 344 348 349 352 354 353 351 348 349 346 344 343 343 338 331 331
303 301 303 306 311 309 311 314 319 325 329 330 331 333 333 333 332 336 338 339 340 340 341 342 342 342 345 346 344 344 346 343 343 341 348 350 353 355 354 351 350 350 349 346 345 344 339 328 332
298 306 307 307 304 299 306 301 314 320 322 323 325 328 330 332 334 335 336 338 338 341 342 344 344 344 344 347 344 344 343 343 343 341 344 350 353 355 354 353 352 350 349 347 347 348 343 335 326
303 307 306 306 302 298 303 296 310 320 317 317 321 324 328 333 334 334 335 337 339 342 342 344 346 345 345 348 345 344 343 344 343 341 341 348 351 354 354 352 351 350 349 345 346 348 345 341 335
311 306 304 304 299 293 301 297 296 313 317 319 322 324 327 332 334 336 337 338 339 342 343 344 347 345 346 349 347 345 343 342 341 340 340 344 349 351 353 354 351 350 351 349 345 345 347 344 340
308 299 294 291 292 292 302 294 299 317 321 322 321 323 328 332 333 334 335 336 338 341 342 344 344 348 348 348 349 348 346 345 344 341 340 343 344 345 350 354 352 351 351 350 348 347 348 344 345
305 301 293 287 286 292 294 290 297 307 321 324 325 326 331 332 331 334 336 336 337 341 343 343 344 346 349 349 349 350 349 349 347 343 342 343 348 348 350 354 354 353 353 351 349 348 348 349 345
301 300 299 289 289 287 292 294 300 305 305 315 324 328 330 331 332 333 336 337 338 341 343 344 343 345 349 349 350 351 351 350 348 346 346 342 347 352 351 352 355 354 354 351 351 348 348 351 347
306 302 293 288 284 283 289 291 296 300 302 304 320 325 330 332 332 332 335 337 338 341 344 346 347 345 349 350 350 349 350 354 351 347 345 348 346 348 352 352 355 354 353 353 352 351 349 349 349
300 299 294 295 289 287 285 293 299 301 302 304 317 325 329 331 332 330 335 338 338 340 344 348 348 347 349 352 352 350 348 349 354 349 344 345 348 347 348 352 352 355 354 353 351 351 353 349 350
307 298 297 293 288 288 289 294 305 306 306 307 307 326 329 330 332 333 336 337 337 339 342 346 350 349 350 353 353 352 351 349 348 354 349 346 346 350 347 352 352 353 354 355 352 350 352 353 349

GFSSGP_sfc_thetae_042.txt.gz
Theta_e
352 349 347 341 320 319 311 316 326 324 322 332 329 326 325 327 322 313 336 341 346 347 351 356 362 362 360 362 363 362 362 362 362 362 362 361 360 361 360 360 360 359 360 359 359 358 357 356 357
350 347 344 334 317 307 310 324 322 326 331 335 331 331 327 323 332 333 335 346 348 349 351 355 362 362 361 362 362 362 363 363 362 361 362 361 360 361 360 360 360 360 358 357 358 357 357 357 356
348 347 333 326 316 310 313 321 325 330 335 333 329 332 329 325 333 334 341 348 350 351 352 356 363 363 361 362 362 363 360 361 362 361 360 360 360 361 360 360 360 359 359 358 358 357 356 355 355
341 341 336 323 316 319 321 325 329 329 333 333 329 323 331 337 334 339 347 350 349 352 354 361 362 361 362 362 362 361 361 362 361 361 360 360 361 360 361 360 359 359 358 359 358 356 356 354 354
344 337 322 319 318 322 326 331 333 330 331 329 329 323 326 335 340 345 347 350 349 349 353 356 364 363 362 362 362 361 361 361 362 361 360 361 360 361 361 360 360 359 359 358 358 357 355 355 355
332 326 316 311 313 323 328 332 331 331 331 327 324 324 326 338 340 344 347 348 350 351 353 356 362 361 363 362 362 361 361 362 361 362 361 361 362 361 361 360 360 359 358 358 357 357 356 356 355
329 321 312 310 316 320 327 332 330 330 329 327 329 321 328 335 339 344 344 348 351 353 353 354 354 358 362 362 362 363 361 362 362 361 362 361 361 361 361 360 359 358 357 357 357 356 356 356 356
330 316 314 316 314 319 328 330 334 331 329 334 331 319 322 333 339 338 344 345 348 351 353 353 351 352 354 356 363 362 363 363 363 362 361 361 361 360 360 361 360 358 357 357 356 356 356 356 357
334 315 310 313 315 321 329 328 335 338 330 333 331 327 331 336 337 339 341 343 346 350 350 350 350 351 353 353 358 361 362 361 361 360 360 356 352 352 356 357 359 357 356 357 358 357 357 356 357
327 311 313 320 323 323 328 331 333 331 329 326 326 331 334 335 333 336 337 337 342 345 350 349 349 350 351 355 353 354 356 354 354 353 350 349 350 350 354 356 357 356 357 358 358 357 357 352 348
329 316 321 323 326 329 327 329 334 330 326 327 323 326 330 330 331 335 337 337 339 344 348 348 349 349 350 352 350 350 351 352 352 348 346 348 348 349 352 351 353 348 350 348 350 351 351 349 348
324 328 328 329 329 328 326 330 328 330 330 335 329 329 330 328 330 335 336 338 340 343 346 348 348 348 348 349 349 348 349 350 349 346 342 344 345 348 350 350 350 349 348 348 348 349 348 347 344
324 327 328 332 331 328 329 326 328 330 333 331 330 329 327 327 330 337 339 341 341 342 346 348 348 346 347 346 347 347 347 349 349 344 343 345 347 348 350 350 347 349 349 345 342 349 343 344 344
321 323 325 325 325 326 326 326 328 332 329 327 327 325 325 327 330 336 339 340 341 342 345 347 346 346 345 344 344 345 346 348 349 345 340 346 346 346 348 349 350 348 348 347 345 347 340 341 344
318 313 314 314 321 321 325 322 322 332 328 324 325 324 324 329 333 335 340 340 341 342 344 344 345 346 343 343 342 344 345 347 347 348 346 345 347 347 349 348 349 348 350 346 349 349 346 343 343
306 309 302 312 316 320 320 310 326 331 326 322 323 323 325 329 333 337 340 341 342 342 342 343 347 345 342 341 341 341 344 345 345 347 349 348 350 349 349 348 348 350 350 350 350 347 345 343 340
297 298 303 309 317 319 318 313 328 331 327 323 323 322 324 328 333 337 338 341 341 341 341 340 343 343 342 341 340 339 342 343 344 347 348 349 350 351 350 348 348 351 351 351 350 347 347 344 343
294 295 301 305 311 317 315 314 326 328 327 325 325 324 324 327 332 337 339 339 341 340 340 340 341 342 342 340 341 342 342 342 344 347 348 349 351 353 350 348 348 350 349 349 349 344 337 336 338
300 301 302 307 312 314 313 315 324 327 326 326 327 326 326 328 333 338 340 339 339 339 337 339 339 340 341 340 339 340 340 343 346 346 349 350 352 355 352 350 348 349 346 349 347 343 337 335 335
298 295 297 305 312 310 309 313 324 326 326 327 327 328 328 330 332 335 338 338 337 336 336 338 339 340 343 343 342 342 340 342 345 347 349 350 352 354 352 349 349 347 347 349 347 346 340 334 336
295 295 296 300 307 310 307 306 318 325 327 329 330 330 331 331 330 334 336 337 338 337 335 337 338 339 343 343 342 341 341 342 342 344 346 347 351 353 355 353 351 351 348 347 348 346 339 333 338
289 299 301 300 299 295 306 297 311 320 322 325 327 329 330 331 333 334 335 336 337 338 338 337 338 339 343 343 342 341 339 338 339 341 346 347 350 352 355 354 352 351 351 349 349 348 344 337 337
294 300 299 300 297 295 301 297 304 319 318 321 326 328 330 332 333 333 334 336 338 340 338 339 338 339 341 344 343 342 341 338 339 341 344 347 348 351 355 354 352 351 352 350 351 350 347 340 336
303 299 297 297 294 291 296 299 296 312 318 322 326 329 331 332 333 334 336 338 337 340 339 340 338 338 340 343 343 342 341 338 339 339 340 344 347 349 352 355 352 353 351 351 351 351 349 347 341
301 296 286 285 286 290 298 298 299 305 323 324 325 328 331 333 333 334 334 335 337 337 338 339 339 337 339 342 343 342 342 340 340 340 340 340 344 347 349 352 351 351 351 352 350 349 351 348 348
298 296 287 282 284 290 294 292 298 309 319 328 328 329 331 332 334 334 336 336 336 338 338 339 338 338 339 340 342 342 343 341 342 342 342 342 344 347 351 351 353 353 353 353 352 349 348 351 348
297 295 298 289 285 286 294 294 301 306 310 320 324 327 329 331 333 334 336 337 337 338 339 339 339 339 340 340 341 342 342 342 342 343 344 343 345 348 350 351 353 353 353 353 353 350 350 351 350
301 302 293 290 286 281 288 289 298 298 303 310 317 322 326 330 330 332 335 336 338 339 340 340 340 339 340 341 342 342 343 343 344 344 343 343 345 349 349 350 352 353 354 353 352 351 351 350 351
296 298 298 296 291 289 283 288 300 301 306 306 312 322 325 327 328 328 332 337 337 339 340 340 340 340 341 342 342 343 344 344 345 345 345 344 345 347 348 349 350 352 353 354 352 352 352 350 350
295 295 297 295 290 287 288 294 301 303 304 306 308 320 325 328 328 328 330 335 336 336 338 339 340 340 342 343 343 343 345 346 346 346 346 346 345 347 349 350 350 350 352 353 352 352 353 351 349

GFSSGP_sfc_thetae_045.txt.gz
Theta_e
351 349 349 343 322 321 314 319 328 325 323 332 330 327 326 328 323 319 342 346 347 349 355 358 362 362 362 363 362 363 363 362 362 362 362 362 361 361 360 360 360 360 359 359 358 358 356 357 358
348 346 345 334 316 312 317 325 323 328 331 336 332 331 329 325 333 335 339 347 347 349 356 356 361 363 362 363 364 362 363 361 361 361 362 361 361 360 360 360 359 359 358 358 357 357 358 357 358
347 347 334 326 318 311 316 323 326 332 336 332 330 335 330 327 335 337 345 348 349 351 357 358 361 363 362 361 363 362 362 362 362 361 361 361 360 360 360 360 359 359 357 359 357 357 355 355 354
341 341 336 322 317 320 321 326 328 331 333 334 332 327 334 338 337 342 348 349 350 353 354 360 361 362 363 362 363 361 362 362 362 361 361 360 361 361 360 360 359 359 359 358 357 356 355 355 355
344 339 322 322 319 324 327 332 333 331 332 330 331 324 327 336 343 346 348 348 349 351 356 356 363 364 362 362 361 362 362 361 361 361 361 361 361 361 361 360 360 359 358 358 357 356 356 355 355
335 331 317 313 317 323 331 333 333 333 330 329 327 326 327 340 342 345 348 348 351 350 354 358 361 362 363 362 362 362 361 361 362 362 362 362 362 362 361 360 359 359 359 358 357 356 356 355 356
331 325 317 317 317 322 328 334 332 333 330 327 331 324 331 337 343 346 348 350 351 352 354 358 356 361 362 362 362 362 361 362 362 363 362 362 362 361 360 359 359 358 358 357 356 355 357 357 357
334 326 316 319 318 321 330 333 336 333 330 334 334 324 325 335 343 346 348 348 351 351 355 357 356 360 361 361 362 362 362 362 363 363 362 361 362 361 360 361 361 357 356 355 355 356 355 358 359
334 322 319 317 319 324 330 330 336 338 331 333 332 332 336 341 343 343 344 346 349 350 354 354 357 358 362 362 361 362 362 363 362 362 362 361 360 360 357 359 358 357 357 356 357 355 356 357 359
332 323 320 324 325 325 329 334 335 332 330 328 330 335 338 339 339 339 339 340 344 347 351 353 354 355 358 358 362 362 359 358 359 361 362 361 360 358 356 356 358 358 358 357 358 359 356 352 355
331 322 325 325 328 330 329 333 336 332 327 331 328 331 334 337 338 338 339 340 342 347 351 354 354 358 357 358 358 358 358 358 360 361 358 360 358 358 358 357 358 356 354 356 356 358 356 355 355
326 331 330 330 330 329 328 333 331 333 333 338 334 335 335 334 337 338 338 341 343 344 349 354 355 357 357 358 357 358 356 357 356 356 358 358 355 358 359 356 357 357 358 357 357 357 355 354 355
326 329 331 333 332 332 333 329 329 332 337 337 335 335 333 333 335 338 339 342 345 345 349 353 355 357 358 359 356 356 357 355 355 354 353 355 356 358 359 358 356 358 359 356 357 356 352 353 351
323 327 329 329 330 330 328 328 330 334 336 333 332 332 333 332 334 338 339 340 343 346 347 353 355 356 357 356 358 356 356 355 355 354 351 355 359 361 362 363 357 359 361 360 358 353 351 351 353
321 318 319 321 323 325 327 322 326 333 334 331 331 331 332 333 335 336 340 341 343 344 348 351 354 355 356 356 356 354 353 353 354 357 354 354 359 359 361 361 363 359 359 357 361 357 354 350 351
309 311 304 317 322 323 324 317 328 333 332 329 329 330 330 331 333 338 340 342 345 346 347 352 351 352 353 354 354 351 351 352 355 357 359 358 358 359 364 361 359 359 358 359 358 356 350 347 349
307 300 303 310 322 324 323 318 329 333 332 329 329 329 329 330 333 338 341 343 345 348 349 349 352 351 351 353 353 351 352 352 354 356 356 360 360 359 363 361 360 361 360 359 358 357 357 350 347
300 301 307 308 319 321 320 320 330 332 330 328 328 328 328 329 332 337 341 344 347 349 350 349 350 352 353 352 353 350 348 350 353 354 355 358 359 360 362 361 362 361 363 357 356 351 347 353 350
305 305 304 312 319 319 319 320 327 332 331 328 327 327 327 329 334 339 341 345 347 348 348 349 349 352 351 348 347 346 344 347 351 354 358 360 360 362 363 361 360 360 358 359 357 350 348 344 346
301 303 304 311 313 318 318 318 324 331 331 331 328 327 327 330 333 337 341 342 345 347 348 349 349 352 352 349 351 348 350 351 354 358 359 360 360 363 363 362 360 360 357 360 357 355 344 345 346
300 299 303 303 308 313 314 313 317 329 332 333 334 332 330 330 331 336 339 342 343 345 347 348 350 352 353 354 351 351 353 353 351 354 357 359 360 363 365 363 360 360 364 365 361 355 349 341 347
295 301 302 304 303 303 314 306 315 320 327 330 332 333 333 332 334 336 339 341 342 344 347 350 351 352 352 354 352 354 347 345 349 352 355 358 361 361 363 365 363 364 359 363 358 357 353 348 343
298 302 300 300 302 303 305 304 313 320 320 326 331 333 335 336 336 336 338 341 343 345 345 347 351 353 355 356 356 351 352 349 352 351 356 361 361 361 360 363 363 365 363 364 361 360 358 349 345
304 301 301 301 299 293 302 303 306 313 320 326 331 333 336 337 338 339 340 342 343 345 346 346 350 352 354 354 355 356 356 353 349 351 350 352 355 357 360 362 363 364 362 362 361 364 361 357 352
303 300 294 291 291 290 302 302 305 316 322 326 329 333 336 338 338 339 339 340 342 345 346 348 349 349 352 353 354 355 356 357 355 354 350 352 350 354 359 362 362 361 364 364 363 363 362 359 355
301 301 294 288 290 292 301 299 305 315 318 326 331 334 337 337 339 339 340 342 344 345 348 347 348 349 351 352 354 356 357 351 350 354 351 350 349 352 360 361 362 362 364 363 363 360 359 360 358
301 298 304 297 298 295 297 302 310 314 316 319 325 332 334 337 338 339 340 342 344 345 347 348 349 350 350 350 353 355 356 356 353 358 356 352 357 352 358 361 361 362 362 363 364 359 361 360 361
301 305 297 298 290 289 296 298 299 309 312 317 319 327 333 337 339 340 341 342 345 345 347 349 350 350 351 351 352 353 354 356 356 357 356 357 355 356 357 360 361 361 362 363 363 360 362 362 360
300 298 302 302 299 293 291 297 309 309 316 316 318 323 329 335 338 340 343 344 345 345 346 348 348 350 350 351 352 353 353 353 355 354 355 358 356 357 358 360 361 360 361 362 363 362 361 361 362
296 295 300 297 296 300 298 298 310 313 315 318 319 321 325 333 337 340 342 343 344 346 347 347 348 347 349 351 352 352 353 354 352 354 354 357 358 358 359 360 360 360 360 361 361 360 359 360 360

GFSSGP_sfc_thetae_048.txt.gz
Theta_e
352 350 348 346 327 327 319 322 331 329 329 334 334 329 329 332 328 323 347 350 345 350 354 358 363 363 364 363 362 363 361 362 361 362 363 362 361 361 360 360 360 360 360 359 358 357 358 358 356
348 346 347 341 320 316 320 328 326 330 334 336 335 331 331 329 337 340 343 349 350 349 351 355 362 363 362 363 363 363 363 362 362 362 361 362 361 359 361 360 360 359 359 358 358 359 359 359 359
348 347 334 325 321 315 319 328 331 334 337 333 333 338 335 332 339 342 348 349 348 349 351 360 363 363 363 363 363 362 361 361 361 361 361 361 361 361 360 360 358 358 358 358 358 356 356 355 356
341 344 336 322 319 321 325 330 330 334 333 336 336 331 338 342 342 346 349 347 347 349 351 360 362 362 361 362 363 361 362 362 362 361 361 361 360 361 361 360 361 359 359 357 357 356 356 356 356
346 342 322 323 321 327 329 331 336 334 334 333 334 330 330 340 345 348 347 345 346 348 352 358 363 365 362 362 362 362 362 362 362 361 361 360 361 362 361 360 360 360 358 358 357 356 356 356 358
335 334 322 316 320 327 334 337 334 335 333 333 333 331 330 343 343 347 347 346 347 348 351 357 361 363 362 361 362 363 362 361 362 362 362 362 362 362 361 360 360 359 359 358 357 356 356 357 359
334 331 324 322 319 323 331 338 334 333 332 333 336 329 334 340 345 348 347 347 347 349 351 354 358 362 362 363 362 362 362 362 362 362 363 363 362 361 360 359 359 359 358 356 356 356 357 358 360
339 332 323 323 321 324 334 336 338 334 333 337 338 331 330 340 346 346 346 347 347 348 351 352 356 357 361 360 362 362 363 362 362 363 363 363 362 361 360 361 361 358 356 356 356 355 357 359 359
342 327 324 321 323 328 335 332 337 340 333 336 338 336 341 344 346 342 344 344 345 346 351 350 353 357 362 361 362 362 363 363 363 363 363 361 355 355 358 361 358 358 357 355 355 356 357 359 360
333 325 322 329 329 329 334 333 336 336 334 333 333 339 342 342 342 340 340 340 341 344 348 350 356 356 361 356 362 363 361 359 359 360 361 357 357 357 354 359 358 357 357 359 358 357 357 358 354
332 324 329 329 331 335 335 335 340 335 332 335 333 336 338 341 343 342 341 341 341 345 346 348 354 357 358 364 359 358 356 357 359 362 360 360 356 353 355 356 356 356 357 355 358 358 357 354 355
324 331 332 331 333 333 331 336 334 333 336 341 339 340 340 339 339 340 340 340 342 344 347 348 353 356 357 358 354 354 353 354 354 357 362 359 355 355 355 356 355 357 358 357 361 353 355 356 358
324 329 333 332 333 333 333 332 330 334 340 342 340 340 339 338 339 341 341 341 343 343 348 349 353 358 358 360 355 354 355 354 354 357 359 357 357 358 357 358 360 360 358 357 357 354 354 356 354
320 323 330 331 334 333 329 331 331 335 342 340 339 338 338 338 339 340 340 340 343 345 347 350 352 357 358 358 360 359 357 356 355 354 355 360 360 365 355 356 360 362 361 358 357 354 350 348 350
320 319 322 326 329 330 332 326 327 338 340 338 338 338 338 338 340 340 341 341 344 345 349 350 352 354 357 358 359 357 355 354 355 355 360 361 364 366 360 357 357 360 361 360 357 354 352 347 347
312 313 312 322 325 329 329 319 331 339 338 336 337 337 337 338 339 341 342 342 345 345 348 352 349 350 355 356 357 353 354 355 356 358 359 361 363 364 365 357 356 361 357 355 351 348 349 350 344
308 304 308 315 326 327 327 322 334 338 337 336 337 336 336 336 339 341 343 343 344 346 348 351 352 350 352 356 354 354 357 356 357 358 358 364 363 364 364 360 363 362 360 359 351 350 349 347 342
303 304 309 310 322 327 325 324 333 335 336 336 336 337 336 336 337 340 342 344 345 347 349 352 351 353 354 353 354 352 353 356 358 358 359 363 363 364 364 361 362 360 354 356 355 354 353 350 346
307 308 307 313 321 322 323 324 329 335 334 334 336 336 336 336 339 340 342 343 345 347 349 351 352 355 353 349 346 348 349 352 354 356 361 365 364 365 367 363 358 358 354 355 358 351 353 346 349
305 306 309 313 317 321 323 323 327 334 334 335 335 335 335 336 337 339 341 343 344 347 350 352 352 355 355 349 351 350 352 351 354 358 363 365 364 366 364 363 360 361 358 356 356 357 346 345 347
304 303 305 308 313 316 320 320 323 329 335 336 336 337 337 335 336 338 340 342 344 347 349 351 354 355 356 357 350 353 354 355 355 357 358 362 364 365 367 363 362 359 359 353 357 357 353 342 347
300 306 305 304 307 306 316 309 320 324 329 333 336 336 336 337 338 339 341 342 343 347 350 353 355 356 356 358 354 359 350 347 349 354 355 360 365 365 366 367 363 362 367 360 358 357 352 352 343
303 307 305 304 303 307 310 309 317 323 322 329 334 337 337 338 338 339 341 344 345 346 349 352 356 358 360 359 360 352 353 346 349 352 360 364 366 365 363 366 363 362 358 363 363 363 360 349 348
307 305 305 304 302 295 305 309 312 318 323 326 333 336 338 339 339 340 343 345 346 347 348 351 357 359 359 357 355 359 357 354 349 354 352 353 355 360 365 365 366 363 361 363 361 362 363 358 353
307 303 297 295 295 294 305 304 311 319 324 327 330 334 338 341 342 341 341 343 346 347 347 349 355 358 358 356 356 356 358 359 359 357 353 356 350 352 360 366 367 363 366 365 365 363 363 362 356
305 304 299 294 294 296 303 299 306 318 323 327 332 334 338 340 342 343 344 344 345 347 348 349 353 356 359 357 361 363 362 353 353 358 354 352 350 351 359 364 364 366 366 366 366 365 361 363 360
305 302 307 302 304 300 302 304 309 316 319 322 324 330 333 338 341 343 346 346 346 347 351 353 356 357 356 354 361 363 363 362 356 364 359 354 361 353 357 359 363 363 365 366 367 359 363 363 363
305 309 301 301 294 294 300 302 302 309 315 319 322 325 331 338 341 343 345 347 347 348 350 351 352 355 356 355 356 356 358 362 361 361 362 362 358 361 358 359 359 361 364 365 367 362 364 364 362
301 301 303 305 302 297 296 301 312 311 314 318 321 325 328 336 340 343 345 347 348 349 349 350 351 353 354 356 358 358 356 357 359 358 359 361 361 361 362 360 359 361 363 365 365 365 362 364 364
298 300 303 298 299 302 302 303 314 314 316 317 320 325 329 334 339 342 344 346 347 348 348 349 350 351 353 358 361 358 359 359 356 358 359 362 361 362 362 362 361 360 361 364 365 363 360 362 362

GFSSGP_sfc_thetae_051.txt.gz
Theta_e
352 350 352 343 325 326 321 322 331 328 330 335 335 331 330 333 328 323 346 349 347 352 356 359 362 362 361 362 361 361 362 362 362 362 362 362 361 360 360 360 360 360 360 359 358 359 358 356 359
350 347 346 338 323 315 321 328 327 330 334 336 335 333 332 331 340 341 343 350 349 352 354 356 363 364 363 363 363 362 362 362 362 363 361 361 360 361 360 360 360 359 359 359 360 359 359 358 357
349 348 334 327 324 318 322 329 330 335 336 335 334 338 338 333 341 344 349 347 350 349 352 361 364 364 363 363 363 363 363 362 362 361 362 361 360 361 359 359 359 359 359 358 358 358 356 356 358
342 342 339 323 321 325 326 331 334 334 334 337 338 332 340 344 342 345 348 349 346 347 353 361 363 363 363 363 362 362 362 362 361 362 361 361 360 360 361 360 359 359 358 358 357 357 357 357 357
342 343 327 323 325 327 331 336 338 332 334 336 336 333 335 341 346 348 349 346 345 349 353 358 365 362 362 363 362 363 362 362 362 362 362 361 361 361 360 360 360 358 358 358 357 357 357 358 357
336 340 324 320 322 328 330 335 336 333 335 335 335 333 333 345 343 345 348 345 346 347 350 357 362 362 362 363 363 362 362 362 362 362 361 362 361 362 361 361 360 359 358 358 357 357 358 359 359
333 333 324 322 323 326 332 339 334 333 333 334 338 330 337 341 344 345 346 346 345 346 350 355 358 361 362 363 363 362 362 361 362 362 363 362 362 361 360 360 359 358 356 356 357 357 358 359 359
337 331 323 324 319 324 334 338 340 335 331 340 339 331 332 341 345 344 344 344 345 346 347 351 354 357 358 360 362 363 362 361 362 363 363 362 361 360 359 361 360 357 357 357 356 357 359 360 359
342 326 323 322 323 330 338 336 338 342 334 337 340 340 343 344 344 342 341 342 343 344 346 349 350 354 363 361 362 363 362 362 363 362 363 363 354 357 359 361 358 356 355 356 356 357 359 360 360
333 323 322 328 331 330 336 336 336 333 335 336 338 343 344 342 342 338 338 338 342 343 343 346 350 354 356 353 361 361 359 357 358 356 362 358 358 357 354 358 357 357 357 359 358 357 357 358 353
331 323 328 330 332 336 336 335 338 333 331 336 335 339 340 340 340 339 339 340 341 344 342 347 354 356 355 357 357 356 356 356 360 359 360 358 352 353 354 354 354 355 356 356 358 358 355 351 352
325 329 329 331 334 335 333 337 335 336 333 341 341 342 341 342 341 339 339 341 341 344 342 348 350 354 357 355 353 355 353 352 351 355 359 358 361 359 358 357 353 355 354 352 348 349 353 354 357
325 327 332 334 335 334 337 332 332 332 341 342 342 342 341 341 342 342 341 342 343 342 342 347 350 358 358 362 357 351 351 350 353 356 358 359 357 356 357 356 354 354 357 352 353 351 356 350 349
323 325 330 334 332 333 329 331 334 335 342 341 341 340 341 341 342 342 342 341 342 343 343 347 351 356 360 361 360 357 358 358 352 353 355 359 358 364 357 356 358 360 349 353 355 355 352 352 347
320 318 322 331 333 329 331 325 328 338 341 339 339 340 340 341 342 341 342 341 343 344 345 347 351 355 357 361 358 361 357 351 353 355 361 362 362 362 363 360 356 358 359 357 354 351 354 347 350
314 317 316 326 330 331 331 319 331 340 339 338 339 339 340 340 341 343 343 343 345 345 346 349 349 352 355 357 358 354 353 354 355 358 359 362 362 362 363 356 353 359 360 357 350 347 349 349 347
309 307 311 316 329 328 328 321 325 339 338 337 339 339 339 339 340 343 343 343 345 345 348 350 350 352 355 359 357 357 359 358 359 358 361 364 364 363 359 358 358 361 359 353 353 348 346 349 344
304 306 311 312 323 326 324 325 330 336 337 337 339 338 338 338 339 343 343 344 345 345 348 351 350 357 360 357 358 354 354 356 357 356 358 364 361 363 365 359 359 361 352 353 353 355 349 347 343
310 308 309 314 321 322 322 324 329 334 335 336 338 338 338 339 342 343 344 344 344 345 346 350 353 363 355 351 350 350 349 353 355 362 363 364 362 363 365 357 359 360 356 362 355 351 351 344 347
308 307 309 314 320 324 323 321 326 333 334 337 337 338 337 339 340 342 343 343 343 344 347 354 357 364 358 352 356 355 356 352 353 354 363 364 363 364 360 363 362 356 357 359 357 358 349 342 351
307 306 308 311 316 320 320 319 322 330 334 337 338 339 340 338 338 340 341 342 343 344 347 353 360 363 361 360 355 356 357 355 351 358 357 362 364 364 365 362 365 361 363 353 358 356 360 343 344
305 309 308 309 312 308 318 307 318 325 329 333 336 337 338 338 340 341 341 342 342 345 348 356 359 363 361 364 353 359 350 346 347 353 355 359 364 364 363 364 363 362 358 364 360 358 360 356 345
306 311 308 307 306 308 311 310 315 325 321 329 335 337 338 340 339 340 341 343 344 346 347 351 361 363 363 364 361 353 355 349 349 349 367 369 370 365 363 364 365 365 359 363 362 362 362 350 357
311 308 308 307 305 298 306 311 313 318 321 327 333 337 338 339 340 341 343 344 345 346 348 352 360 363 365 364 361 363 357 357 346 351 353 353 356 359 365 364 365 366 363 364 362 364 363 363 356
309 306 299 297 297 296 306 307 313 321 326 326 331 335 339 340 340 341 341 343 346 348 350 353 360 362 364 362 359 361 363 362 364 361 350 354 349 351 366 370 369 363 366 365 365 366 364 362 357
307 306 300 295 297 299 305 302 309 321 327 325 332 333 338 340 340 341 343 344 348 350 352 354 359 362 364 361 361 361 364 351 348 357 352 350 348 351 371 365 364 366 367 364 369 362 359 365 359
307 304 309 303 306 302 305 307 311 317 320 325 327 332 333 338 341 342 343 345 348 350 353 354 359 362 363 356 362 364 363 358 351 357 364 357 362 352 361 364 364 364 364 368 371 359 363 367 364
306 311 303 303 296 296 303 306 304 309 314 319 324 327 332 337 340 342 344 345 347 348 351 355 357 361 362 360 362 362 363 365 363 365 368 363 365 366 361 362 361 363 366 367 373 364 368 367 361
300 300 304 306 303 297 298 304 315 313 314 316 320 326 330 334 339 342 344 347 348 349 350 351 354 358 359 361 362 360 360 361 364 365 367 368 367 369 368 365 364 363 363 367 371 370 366 363 368
302 301 302 298 300 304 303 304 317 317 317 317 320 325 328 332 337 342 344 347 348 349 349 351 351 351 356 359 363 361 361 361 360 362 366 370 369 367 368 368 367 365 364 368 369 364 361 362 362

GFSSGP_sfc_thetae_054.txt.gz
Theta_e
352 349 347 343 324 324 320 322 330 327 328 333 335 333 330 333 327 323 343 347 349 349 352 357 361 364 362 362 363 363 364 362 361 363 363 362 361 362 361 361 360 360 359 359 360 357 357 360 360
347 346 345 339 322 315 319 327 326 329 332 335 336 335 332 329 338 338 341 348 351 350 353 355 362 363 363 362 362 362 362 362 363 362 362 362 361 361 360 360 360 360 361 360 360 359 358 358 360
353 348 334 328 322 317 320 328 330 332 335 333 335 338 335 330 337 340 346 349 351 351 354 358 364 365 364 364 363 365 363 363 362 362 362 360 361 361 360 360 359 359 359 358 358 357 358 358 359
344 341 340 325 320 325 325 330 332 331 336 338 337 331 339 340 340 344 348 349 350 351 356 363 366 364 364 364 364 363 362 362 362 362 362 361 360 361 361 359 359 359 359 358 358 358 358 357 357
341 341 326 322 323 327 332 333 335 332 334 335 337 331 332 341 346 345 346 348 344 350 353 359 366 365 365 364 363 363 363 362 362 362 361 360 361 361 361 361 358 359 359 358 358 358 358 357 358
334 336 322 317 321 328 331 336 336 333 333 335 334 333 334 343 342 343 346 345 349 348 351 357 364 365 365 362 363 364 363 362 362 362 362 363 363 364 363 360 360 359 358 357 358 359 359 359 358
331 330 324 321 322 327 329 337 333 331 331 332 337 329 336 339 343 345 344 345 345 346 351 354 357 361 364 362 362 363 362 362 363 364 363 365 364 363 362 361 360 357 357 358 358 359 360 358 355
333 331 323 323 320 325 333 335 336 330 329 339 340 329 330 339 344 344 344 343 341 348 349 353 356 355 358 358 362 362 362 365 363 363 363 365 363 360 360 362 361 359 358 358 358 359 360 359 357
336 324 321 320 323 327 337 334 337 339 335 337 339 339 341 343 344 341 342 338 342 344 346 348 350 355 362 361 361 362 362 363 363 363 365 362 356 358 357 362 359 357 358 359 359 359 358 357 357
328 323 322 327 329 331 334 335 336 335 334 334 337 342 343 342 341 338 338 336 339 339 343 345 350 354 357 353 362 362 360 358 358 358 358 363 355 360 354 358 361 356 357 360 362 360 353 349 352
327 322 326 327 332 334 334 334 336 331 329 335 335 337 340 339 339 337 338 339 339 341 341 345 355 355 355 356 359 358 358 358 359 354 352 362 360 354 355 355 356 350 357 355 357 353 345 343 348
322 328 329 329 333 336 333 336 334 331 334 338 340 340 339 338 337 337 337 339 340 340 345 350 352 356 356 356 358 348 358 355 355 354 358 363 360 357 354 352 353 351 354 357 351 352 347 354 352
322 325 327 333 333 336 339 333 332 333 338 340 341 340 337 338 338 339 339 341 341 339 343 350 356 352 352 362 363 348 352 352 356 357 352 352 359 360 363 350 349 358 351 353 349 357 353 353 352
323 325 326 331 333 334 333 330 333 334 338 339 339 338 339 338 338 340 340 340 341 341 344 349 354 359 358 357 360 353 358 351 355 355 356 352 363 363 365 362 351 355 351 355 345 357 355 346 351
319 317 320 323 332 331 333 326 328 337 337 337 337 338 339 339 340 341 342 341 342 342 346 348 355 355 359 360 367 363 350 355 358 358 364 365 367 371 362 365 350 348 358 364 362 358 344 353 349
312 314 311 320 330 332 331 317 327 336 335 334 336 337 338 338 339 341 342 341 343 343 348 348 346 354 359 360 365 357 358 358 361 361 364 365 368 370 363 361 360 359 360 349 343 345 352 345 350
310 304 309 314 327 329 328 323 332 334 333 334 336 336 337 338 340 341 341 342 343 348 350 348 353 353 356 358 361 351 352 354 352 366 362 369 366 361 356 354 364 350 348 352 356 354 351 353 346
304 304 308 310 318 325 323 322 331 333 329 335 336 336 336 336 338 342 341 343 344 348 352 351 353 359 360 360 366 364 355 362 359 360 364 369 367 360 357 357 364 365 348 349 356 348 346 352 345
309 307 306 311 317 323 321 321 323 326 326 332 335 336 336 336 339 342 342 342 344 345 349 354 356 360 357 355 354 352 353 349 351 358 359 369 368 363 352 357 362 359 357 351 364 354 353 349 344
310 307 306 311 315 320 323 319 323 325 328 332 335 335 335 336 338 341 342 341 343 344 348 354 356 359 356 356 358 359 351 356 355 350 367 367 364 368 364 361 363 352 358 364 362 357 356 348 354
308 306 306 307 313 318 317 315 316 321 328 329 335 336 337 337 338 340 340 341 343 344 347 352 356 358 357 361 357 365 368 359 354 361 361 366 363 367 365 366 366 369 364 360 363 362 354 350 347
304 310 309 307 307 306 316 306 318 323 325 323 324 335 335 337 340 341 341 341 341 345 348 352 356 359 357 361 355 360 354 352 351 354 357 362 368 364 368 368 367 366 359 357 364 363 357 347 351
306 311 309 308 305 307 310 308 313 326 321 320 328 336 336 338 339 340 341 343 343 346 347 350 355 359 357 357 359 354 355 354 362 357 359 364 371 371 367 368 371 368 365 366 365 365 363 362 355
311 308 308 308 304 297 304 306 308 317 321 321 327 331 335 337 339 341 343 344 344 347 347 351 353 356 359 357 358 358 354 359 355 356 356 358 362 365 368 366 371 372 367 364 365 368 367 365 361
308 304 297 296 296 295 304 302 307 317 328 326 323 325 330 340 340 341 342 342 344 344 346 349 352 352 357 357 354 360 355 356 361 362 356 355 356 356 364 367 368 366 369 367 368 368 367 366 363
305 304 298 292 294 297 305 299 304 315 324 331 329 330 333 339 340 340 342 343 344 344 347 348 353 352 355 358 354 356 360 352 354 361 356 361 358 357 364 366 365 368 369 368 369 364 363 365 364
305 303 307 301 303 299 303 306 310 314 317 326 327 331 329 334 338 340 343 344 345 346 347 350 353 354 356 354 358 353 359 357 351 358 362 361 362 359 363 365 367 367 367 366 368 363 363 366 366
305 308 301 302 294 294 300 304 304 310 314 321 325 325 328 334 334 338 343 344 347 347 350 351 354 354 357 356 357 355 352 357 358 351 358 358 366 365 364 365 365 366 368 367 368 364 364 366 363
301 300 303 304 302 297 296 301 315 317 315 318 325 327 327 329 335 336 337 346 348 349 351 350 353 355 357 358 356 355 354 354 354 357 350 362 360 371 368 369 367 364 364 368 368 364 364 363 364
302 300 300 295 298 302 301 301 315 318 318 318 318 322 333 336 336 335 331 335 346 348 349 350 351 355 357 359 357 356 357 354 353 350 361 360 367 365 373 367 370 365 365 365 365 363 358 360 362

GFSSGP_sfc_thetae_057.txt.gz
Theta_e
352 350 345 340 322 320 316 320 325 326 326 333 335 332 330 332 327 317 339 346 347 346 351 357 363 362 363 364 363 364 362 362 363 363 364 362 362 361 362 361 360 358 361 360 357 360 361 360 360
348 344 342 335 318 311 314 326 324 328 332 336 336 333 330 326 335 334 339 347 348 348 352 355 362 363 363 363 364 364 363 363 363 362 363 362 361 361 361 361 361 361 360 360 360 359 358 360 361
349 349 332 324 318 313 316 326 328 331 336 335 333 337 332 328 337 339 344 348 347 350 352 355 364 364 363 362 362 365 364 363 362 362 361 362 361 360 360 360 360 359 359 359 358 358 358 359 359
346 341 335 320 317 324 325 330 333 331 337 337 335 326 333 339 338 342 346 348 346 350 355 363 364 363 364 363 364 363 363 363 362 363 362 361 362 361 361 359 360 360 359 359 359 358 357 357 357
345 337 322 318 322 324 331 332 333 331 333 333 331 326 330 337 342 344 346 347 350 352 357 360 366 365 363 364 363 363 363 363 363 363 361 361 361 361 361 358 360 359 359 359 358 358 358 358 357
329 332 320 314 319 327 332 335 335 333 333 333 331 330 332 339 340 343 347 348 350 352 356 358 365 364 365 364 363 363 363 362 363 361 363 363 362 362 360 360 360 359 358 359 359 359 358 357 356
326 327 319 321 321 324 330 338 332 331 333 332 337 328 333 335 340 343 344 347 348 352 353 355 358 361 364 364 364 363 363 363 362 363 363 364 362 360 360 360 359 358 359 359 359 359 358 355 354
331 327 321 323 320 322 333 335 335 332 330 339 339 328 326 334 340 343 345 344 348 350 351 352 354 356 354 356 363 362 363 363 363 362 362 362 361 361 360 360 362 358 359 359 359 358 358 357 357
338 318 318 321 321 326 334 332 334 337 334 337 338 336 337 338 339 340 338 342 345 347 349 351 351 352 353 354 358 361 364 363 363 361 362 361 351 351 355 359 362 359 358 359 359 359 358 357 357
328 318 320 327 328 329 330 332 329 332 332 333 336 339 340 339 337 334 334 336 339 341 345 348 348 352 353 356 354 354 356 355 354 354 354 353 350 350 353 358 362 359 358 359 360 352 348 348 345
324 318 324 327 331 334 329 330 336 332 328 333 333 335 336 337 336 334 335 336 337 340 343 345 349 352 348 352 354 354 353 352 351 351 351 353 352 347 347 349 350 348 356 349 355 344 341 343 345
319 324 325 328 335 335 332 335 330 332 332 340 339 338 336 335 334 333 335 336 334 337 342 346 348 349 349 352 352 351 351 352 347 343 347 349 348 347 347 350 345 344 348 345 349 342 341 345 347
319 321 325 330 332 336 335 333 331 331 335 340 340 338 334 334 334 334 336 336 335 342 345 348 347 348 348 351 349 345 346 351 349 350 347 347 349 350 350 350 348 348 350 349 347 344 342 346 349
320 320 320 324 333 335 331 331 333 334 334 335 338 335 335 334 334 335 336 336 339 343 345 346 342 339 344 351 347 345 346 349 350 348 346 347 350 353 349 346 350 349 346 346 345 348 345 346 348
316 310 314 317 326 330 332 323 326 336 337 336 334 334 334 334 335 334 336 334 335 345 346 345 344 344 346 350 348 348 349 352 349 348 349 352 349 353 353 347 347 344 348 350 349 346 346 345 344
309 306 301 313 321 329 328 318 330 337 336 333 333 334 335 334 334 336 338 336 340 345 345 348 350 346 349 352 349 348 348 348 350 352 355 356 354 352 351 349 349 345 350 344 339 337 343 341 339
305 296 301 306 315 327 325 322 331 337 335 332 332 334 335 334 335 337 339 336 338 340 344 344 345 347 348 351 344 343 347 347 350 353 356 354 354 352 348 348 352 346 348 345 343 341 341 341 338
299 298 300 302 311 324 323 323 328 330 332 333 333 334 333 333 334 338 337 337 341 340 340 344 347 347 345 350 348 347 350 347 351 354 355 355 353 349 343 346 351 346 344 341 344 343 341 343 337
305 304 302 304 310 318 322 324 327 327 331 333 333 332 333 333 338 338 337 338 342 340 339 342 346 347 351 349 346 345 342 344 347 352 358 356 357 354 350 348 350 346 343 338 347 340 339 339 340
305 302 302 307 309 308 319 321 323 328 327 332 329 331 332 334 336 336 334 337 341 340 340 344 348 347 349 347 347 347 346 343 346 352 356 355 354 353 348 348 351 348 347 349 346 346 341 342 337
303 300 302 302 306 311 318 314 317 324 329 330 333 332 333 333 332 334 333 335 338 341 343 345 349 347 349 346 346 350 346 347 343 346 351 355 357 356 357 354 354 349 349 347 346 346 345 336 337
296 305 306 304 300 294 316 303 313 318 324 329 327 327 329 333 334 334 333 334 336 339 344 346 349 348 348 348 343 345 342 341 343 346 351 354 354 356 357 353 353 352 352 350 348 351 346 338 338
301 307 304 304 298 296 299 294 308 319 318 321 328 324 326 329 334 334 334 335 337 341 342 347 349 348 347 349 344 344 342 347 345 349 352 352 356 356 356 355 355 351 349 348 349 350 348 347 343
308 303 301 300 296 290 296 294 296 314 318 319 320 322 326 329 335 335 336 337 338 341 342 346 349 346 346 347 349 342 342 343 345 345 346 354 354 356 358 356 355 353 352 352 350 352 349 347 349
302 295 287 287 289 289 295 293 295 319 324 322 321 323 329 337 334 335 335 336 336 339 340 344 346 347 346 346 346 349 343 343 343 346 352 351 351 351 354 354 356 356 354 352 352 352 351 351 348
298 295 289 284 286 290 297 290 296 307 328 325 325 329 334 333 329 336 336 336 337 339 340 343 343 346 348 345 344 347 348 343 345 348 347 352 352 351 355 355 355 353 356 355 354 351 351 352 349
298 294 298 291 295 289 294 298 304 307 314 324 325 329 328 331 335 334 338 337 338 339 340 342 343 344 349 348 344 346 351 343 343 345 346 345 348 352 353 358 355 357 356 356 355 350 352 352 352
300 301 292 292 285 285 292 294 296 302 305 321 324 324 330 334 336 337 338 339 339 340 341 343 345 344 348 349 348 344 347 351 344 344 345 346 345 348 354 358 356 358 355 354 356 350 353 351 352
295 293 294 293 292 287 287 292 303 306 310 320 323 325 331 330 334 336 337 340 338 341 341 342 346 346 346 347 350 346 344 350 348 344 341 347 345 355 357 358 356 357 356 356 354 351 353 351 352
297 292 291 287 288 292 292 295 309 310 313 319 324 326 331 333 334 337 336 338 336 338 341 342 345 347 349 349 348 349 346 346 348 345 343 340 347 349 356 358 356 355 353 355 354 353 353 351 352

GFSSGP_sfc_thetae_060.txt.gz
Theta_e
353 351 347 336 320 320 314 319 328 324 327 332 331 330 328 330 326 316 337 343 346 345 353 359 364 363 363 364 363 362 361 362 363 361 362 363 361 361 361 360 359 361 358 358 360 359 359 360 361
349 346 340 333 317 312 315 326 323 328 332 334 334 332 329 325 333 332 337 346 346 348 353 356 364 365 364 363 364 362 362 364 363 361 361 361 361 360 361 360 361 360 360 359 358 360 359 360 361
346 345 330 326 318 310 316 324 327 332 335 334 332 334 331 328 333 336 344 345 347 350 353 355 363 364 364 364 363 362 362 363 362 362 362 361 361 360 360 360 359 359 359 358 358 358 359 359 359
343 341 335 318 315 323 325 327 331 333 336 335 331 325 333 340 338 342 346 347 347 350 352 361 363 361 361 361 362 364 362 363 362 362 361 361 361 361 359 360 359 359 359 359 358 357 358 359 360
344 335 322 319 320 325 329 331 332 329 329 330 332 326 327 338 343 345 344 348 348 351 356 358 365 366 364 364 363 363 363 362 363 362 361 362 360 360 359 359 359 359 359 358 358 357 358 358 358
327 331 319 314 317 328 330 335 334 333 332 332 330 329 328 339 341 343 346 349 353 354 357 359 364 364 364 363 363 363 363 362 362 362 362 361 361 359 360 360 358 358 358 358 358 357 357 357 356
324 327 317 320 321 324 328 332 332 330 330 330 335 323 328 335 341 345 349 351 352 356 355 357 357 361 364 364 363 363 363 362 362 362 362 362 361 360 360 360 358 358 358 358 359 357 356 355 356
329 324 320 323 318 322 333 331 336 333 332 339 336 323 322 335 342 346 347 348 351 353 354 353 354 354 355 358 363 363 363 362 362 361 361 361 360 359 359 361 361 358 358 358 359 359 358 357 359
338 319 315 319 321 325 335 332 334 339 333 336 337 333 334 339 342 342 342 345 347 349 351 352 353 351 352 354 358 362 363 363 362 360 360 359 350 351 353 358 360 358 358 359 358 358 360 357 359
329 317 318 323 328 329 333 332 331 332 332 333 335 336 336 338 338 336 339 340 342 344 348 349 350 350 351 356 353 353 356 354 353 354 353 349 349 349 352 356 360 358 358 359 357 351 356 351 347
323 319 325 327 331 328 326 329 335 330 327 333 330 331 333 334 336 336 339 341 341 345 347 347 349 350 350 352 351 352 352 352 351 351 349 348 350 349 349 349 349 349 353 351 350 342 341 344 345
317 324 324 326 333 330 328 335 332 333 335 339 336 335 334 333 332 335 337 339 340 342 345 346 349 349 345 351 351 350 351 350 347 348 348 348 346 343 347 346 341 345 344 341 346 340 340 345 348
317 320 325 328 335 331 330 328 329 331 338 341 338 336 334 333 332 336 337 338 339 340 343 344 348 347 347 349 350 348 348 350 346 343 348 347 349 344 348 348 344 345 346 344 344 341 340 344 345
319 318 318 334 332 331 328 331 331 332 337 338 337 334 334 333 332 335 335 334 336 339 342 346 347 347 348 349 345 343 346 348 348 346 343 347 351 347 345 347 347 345 344 347 344 346 343 342 347
318 311 310 322 333 331 332 326 327 332 335 335 335 334 334 333 333 333 334 335 336 341 344 345 339 344 346 348 346 342 343 347 347 344 340 348 350 350 345 344 345 345 346 345 341 346 343 342 343
307 303 298 311 331 332 326 318 329 334 335 333 334 333 333 332 333 333 336 340 341 343 342 341 344 342 346 344 345 346 346 347 346 346 348 349 352 351 348 344 345 342 345 340 337 340 342 340 340
302 297 299 303 316 328 324 321 330 336 335 331 332 332 332 332 332 333 336 342 343 342 342 340 338 344 347 346 344 344 346 348 348 348 351 351 351 350 347 347 348 345 344 343 339 340 338 337 336
296 297 296 298 305 323 322 322 330 334 333 330 330 331 330 332 332 334 336 343 344 342 343 343 343 344 347 347 339 343 344 345 350 350 352 351 349 347 345 347 346 346 342 338 342 340 337 342 335
302 300 299 304 308 307 321 323 328 332 332 330 329 330 330 333 335 335 336 342 342 342 341 342 342 344 345 343 342 342 341 343 343 350 353 352 351 346 343 347 347 342 338 336 344 339 335 339 337
303 300 299 303 307 305 320 321 327 328 330 332 331 331 331 333 334 335 334 337 338 338 339 342 343 343 344 344 343 343 342 341 344 350 352 353 351 349 346 346 348 345 343 340 344 342 340 336 334
301 298 300 300 304 319 319 317 320 325 328 333 335 335 334 332 332 334 333 336 337 336 340 342 343 344 345 344 344 346 344 343 342 346 349 352 351 351 349 350 349 345 346 343 343 343 341 330 334
294 302 303 303 297 294 314 303 313 321 322 327 323 328 330 333 335 334 333 335 335 336 342 344 343 345 345 343 342 343 340 339 339 343 347 351 353 352 354 352 351 345 347 344 344 349 340 336 333
301 305 302 301 295 292 295 292 304 319 318 324 321 324 328 333 334 334 332 336 337 337 340 345 344 344 345 343 340 343 340 341 341 343 346 348 350 352 353 350 350 349 349 346 345 347 346 343 339
307 301 297 295 292 287 291 292 300 312 318 323 328 329 331 331 332 334 333 336 337 339 340 346 344 343 345 343 339 340 341 340 342 342 344 347 350 351 351 351 351 349 347 346 346 347 343 344 345
300 292 286 286 285 286 290 291 293 317 321 325 326 329 332 332 330 331 332 333 335 337 340 344 344 341 343 344 344 340 341 339 341 342 345 347 349 349 351 351 350 349 349 350 348 348 349 346 345
294 292 287 282 283 287 293 289 296 311 324 325 329 330 327 328 330 333 333 333 334 337 338 343 343 342 342 343 343 345 340 340 342 343 347 349 350 351 354 352 352 352 351 350 349 348 347 349 346
296 292 294 288 287 287 290 295 301 309 308 323 323 323 324 328 332 335 335 334 335 337 337 340 343 342 342 342 342 343 347 341 340 345 347 347 349 349 353 352 352 351 352 351 350 346 346 348 348
298 299 291 288 283 282 288 290 293 301 308 317 321 322 324 332 333 336 335 335 336 338 338 340 342 343 344 343 342 342 344 348 339 341 342 346 346 348 350 353 352 351 351 351 350 347 348 348 347
290 289 291 290 289 284 284 289 300 305 309 310 321 324 327 331 333 335 336 337 338 339 339 339 340 341 345 346 344 341 342 345 344 340 341 343 343 345 348 354 352 352 352 350 351 347 347 348 347
292 289 287 285 284 287 289 290 304 308 309 309 311 324 329 332 334 336 337 338 337 337 338 339 340 341 342 346 346 344 341 343 346 345 341 340 342 348 352 354 352 352 353 351 349 349 350 349 347

GFSSGP_sfc_thetae_063.txt.gz
Theta_e
352 350 346 335 319 318 313 319 328 324 326 332 328 326 325 329 325 314 333 341 343 345 351 358 363 363 363 364 361 360 361 362 361 361 362 361 361 361 358 360 359 356 360 359 358 359 361 361 363
349 346 340 331 316 311 313 324 323 327 331 332 333 332 329 324 332 330 335 343 344 348 353 357 363 364 363 363 361 360 362 362 361 361 361 361 360 359 360 359 360 358 357 359 358 358 359 361 361
347 345 329 324 317 310 315 324 326 332 335 333 330 332 331 325 332 332 342 342 346 351 353 357 364 364 363 363 362 361 363 362 361 361 360 360 360 360 360 359 358 358 357 357 359 358 359 359 359
339 340 333 317 314 321 323 325 330 331 334 334 330 325 334 338 333 341 343 344 349 350 352 360 363 363 363 363 361 361 363 361 361 361 360 360 359 359 358 358 358 358 357 356 357 358 359 360 359
343 333 321 318 319 325 327 329 332 329 331 331 333 325 327 336 343 343 343 347 348 349 354 356 364 361 361 361 362 361 362 361 361 360 360 360 360 358 359 358 359 358 358 357 356 357 358 357 357
327 328 318 315 319 327 329 333 332 330 331 332 328 326 327 340 340 342 345 347 350 352 354 357 363 362 362 363 362 363 362 361 361 360 360 360 359 359 359 359 358 358 357 356 356 357 357 357 359
324 325 318 319 321 323 328 332 332 330 330 329 334 322 331 335 340 344 346 349 352 354 354 355 356 360 363 362 363 362 362 361 361 361 360 359 358 359 359 359 358 358 358 357 357 357 356 357 359
328 325 319 321 317 321 329 331 334 331 330 334 332 322 324 335 341 347 348 349 351 353 354 352 353 354 355 356 363 362 362 361 361 361 361 359 359 358 357 360 360 359 358 358 356 355 356 359 360
338 321 313 316 320 325 333 331 335 338 333 331 337 329 334 340 345 344 345 347 349 350 349 350 351 351 353 354 358 361 362 361 360 358 360 358 349 350 352 356 358 359 359 358 356 357 358 358 357
328 318 318 323 328 327 332 332 332 332 331 332 328 333 338 341 341 340 341 340 343 346 347 349 349 350 352 356 353 353 355 353 352 352 349 348 347 348 351 355 358 358 359 359 356 356 356 352 347
324 320 324 326 330 333 331 331 333 330 327 332 325 330 335 338 338 339 340 341 341 345 349 347 347 349 350 350 350 350 350 350 351 350 349 347 349 347 348 349 349 347 354 350 344 341 340 344 344
315 324 326 324 330 328 326 334 331 332 333 338 331 335 335 334 336 338 338 339 340 344 346 346 348 348 347 350 349 349 348 348 347 347 346 346 344 344 344 345 343 344 342 341 343 338 342 345 346
317 320 322 324 327 330 330 327 330 332 339 339 334 334 334 334 335 338 340 340 341 341 343 344 347 345 346 348 348 348 348 348 347 345 346 347 343 342 344 342 341 342 344 341 342 338 340 342 344
319 320 318 324 328 329 326 329 330 333 339 336 333 331 332 333 334 337 338 337 340 341 342 343 346 345 346 346 346 346 347 349 345 343 345 346 346 344 345 344 343 344 343 344 342 342 340 339 343
317 313 313 327 327 328 331 325 326 334 337 333 333 331 332 332 334 335 336 337 340 340 342 343 344 345 345 346 346 344 344 348 345 344 343 345 349 346 343 343 343 344 342 343 343 343 342 340 342
305 302 297 322 327 331 327 315 327 335 335 331 333 331 333 331 331 336 335 337 339 339 341 344 348 344 345 345 346 342 342 344 345 344 341 346 350 349 344 343 342 341 344 342 338 340 340 339 337
300 296 298 306 329 328 325 318 328 334 334 331 331 331 332 331 331 334 335 335 337 340 342 341 343 342 344 343 344 344 342 344 345 344 346 346 351 350 346 343 344 342 341 337 336 337 338 336 335
295 296 296 298 320 324 321 319 328 331 333 331 331 330 330 330 330 332 337 336 340 341 342 341 341 342 344 342 341 341 343 344 345 346 349 350 348 348 345 345 344 343 338 338 338 336 335 337 334
301 298 297 301 306 302 318 319 326 330 332 330 329 329 329 330 333 333 338 340 341 342 340 338 338 342 344 338 337 340 339 341 344 347 351 349 347 344 343 345 345 342 338 336 340 335 336 337 333
301 298 297 302 305 302 305 316 325 329 330 330 329 328 329 330 332 332 335 340 340 339 339 338 339 342 344 341 340 342 341 341 343 348 350 350 348 344 344 345 345 339 336 338 342 338 338 335 332
298 296 297 299 302 318 317 316 321 326 328 331 332 331 331 330 332 331 334 338 340 338 338 338 339 342 343 342 342 342 342 340 340 345 347 350 350 349 345 345 345 343 341 342 341 341 336 328 331
294 302 303 301 296 291 312 300 316 320 321 326 330 331 331 331 333 332 332 335 338 338 340 340 340 342 342 341 342 341 338 336 338 342 346 349 351 349 348 348 348 344 344 342 342 345 340 331 329
300 304 301 299 294 290 294 294 300 318 317 321 328 331 332 333 334 332 330 334 337 338 338 340 341 342 343 341 342 341 338 339 339 341 344 346 348 349 351 349 349 344 346 344 343 345 342 337 337
306 300 295 292 290 285 290 291 296 313 317 320 326 330 332 334 334 334 333 335 335 337 339 341 341 341 342 341 338 340 340 339 339 338 341 344 347 347 350 348 347 347 345 344 343 345 342 341 341
297 291 285 284 284 285 288 290 293 312 320 322 324 328 326 330 332 334 331 333 333 334 338 342 340 340 341 340 338 338 339 339 340 339 340 343 345 347 348 347 347 345 346 345 345 345 343 343 343
293 292 286 281 282 286 289 288 294 306 315 323 327 328 330 329 331 333 330 334 333 334 336 341 340 339 341 341 340 337 338 340 339 341 341 344 346 349 350 348 349 348 347 348 345 346 344 346 343
293 290 292 286 284 286 288 292 299 309 309 312 323 327 328 331 332 333 332 333 335 335 335 340 340 340 341 341 341 340 338 338 339 341 343 344 346 349 350 349 349 350 349 347 346 345 344 345 345
292 296 289 286 282 281 286 288 293 301 303 307 319 324 328 331 332 331 333 332 334 336 337 340 341 340 341 341 342 342 343 340 338 340 343 344 346 347 349 350 348 349 349 349 347 344 344 343 345
288 286 285 287 286 283 283 288 300 301 302 303 311 322 327 325 327 331 333 334 334 336 337 338 340 340 340 341 341 341 340 344 341 338 340 342 344 346 346 350 349 347 348 349 348 345 345 346 344
292 286 283 282 283 284 286 288 298 301 302 303 320 320 323 328 329 335 336 335 334 335 336 336 339 340 341 341 341 340 339 340 343 341 338 339 340 342 344 347 349 348 349 348 348 347 348 344 344

GFSSGP_sfc_thetae_066.txt.gz
Theta_e
351 349 345 334 318 316 312 319 327 324 326 329 326 323 322 324 320 313 332 338 343 345 351 357 363 363 361 360 359 360 361 359 361 361 361 361 360 358 359 357 357 359 358 358 359 360 361 361 362
348 346 339 330 315 310 313 323 322 327 329 330 331 331 329 323 331 328 334 341 344 348 353 356 362 363 363 360 360 361 360 360 362 361 361 360 360 360 359 360 357 357 357 358 358 359 360 360 361
347 345 327 323 317 310 315 323 326 327 332 329 329 333 331 325 330 331 339 342 347 351 354 356 363 363 362 362 361 361 361 360 361 360 360 359 360 360 360 359 359 357 358 358 358 358 359 359 360
339 339 332 316 314 320 322 325 327 329 333 334 332 326 333 337 330 339 341 346 349 350 353 360 363 363 363 361 361 361 361 361 361 360 360 358 359 358 358 357 358 358 357 358 359 359 359 358 358
343 334 320 318 318 325 328 329 331 329 330 331 332 323 325 335 341 340 342 348 348 348 353 357 364 363 363 361 361 360 361 360 359 360 360 359 357 358 358 357 357 357 357 357 358 357 357 357 359
328 328 318 313 319 326 329 332 332 330 332 332 327 325 328 339 338 339 345 347 350 351 353 356 362 360 360 362 361 361 361 360 360 360 358 359 357 357 357 358 359 357 357 358 357 357 358 359 360
326 325 319 318 319 322 327 334 331 329 330 328 332 322 332 335 339 342 345 347 351 353 353 355 354 358 363 362 361 359 360 360 360 359 360 357 358 357 357 359 358 357 357 358 357 357 358 359 360
329 323 318 319 315 320 329 331 334 332 329 334 332 322 326 334 341 345 347 348 350 352 353 352 354 355 355 357 361 361 360 361 361 360 358 358 358 358 358 359 360 357 357 358 357 357 359 359 360
337 320 312 315 318 324 331 330 335 339 330 331 333 330 334 339 343 344 344 346 349 352 349 350 352 353 354 355 358 361 361 359 359 358 359 355 351 353 354 358 358 358 356 355 355 357 357 358 360
326 319 317 323 327 327 331 332 333 332 330 326 330 335 338 342 341 339 339 339 341 344 349 349 350 351 353 356 354 354 356 353 354 353 351 350 350 351 353 357 359 359 357 355 355 356 357 352 352
325 319 323 325 331 333 331 330 334 330 326 328 327 331 337 339 338 338 339 339 340 344 348 348 348 350 351 351 352 352 352 352 352 351 350 351 350 350 350 351 351 352 355 349 345 343 346 348 349
315 322 325 323 329 329 328 333 330 331 333 333 333 335 337 337 338 337 338 339 341 343 347 347 348 348 349 351 350 350 350 350 349 349 350 349 347 348 348 348 347 348 345 348 344 343 346 348 348
315 320 322 324 323 327 331 329 330 332 337 333 335 335 336 337 338 340 341 341 342 343 345 346 347 347 347 349 349 349 349 350 348 348 348 349 347 347 347 347 345 346 347 347 343 343 345 346 348
319 319 318 318 318 326 324 326 330 335 336 332 333 332 335 336 338 340 340 338 340 343 342 344 346 346 347 347 348 348 349 350 349 347 348 349 349 347 347 347 346 347 347 346 346 345 346 344 347
316 311 312 313 325 325 332 324 324 336 333 330 331 332 333 336 338 337 339 338 340 341 342 342 344 345 345 346 347 347 348 350 349 348 347 347 349 346 346 347 347 348 346 348 348 347 346 345 345
303 301 298 316 325 329 323 312 327 336 331 327 330 331 332 333 336 338 339 339 340 340 340 343 348 345 345 345 346 345 345 348 348 348 346 346 349 349 346 346 348 346 349 347 344 345 345 343 342
299 295 297 302 326 327 322 316 327 336 333 327 328 328 330 331 334 337 337 339 339 340 341 342 345 344 344 345 346 345 344 345 347 348 347 347 350 351 347 347 349 347 346 343 342 342 345 342 341
295 295 295 297 321 323 319 317 327 332 332 330 329 328 328 329 330 335 336 338 340 340 342 343 344 343 344 344 345 345 344 345 347 347 348 350 351 350 348 349 348 347 344 344 344 344 342 343 341
300 298 297 300 307 304 303 314 324 328 331 330 329 328 328 328 331 334 334 337 338 340 341 341 341 342 343 340 339 341 341 344 346 348 351 352 351 349 348 348 347 347 343 343 344 341 343 342 339
300 297 296 301 304 300 303 310 322 325 330 331 330 328 329 328 328 330 334 334 337 339 340 338 340 342 344 342 341 343 342 345 347 349 352 352 351 347 347 348 347 345 341 346 346 345 344 340 338
297 295 296 297 302 308 314 310 319 328 329 331 332 331 331 329 327 329 334 334 337 338 339 338 339 342 344 342 343 342 342 343 345 348 349 352 351 349 349 349 348 346 343 346 348 346 343 337 337
292 302 302 300 295 289 308 295 310 321 322 326 328 329 329 329 331 330 333 336 337 338 339 340 339 342 344 342 342 341 340 338 342 345 349 352 354 351 350 349 350 349 348 348 348 349 345 339 337
300 303 301 299 293 289 293 298 297 316 316 321 327 329 330 331 331 331 332 337 339 339 339 339 339 342 344 343 343 341 340 340 342 345 348 350 352 352 351 352 352 349 349 350 349 351 347 344 342
304 298 293 290 289 285 290 296 291 309 315 318 326 330 331 332 331 333 333 337 338 340 339 339 338 340 343 343 342 342 340 340 340 341 344 346 350 352 352 353 350 349 351 350 349 351 350 349 348
296 291 284 283 283 284 287 289 291 302 306 312 321 328 333 333 333 332 330 332 336 337 338 339 339 338 341 342 341 342 342 342 341 341 342 344 347 350 351 352 349 349 351 351 349 351 349 348 350
292 291 285 281 281 285 289 287 294 306 308 309 322 327 332 333 334 334 332 332 334 336 337 339 338 338 341 341 340 340 342 342 343 343 343 344 347 350 353 353 352 351 352 351 349 350 352 351 349
291 288 291 285 283 284 287 293 300 305 304 305 308 323 328 330 332 333 334 333 334 334 335 338 339 339 340 341 341 339 340 341 341 344 345 345 348 350 353 352 352 352 352 352 352 350 349 351 352
291 292 287 285 282 281 285 290 292 297 299 302 306 315 324 328 328 331 334 332 334 335 336 339 340 340 341 342 342 341 339 340 341 343 344 346 348 351 353 353 352 352 354 351 351 350 350 350 350
288 286 284 286 284 283 282 288 296 297 299 298 318 325 319 329 331 333 334 333 335 336 335 338 340 340 340 342 342 342 341 340 340 341 344 346 349 349 351 353 352 352 352 353 352 351 350 349 349
290 286 283 284 283 282 285 287 295 294 296 301 313 326 326 327 330 334 335 335 334 335 336 336 339 340 341 341 342 341 342 344 341 340 341 344 346 349 351 351 352 352 352 351 352 351 352 349 349

GFSSGP_sfc_thetae_069.txt.gz
Theta_e
352 349 347 339 324 322 317 319 328 326 324 329 329 325 323 326 322 321 338 343 347 349 356 358 364 361 360 360 361 361 360 362 362 362 362 360 359 359 357 357 359 358 358 360 360 360 360 361 360
350 346 343 338 321 315 318 324 323 326 329 330 331 328 327 324 333 332 336 344 348 350 355 357 364 363 360 360 361 361 360 363 362 362 361 360 359 359 358 358 359 358 359 359 359 360 360 361 361
347 346 335 330 322 315 316 323 326 329 330 332 330 335 332 327 332 334 342 346 349 353 356 358 363 364 361 360 362 361 360 362 361 361 360 360 360 359 359 358 358 359 358 360 360 360 361 360 360
341 342 337 321 317 321 322 324 328 329 330 335 333 328 333 336 334 341 344 347 349 353 355 361 363 362 362 361 363 361 361 362 361 359 359 360 359 359 358 358 358 358 358 360 360 360 360 358 358
346 339 324 321 321 325 328 328 329 327 331 331 332 324 325 336 344 343 345 348 349 352 356 358 364 363 362 362 361 362 362 361 360 361 360 359 359 359 358 357 357 357 358 360 359 358 358 359 359
331 330 321 317 321 328 329 331 330 328 332 330 327 326 330 342 340 342 347 348 350 352 355 359 362 363 362 362 361 361 361 360 361 360 360 359 358 358 356 357 358 357 359 358 358 359 359 360 361
328 329 322 321 321 324 328 335 329 331 332 331 332 325 332 337 340 345 348 350 351 353 355 359 359 359 361 362 361 360 360 360 359 361 359 359 358 358 359 359 358 358 359 358 358 360 359 362 361
333 330 320 322 320 321 330 332 336 333 330 337 336 326 325 336 341 345 348 350 351 353 355 355 355 361 361 361 361 361 360 361 360 359 359 360 359 360 359 360 360 358 358 358 358 359 360 359 361
339 325 319 319 321 325 332 330 335 340 331 331 334 333 336 340 343 343 345 348 350 351 355 356 358 359 362 361 362 361 361 360 360 359 360 358 357 357 358 361 359 358 356 357 358 358 358 360 361
331 325 321 327 329 328 333 332 332 332 328 329 332 337 339 340 340 339 340 342 344 347 352 355 358 358 359 358 362 361 358 358 359 360 360 358 358 359 359 360 359 357 355 357 357 358 356 355 359
330 324 327 328 332 334 332 332 336 332 325 328 329 333 336 337 337 338 340 342 343 346 350 354 358 360 358 361 358 357 357 358 359 360 359 359 357 358 359 359 357 359 354 352 354 353 353 355 357
324 327 327 327 332 332 331 336 332 333 333 335 336 336 336 335 336 338 339 342 343 344 349 355 356 359 359 359 356 358 355 357 355 357 360 358 353 355 356 354 356 356 353 352 351 352 355 355 356
324 325 326 327 326 328 333 331 331 333 337 338 337 337 335 335 337 340 342 344 346 343 348 353 356 359 359 360 359 357 355 356 356 357 358 358 355 354 356 355 355 356 354 352 351 354 353 355 354
323 322 322 322 321 325 327 329 332 335 335 335 336 335 336 336 338 340 343 343 344 346 348 353 355 358 358 358 360 357 356 356 356 357 358 359 359 358 356 354 356 357 358 355 354 353 354 354 353
320 316 315 324 327 327 333 325 327 332 334 332 333 335 336 337 340 342 343 343 345 347 349 351 353 355 356 358 358 355 354 355 356 358 360 359 361 360 355 358 356 356 359 358 359 357 356 353 352
313 310 309 323 328 330 329 319 331 335 332 329 331 335 336 338 339 343 345 346 347 346 349 352 350 353 355 356 357 354 355 356 358 360 358 357 359 361 360 358 360 357 359 356 355 355 352 351 351
308 307 307 308 330 329 326 321 332 334 331 328 330 333 335 337 340 343 344 347 346 346 349 350 352 351 354 357 356 356 357 356 358 360 360 357 358 360 359 357 357 358 355 353 353 353 354 351 350
306 305 305 308 322 327 323 322 330 336 332 331 331 332 334 335 338 343 343 347 347 346 348 349 351 353 355 354 356 353 354 355 357 358 360 358 359 360 359 357 358 358 353 352 353 355 353 353 351
308 306 305 307 315 314 308 310 320 333 334 331 331 332 334 335 340 343 341 346 345 345 347 349 351 354 353 350 349 351 350 353 354 356 359 359 360 361 360 362 357 357 354 355 355 352 353 350 352
308 306 305 307 309 309 308 311 327 329 333 334 332 331 333 335 338 339 342 343 344 344 346 349 351 354 354 351 353 353 354 354 358 358 360 360 361 361 359 360 356 357 352 356 355 355 351 351 350
307 306 305 304 308 314 319 316 323 329 332 335 336 334 334 334 335 337 340 341 343 344 346 348 351 354 355 354 353 354 355 356 354 355 356 359 361 356 358 360 358 357 355 354 357 354 353 345 348
305 308 307 305 305 300 313 302 316 325 326 331 335 335 334 335 336 337 339 340 341 344 347 350 351 353 355 356 353 353 350 348 351 354 355 358 361 359 357 359 360 359 354 358 357 358 355 351 345
308 309 308 306 304 301 303 305 310 321 322 325 333 335 335 336 336 336 338 340 341 344 346 348 351 352 356 356 356 352 353 352 354 355 359 361 363 361 359 359 360 360 358 360 360 359 351 353 349
311 304 302 301 302 297 301 304 302 309 312 314 329 335 336 337 337 338 340 342 342 345 346 347 349 352 354 355 354 354 354 354 351 353 354 355 358 366 362 361 362 361 360 360 359 362 360 360 358
307 303 296 294 294 296 299 300 303 308 310 312 316 325 337 338 338 337 338 339 342 344 345 346 347 349 352 353 353 354 354 356 356 355 353 356 354 357 361 363 362 361 361 362 361 361 361 360 357
303 303 297 291 292 296 298 298 303 307 312 318 325 327 335 338 339 338 339 340 342 344 346 346 347 348 350 351 354 356 356 352 352 356 353 353 354 356 363 363 364 362 362 361 361 358 358 359 357
299 298 303 296 295 296 298 302 305 307 310 317 327 329 330 337 339 339 339 341 342 344 346 347 348 348 349 349 353 354 354 355 354 357 357 354 359 356 361 363 363 362 362 362 362 356 359 361 361
301 300 297 298 291 291 295 298 298 300 306 315 322 327 328 334 339 340 340 340 342 344 346 347 348 348 349 350 351 351 352 354 355 356 357 358 358 360 360 361 362 362 362 362 362 360 361 360 357
298 297 297 299 297 294 293 295 299 302 310 310 311 320 330 334 335 340 342 342 343 343 344 345 347 348 348 349 352 351 350 351 353 353 355 358 360 361 360 361 361 362 362 363 362 361 360 359 359
297 294 294 297 294 295 299 293 302 307 310 308 307 311 316 325 331 337 340 340 341 342 342 343 345 345 346 350 352 350 352 351 350 351 353 357 358 360 361 362 362 362 362 362 362 360 358 358 358

GFSSGP_sfc_thetae_072.txt.gz
Theta_e
352 349 352 344 328 326 322 322 329 327 326 332 332 328 326 328 327 324 344 346 350 351 356 359 363 361 360 363 361 362 363 362 363 363 360 361 359 358 358 359 358 360 361 362 361 361 362 362 361
348 347 348 342 325 318 317 324 323 325 331 333 331 330 328 329 337 337 340 348 350 351 354 357 363 363 360 363 361 361 363 362 363 362 361 360 360 359 359 360 358 360 360 360 361 362 362 361 362
350 349 339 333 325 321 317 324 324 327 332 332 332 337 335 331 337 339 346 348 350 352 355 361 364 363 361 363 361 361 363 362 361 361 361 361 360 359 359 360 360 358 360 361 361 361 361 360 362
347 347 342 324 320 322 323 326 328 327 333 337 336 332 336 341 338 343 347 348 350 352 354 363 364 362 362 362 363 361 362 362 360 360 360 360 360 359 359 359 359 359 360 361 361 361 359 359 361
348 343 328 326 323 328 331 329 330 325 329 335 336 330 329 340 344 345 347 348 349 351 355 360 364 363 362 363 363 363 362 361 360 360 360 359 359 359 358 358 359 360 359 360 359 358 359 360 361
335 338 325 319 324 330 329 331 330 328 332 333 332 328 332 343 342 345 348 349 350 350 354 359 363 363 362 361 362 362 361 361 361 360 359 359 358 358 359 359 358 360 359 359 360 360 360 361 361
333 333 324 322 324 327 329 334 328 330 334 333 335 330 335 339 343 347 349 350 351 352 355 356 361 363 362 362 361 362 361 361 361 359 360 359 359 359 359 358 360 359 359 359 360 360 361 362 361
336 334 323 323 322 324 332 333 336 335 331 340 340 330 330 339 345 348 350 349 349 352 356 355 354 355 360 360 361 362 361 361 360 360 359 359 360 359 359 362 361 360 359 360 360 360 361 361 360
342 328 321 322 325 327 332 330 339 341 336 336 338 337 339 342 345 346 346 347 348 351 354 349 354 360 363 362 363 361 360 361 360 359 357 358 355 356 356 360 359 359 359 360 359 359 361 361 360
333 330 324 329 331 331 332 333 336 331 332 332 335 340 341 342 344 342 342 343 345 348 350 350 356 356 359 358 362 358 355 354 356 357 359 356 358 361 355 359 358 358 359 359 360 356 356 360 357
334 327 330 330 333 334 334 331 335 332 327 334 334 336 338 340 341 341 342 344 345 349 348 352 355 358 358 360 354 352 353 355 358 359 358 358 355 354 353 355 356 356 356 355 357 356 356 357 354
327 331 331 330 331 333 331 337 334 332 333 335 341 339 338 338 339 340 341 343 346 348 348 352 356 358 358 356 351 353 353 355 354 357 359 357 353 354 354 353 355 356 354 354 356 356 359 360 357
327 329 330 329 327 327 331 332 333 336 338 341 340 338 337 338 340 342 343 345 347 346 348 351 356 358 359 356 353 353 354 353 354 356 359 356 354 356 355 356 355 355 355 354 356 356 357 357 356
328 328 327 326 323 325 329 332 335 337 341 338 337 336 337 337 339 342 343 344 347 346 350 352 354 359 360 357 358 356 354 355 354 355 359 362 357 358 356 356 355 355 356 356 356 357 355 353 353
325 321 324 325 325 327 333 329 329 339 339 336 336 336 337 338 340 341 344 344 345 345 349 351 353 357 358 357 358 355 354 354 354 356 362 362 361 362 362 357 357 356 359 360 359 358 357 351 352
319 320 316 324 326 329 333 322 334 339 334 332 335 336 336 338 340 343 345 345 346 346 349 352 351 354 356 356 357 355 356 356 358 357 358 360 362 361 360 355 355 358 358 356 355 356 351 350 350
315 312 315 319 328 329 330 325 335 339 334 331 331 334 337 338 341 344 344 347 348 348 350 352 353 354 356 358 355 356 359 357 358 358 358 362 362 359 358 357 356 361 356 355 353 354 354 349 348
308 312 316 314 326 328 326 326 334 337 335 332 330 335 337 337 340 343 346 350 351 349 350 352 352 355 358 357 358 355 355 357 359 359 360 361 362 363 362 356 359 358 353 352 353 355 354 352 350
313 314 313 314 324 321 317 315 327 335 337 335 330 335 337 337 341 343 348 348 350 349 348 351 352 357 355 353 352 352 352 355 356 359 361 361 362 364 365 359 359 359 353 357 359 354 353 346 352
313 312 312 313 315 316 313 312 325 329 334 337 332 334 337 338 340 342 347 348 348 347 346 350 352 357 356 352 354 354 355 355 357 359 362 360 361 363 360 361 358 358 352 358 358 358 347 347 352
312 311 313 311 313 315 315 314 324 329 333 336 338 339 340 339 338 342 345 346 346 346 346 350 354 357 357 356 356 359 359 362 364 359 357 360 363 363 363 364 358 361 356 350 358 356 355 342 351
308 314 312 311 309 306 314 307 318 328 329 333 333 336 337 340 341 342 344 345 345 346 349 351 356 358 358 360 357 359 351 348 351 355 357 360 363 361 361 364 363 363 356 359 357 357 357 354 342
311 315 313 312 311 309 307 308 315 323 325 327 333 336 338 337 337 342 343 346 346 347 348 351 357 359 359 361 360 356 357 352 354 354 365 363 366 362 361 364 364 363 358 361 361 362 361 351 347
316 312 311 311 310 302 308 307 309 314 314 319 333 338 340 341 339 342 345 346 346 348 349 351 355 359 360 361 362 360 358 357 351 354 366 354 360 359 363 362 365 364 362 361 359 363 361 359 356
314 309 300 298 299 300 309 306 308 313 316 320 322 325 341 342 342 342 343 344 345 346 349 350 354 356 359 359 360 360 360 361 359 363 351 357 355 354 361 365 366 360 365 361 361 366 361 363 355
310 309 302 295 297 300 307 302 305 315 323 331 333 330 332 342 343 343 344 345 346 346 349 350 353 355 357 358 360 362 362 356 356 357 352 353 353 356 362 363 361 362 362 361 361 358 356 358 357
309 306 311 303 304 302 304 307 310 314 322 324 329 332 333 341 343 342 344 346 347 348 349 352 353 356 357 356 359 360 361 359 356 359 359 355 359 356 362 361 360 360 363 364 365 358 359 359 360
307 311 302 303 297 296 301 303 302 309 317 321 321 324 334 338 342 344 343 346 347 348 350 352 353 356 357 357 357 358 359 361 360 360 360 359 357 361 361 364 363 361 363 365 366 359 362 361 356
303 303 305 306 304 299 298 300 306 312 315 316 317 316 321 327 334 335 342 345 347 349 350 350 352 354 355 357 358 357 357 358 360 359 360 360 360 361 363 364 364 363 361 364 366 363 360 362 360
303 303 305 300 301 303 303 298 311 315 313 310 310 311 312 316 318 321 323 324 336 346 348 349 351 351 354 355 357 356 357 358 356 358 359 360 360 361 363 367 364 364 363 365 364 360 358 359 358

GFSSGP_sfc_thetae_075.txt.gz
Theta_e
352 349 351 346 328 328 322 322 330 326 327 333 333 329 329 335 330 324 345 351 353 352 355 358 363 361 364 361 361 361 362 361 360 360 361 359 358 360 359 359 362 362 362 362 363 363 362 362 361
349 346 348 339 325 318 319 327 323 327 332 334 332 332 332 330 339 338 343 351 351 349 351 353 362 362 362 361 362 362 361 360 360 361 361 361 360 361 361 359 361 361 361 362 362 362 362 362 361
355 349 337 332 325 318 318 323 325 328 333 332 330 339 336 331 339 341 348 351 350 348 352 358 363 361 362 361 362 361 362 360 361 361 361 360 359 359 360 360 359 361 361 362 362 362 362 361 362
346 345 341 328 322 327 327 325 328 330 336 336 337 331 339 342 341 345 349 350 347 351 354 361 363 361 362 363 361 362 361 360 361 361 360 360 360 360 360 360 360 361 361 361 361 360 361 362 361
345 343 330 326 325 329 331 329 329 331 333 334 335 331 333 341 346 347 348 350 348 351 356 361 365 362 362 362 361 361 361 360 361 360 360 359 360 359 359 360 361 361 361 360 360 359 360 362 360
336 338 324 318 324 329 330 330 329 329 334 336 334 332 334 344 344 346 348 348 349 348 354 359 362 362 362 361 361 361 361 361 360 359 360 359 358 360 359 360 361 360 361 361 361 360 361 361 360
335 335 323 323 324 326 329 333 329 331 334 333 339 331 337 340 345 347 347 349 348 351 351 356 359 362 362 361 361 361 361 361 361 360 360 359 360 358 359 361 360 359 360 360 359 359 362 361 360
339 333 323 327 323 325 331 332 335 334 334 342 343 331 331 340 346 347 348 348 348 350 350 355 356 354 359 360 360 361 361 361 361 360 360 361 360 359 361 362 360 360 360 361 361 361 361 360 359
344 328 321 323 326 329 335 331 339 341 337 337 339 339 339 344 346 345 345 345 347 349 349 348 350 357 362 360 361 359 361 360 360 358 358 359 356 356 356 361 360 361 360 360 362 362 361 360 358
337 326 323 331 334 329 334 335 337 335 333 335 337 340 341 343 343 342 341 341 343 345 343 348 352 354 357 353 361 358 356 356 357 356 360 357 356 356 356 359 360 360 360 360 360 362 362 361 352
333 324 328 332 336 337 333 332 337 332 331 334 334 336 339 341 341 340 341 341 342 344 344 352 353 359 354 355 351 351 352 351 352 361 359 359 353 354 352 356 356 358 359 355 355 358 357 357 350
328 332 331 332 336 336 335 337 333 334 335 340 339 340 339 340 340 340 340 341 342 344 345 350 352 357 359 352 350 356 351 351 353 357 363 356 350 353 357 354 354 358 356 354 351 353 358 354 352
330 330 332 331 330 331 335 335 335 333 336 340 342 340 339 340 340 342 342 343 344 342 345 350 354 362 362 355 352 355 351 351 351 354 362 358 354 358 360 359 353 357 354 353 355 357 358 355 354
333 332 330 330 328 328 331 333 334 338 340 339 340 338 339 339 340 342 342 342 343 344 346 351 354 360 358 356 361 363 355 351 355 355 358 362 356 364 354 355 354 356 359 361 358 355 357 353 351
329 327 328 326 326 326 335 329 331 338 341 336 337 337 338 339 342 341 342 342 343 344 348 350 353 356 358 356 356 359 357 353 354 357 360 359 359 361 360 354 355 355 359 360 358 356 357 352 351
323 325 320 325 327 330 333 323 334 341 338 334 335 336 337 339 341 343 344 343 344 344 349 351 350 353 354 355 356 358 355 355 356 359 360 360 360 362 363 355 357 355 358 354 359 355 354 356 351
318 315 317 320 326 328 329 325 335 340 338 334 332 334 335 337 339 343 344 342 343 345 349 350 352 353 354 357 356 360 362 357 357 362 358 362 361 361 360 356 356 365 365 363 351 356 354 350 350
310 313 316 318 323 327 327 325 335 337 335 334 333 333 334 335 337 342 343 344 347 349 350 352 351 356 357 355 358 356 353 357 364 362 360 361 361 360 359 357 358 363 357 352 356 358 349 352 350
314 314 313 319 325 323 322 326 331 337 335 335 332 332 335 334 339 342 342 346 346 348 348 351 352 359 355 352 350 351 352 358 359 362 362 361 361 361 362 355 357 362 359 359 357 353 353 347 350
313 312 315 318 323 323 319 317 329 332 336 337 333 331 335 336 337 341 341 346 345 348 348 351 353 359 356 354 359 353 354 356 357 361 361 361 361 362 360 363 359 362 354 359 356 360 357 347 349
314 313 315 314 316 321 317 315 322 327 333 337 336 338 338 336 336 338 341 344 345 347 346 350 354 358 359 361 356 356 357 362 358 359 355 359 361 360 362 363 367 359 363 351 358 355 359 352 345
310 315 316 314 313 308 317 306 319 324 326 335 334 336 336 338 338 339 340 343 344 345 345 350 354 358 358 360 360 365 352 351 350 357 359 358 363 361 361 362 362 362 358 361 356 352 362 355 345
311 315 314 316 312 312 312 310 312 326 324 331 334 337 339 339 339 338 341 344 344 345 346 350 356 360 363 362 365 357 357 351 353 356 359 366 364 362 360 363 363 363 359 363 362 361 361 350 347
317 315 314 314 312 304 310 309 314 318 322 331 334 335 338 338 341 340 343 344 344 345 346 351 358 361 361 360 361 362 360 359 357 351 354 354 354 357 362 361 363 364 365 363 359 363 361 362 359
316 312 303 301 302 302 311 308 312 318 321 323 331 332 340 339 341 342 340 344 342 345 344 349 356 359 360 360 360 360 360 360 361 359 353 351 359 352 363 363 364 360 363 361 364 366 363 357 356
313 311 303 297 298 302 311 305 310 322 330 332 333 333 340 340 341 342 344 343 343 346 345 348 353 359 360 360 363 364 364 356 354 358 356 354 355 352 367 362 361 361 362 362 363 359 355 364 356
311 308 313 306 308 304 307 310 316 324 325 328 332 334 331 339 338 342 342 346 343 345 348 349 356 358 360 359 361 363 365 362 358 367 360 356 362 354 363 361 361 361 362 363 366 356 361 365 361
310 315 306 307 299 298 304 306 307 317 320 324 324 328 333 333 333 332 337 343 345 345 347 348 352 356 359 359 360 360 362 363 362 360 362 362 360 360 355 362 362 361 361 362 365 363 364 362 356
307 307 310 310 306 301 300 303 316 319 321 320 315 319 321 322 326 329 328 333 338 339 347 348 351 354 357 358 360 360 360 361 362 359 360 362 360 362 361 368 363 362 361 362 366 367 362 360 362
308 308 309 303 303 306 304 300 318 319 318 315 310 312 316 314 313 321 323 326 325 331 336 341 348 351 354 357 361 359 360 361 359 360 361 364 365 361 362 364 363 363 362 364 364 360 357 359 358

GFSSGP_sfc_thetae_078.txt.gz
Theta_e
351 347 348 344 325 326 319 321 329 326 325 330 332 331 330 332 326 321 345 349 350 351 355 358 364 364 361 362 362 362 362 361 360 362 361 360 361 359 360 362 362 363 363 364 363 364 363 362 363
348 346 345 338 322 315 316 325 322 326 330 332 336 335 331 327 337 340 343 349 351 351 353 353 364 365 361 363 363 363 362 360 361 361 360 362 362 361 361 361 362 363 363 363 363 363 363 362 362
353 348 338 331 324 316 317 324 325 329 333 332 334 337 332 330 339 341 348 350 349 347 350 356 364 364 361 363 361 362 361 361 361 361 360 360 363 361 360 360 362 362 362 362 361 363 362 362 361
346 345 340 326 321 325 325 324 327 330 335 336 335 328 335 341 340 344 347 345 345 349 351 361 364 363 362 363 362 362 362 362 362 361 361 360 359 361 360 361 361 362 362 361 361 361 363 361 360
344 342 326 324 323 328 328 327 326 330 333 333 333 327 330 340 345 346 346 348 349 348 352 357 365 365 364 362 361 361 361 362 361 362 361 360 360 360 361 361 362 362 361 361 361 361 361 360 358
336 338 323 319 323 327 328 331 331 331 333 333 330 330 331 343 342 345 347 349 353 349 350 355 364 363 362 361 362 362 361 361 360 362 360 360 360 362 361 361 361 362 362 361 361 362 361 360 358
334 332 322 323 323 324 327 333 330 333 332 331 336 327 334 338 343 346 348 349 348 352 354 356 357 361 362 362 362 362 362 362 360 361 360 362 362 361 361 360 362 361 361 360 360 362 361 360 358
338 333 323 324 323 322 330 332 334 333 333 341 340 328 328 339 343 345 346 345 349 351 351 354 355 354 356 358 362 361 361 361 360 360 360 363 363 361 359 361 363 360 360 361 362 362 361 359 357
343 328 322 323 325 326 331 330 336 340 336 337 340 335 338 341 342 343 343 347 345 349 350 349 353 355 360 359 359 361 360 361 360 359 357 360 357 355 356 361 363 361 361 361 361 360 359 359 358
333 326 324 330 331 328 334 332 335 334 332 333 335 337 339 340 340 339 339 342 342 344 345 349 354 355 356 350 359 357 356 356 358 358 355 356 359 356 356 360 363 361 361 362 362 362 360 358 351
331 324 329 333 335 335 335 335 339 332 328 333 330 334 337 337 338 337 338 340 337 344 350 352 358 357 355 357 358 355 356 355 359 363 360 358 354 355 355 358 356 357 359 353 359 360 358 354 355
329 333 332 334 337 335 332 337 333 335 335 337 337 337 337 336 336 335 335 338 339 346 349 351 356 352 354 357 353 350 354 353 354 357 363 362 360 352 350 358 356 359 351 348 351 357 358 356 352
328 331 333 332 338 336 336 334 332 332 337 339 338 337 336 337 337 337 338 339 341 344 348 354 356 361 364 351 360 351 352 353 354 358 364 362 350 359 356 351 359 348 351 350 354 355 358 350 350
333 330 330 330 329 332 332 333 335 333 338 339 337 336 337 336 337 339 339 339 341 342 346 355 356 358 363 357 349 355 349 355 356 359 363 360 354 365 359 351 360 358 350 358 352 359 351 351 352
330 328 329 328 327 328 335 329 330 335 338 338 335 336 337 337 339 339 340 341 341 342 351 354 356 358 361 364 359 350 361 356 350 361 357 355 360 358 354 359 350 355 366 364 356 359 362 352 352
322 324 319 325 325 329 332 322 333 338 336 335 335 335 336 336 337 341 341 342 344 344 351 352 351 352 359 363 366 364 358 355 357 361 360 355 360 360 348 359 353 357 363 361 347 358 344 354 345
317 314 316 318 325 328 329 324 332 337 335 333 334 334 335 336 336 342 341 341 342 347 353 352 352 353 356 363 363 359 357 356 361 354 357 365 365 365 358 356 353 359 359 359 347 353 356 353 351
310 312 316 317 322 325 326 320 325 335 333 331 333 333 334 335 335 340 340 342 342 349 353 354 355 358 362 359 366 359 357 350 353 355 353 363 366 366 367 354 365 366 362 354 354 358 352 344 344
314 313 312 321 323 322 326 324 330 333 334 332 332 333 332 333 339 340 339 342 340 348 350 354 359 361 358 356 354 350 354 357 358 366 361 358 354 368 369 363 365 359 352 345 365 361 353 355 350
311 310 312 318 323 326 321 320 327 331 332 333 333 333 333 334 335 339 340 343 344 347 350 355 359 361 361 357 361 351 361 361 355 359 364 360 361 368 366 360 363 358 359 363 363 359 351 355 349
309 309 312 315 317 323 320 319 323 332 333 336 336 335 336 335 335 338 338 343 344 344 349 353 359 360 360 365 363 357 348 351 346 349 360 363 364 365 365 365 368 350 365 361 362 358 348 355 350
306 314 315 316 314 308 319 307 320 326 328 332 332 333 335 338 336 337 341 343 345 344 350 354 358 360 358 365 361 365 357 350 358 358 360 362 365 363 360 368 368 362 352 348 363 359 355 355 351
311 316 314 315 313 311 311 308 315 321 325 331 333 333 336 338 338 337 338 344 346 345 347 353 356 361 359 362 367 361 362 357 354 356 354 362 367 364 360 365 369 361 352 350 360 364 362 362 352
317 314 312 313 312 303 309 308 315 318 317 326 335 335 337 338 338 341 341 345 345 345 344 351 355 360 363 360 363 364 360 347 344 355 350 360 359 363 362 362 369 365 351 358 352 365 364 365 364
314 311 302 300 302 301 310 308 314 321 324 323 331 336 338 341 340 339 339 343 344 340 343 352 356 358 360 359 360 362 362 363 352 353 348 358 352 357 362 369 370 363 367 360 366 368 366 362 361
311 310 303 296 297 301 309 304 312 324 329 330 332 335 340 340 340 341 342 345 342 342 344 352 356 357 360 360 362 363 365 360 356 350 358 353 347 355 366 365 365 368 365 366 366 365 363 364 361
310 307 313 306 307 302 306 313 321 325 327 331 332 330 332 334 333 337 344 346 343 345 343 352 357 359 361 360 363 363 363 362 363 363 367 356 352 359 360 363 364 365 360 367 366 358 361 363 358
310 314 305 307 298 297 303 307 310 318 321 325 323 322 323 325 328 331 335 339 343 347 345 352 358 359 360 360 362 362 363 365 365 367 366 369 351 350 349 349 358 364 360 363 365 363 354 358 355
309 308 308 308 306 300 298 302 320 320 322 319 318 317 314 318 320 326 326 331 337 342 345 342 355 358 360 361 361 361 362 363 365 364 368 367 369 351 346 338 340 355 363 366 365 361 357 359 360
311 309 308 303 303 306 301 301 321 320 318 316 315 316 313 311 315 319 320 321 323 331 336 335 344 344 358 360 362 361 363 363 363 363 364 369 367 368 354 344 344 356 362 362 363 359 360 357 359

GFSSGP_sfc_thetae_081.txt.gz
Theta_e
351 349 346 339 321 322 314 317 328 324 325 329 333 331 328 330 325 319 343 348 350 350 355 358 365 362 361 362 364 362 362 361 361 361 361 361 359 361 363 363 363 363 364 364 364 363 363 362 361
349 343 339 333 317 312 313 325 322 326 331 335 333 331 329 326 337 338 340 348 351 352 354 358 364 364 364 363 364 362 361 361 361 361 362 362 361 362 362 362 362 362 363 363 364 363 362 361 361
350 350 332 326 319 311 313 325 326 331 336 334 330 333 333 330 339 340 346 349 351 350 353 358 365 365 363 362 362 360 361 361 361 360 360 361 361 360 362 362 362 363 362 362 363 363 361 361 361
344 342 335 323 319 324 324 326 328 331 335 335 331 326 336 342 340 343 348 349 345 348 354 363 365 362 362 363 362 362 361 362 361 361 360 359 361 360 362 362 363 363 362 362 363 362 361 360 360
344 338 322 321 321 324 325 326 327 330 331 332 331 327 331 340 345 346 343 346 345 349 354 359 366 364 363 362 362 362 362 361 361 361 361 360 362 361 362 362 362 362 362 362 363 360 360 361 360
331 333 320 317 320 323 325 328 328 331 332 331 329 328 329 340 341 342 346 344 349 349 354 356 363 365 362 363 362 362 361 360 361 360 359 360 361 361 361 361 362 362 362 362 362 359 359 360 360
330 326 321 322 321 322 324 333 329 331 329 328 334 325 331 336 342 346 346 344 346 350 352 356 357 359 362 363 362 362 361 361 360 360 361 361 360 361 361 362 362 361 363 363 361 360 359 360 360
337 329 323 324 320 319 328 331 336 335 330 336 336 324 324 337 344 347 347 345 347 350 352 351 354 353 353 355 362 362 361 361 360 360 360 361 360 360 360 364 364 361 361 361 361 360 358 359 359
342 322 320 321 320 322 330 328 336 340 335 335 335 333 335 341 343 341 342 345 347 349 350 350 350 351 352 353 357 360 361 360 360 358 357 358 350 350 355 362 364 361 361 360 359 357 356 355 356
328 320 322 329 328 326 330 331 334 330 333 333 331 336 338 341 340 339 337 336 341 344 347 349 350 352 351 355 353 353 354 353 351 346 348 349 347 348 354 359 363 361 362 361 359 358 356 356 347
326 321 330 328 331 332 331 331 336 332 327 330 328 331 335 337 340 339 334 333 338 343 349 348 348 350 346 350 351 350 351 350 350 345 347 348 352 350 351 352 353 352 357 351 356 354 353 351 349
325 331 331 332 335 334 332 337 332 334 334 335 333 334 334 334 338 338 337 336 341 343 347 350 348 347 348 353 353 348 348 349 349 349 353 351 349 347 346 349 350 351 347 345 347 349 354 353 352
326 327 333 335 334 335 337 333 332 333 337 337 335 334 332 331 335 336 335 341 342 342 348 346 343 345 349 348 348 350 347 345 348 348 353 350 349 345 347 345 347 350 344 343 345 346 350 345 343
327 326 327 333 332 333 330 331 331 333 335 334 333 332 332 332 333 332 334 341 342 346 346 347 349 350 348 345 344 344 347 346 349 352 349 350 350 348 338 343 349 346 347 345 347 347 345 344 341
331 320 325 329 332 331 334 327 328 333 337 332 332 332 333 334 333 333 334 339 345 346 348 348 348 350 349 346 341 345 348 349 349 348 341 347 347 348 348 347 347 347 347 345 346 347 349 343 345
322 322 314 323 326 333 329 319 328 331 334 332 331 332 332 334 333 336 336 335 345 347 346 348 350 350 346 348 345 350 348 349 351 353 348 350 347 342 341 350 344 348 351 342 343 347 341 342 339
309 305 313 318 327 329 326 321 331 334 333 330 330 331 331 332 334 336 336 336 341 345 345 344 343 346 345 347 351 346 349 352 349 350 350 353 354 350 347 352 343 351 353 348 344 344 344 342 341
302 305 309 313 320 327 319 317 328 331 331 330 330 331 330 332 332 334 336 338 339 343 340 347 346 347 345 347 346 349 350 346 348 348 346 351 354 354 350 349 350 351 348 343 342 343 345 340 341
308 308 309 318 323 320 317 316 321 328 329 330 329 329 329 330 334 337 336 339 339 344 341 346 346 349 344 345 346 345 342 344 347 349 348 352 347 355 353 349 347 347 346 343 342 347 340 347 339
307 303 306 317 325 322 317 315 318 320 326 329 328 329 330 330 332 336 334 337 340 341 341 347 348 348 345 344 347 345 344 349 349 351 351 353 350 354 354 348 347 347 347 349 347 345 344 343 341
304 301 303 312 318 323 320 318 317 323 331 330 331 333 332 332 332 333 334 334 340 341 343 347 348 348 347 346 349 347 347 345 340 343 347 354 354 355 354 348 351 346 348 346 345 343 340 342 336
297 307 308 315 311 306 320 303 316 325 325 327 328 330 331 332 334 334 335 337 339 341 345 347 350 349 347 351 348 345 342 342 343 343 347 354 356 353 354 354 351 346 344 343 350 352 346 344 337
303 308 309 313 307 307 311 307 312 323 321 324 329 330 332 333 335 334 337 339 341 343 345 347 351 349 344 349 350 346 342 348 345 347 351 351 352 354 355 352 353 348 346 346 345 347 348 348 345
310 307 308 310 307 300 303 304 308 318 321 326 327 327 333 335 336 334 338 340 340 343 344 346 350 348 347 348 351 347 342 335 336 342 343 348 350 354 355 355 352 351 347 347 345 347 347 346 349
304 300 294 292 294 298 305 304 309 320 327 325 325 325 328 335 335 334 336 340 341 340 343 345 346 349 351 348 350 349 344 339 335 343 344 345 348 349 348 352 351 352 352 349 348 350 347 348 343
301 299 294 289 291 295 301 303 308 320 323 324 323 329 330 332 336 337 337 339 340 340 342 344 344 347 350 348 349 349 349 346 345 344 345 347 344 349 351 354 353 352 351 351 351 348 350 349 345
301 299 304 297 296 293 302 310 317 318 320 323 323 327 327 333 334 337 338 336 341 339 340 344 346 348 350 349 351 351 349 349 345 341 344 349 345 352 350 351 353 353 353 352 352 347 347 348 348
301 307 297 297 291 291 304 306 308 315 317 314 312 314 319 322 331 332 332 333 339 342 342 347 349 349 351 352 354 354 353 352 352 351 350 348 348 348 346 343 345 350 352 356 351 349 348 347 347
302 300 302 299 297 292 295 299 315 315 313 309 309 310 314 316 319 324 328 329 331 336 340 341 341 344 348 352 352 352 353 354 352 352 352 349 347 343 343 342 339 344 350 352 350 349 349 347 346
302 302 303 294 293 299 301 300 318 315 313 310 309 309 311 315 316 318 319 322 325 331 334 335 337 338 338 341 347 352 354 354 353 352 352 353 349 347 343 342 338 341 348 351 351 349 349 349 347

GFSSGP_sfc_thetae_084.txt.gz
Theta_e
352 350 346 337 321 318 314 316 326 324 325 329 322 324 321 326 323 315 340 347 349 351 356 359 363 361 361 363 362 361 362 361 361 362 360 361 361 362 363 363 363 363 364 363 362 361 361 360 360
348 345 339 330 316 311 312 324 321 326 330 333 333 331 328 326 336 337 340 348 350 353 354 358 363 364 364 363 362 361 361 361 362 362 361 361 362 362 363 362 362 363 364 363 362 361 361 359 358
349 345 329 324 319 309 310 323 325 330 334 330 330 335 332 330 338 339 346 350 352 353 356 356 363 365 362 362 361 361 361 361 360 361 361 361 361 362 362 362 363 362 362 365 362 362 361 359 358
341 341 335 322 317 319 319 326 328 329 331 333 332 327 336 342 339 344 349 351 349 353 355 361 363 362 362 361 361 361 362 361 361 360 361 360 361 362 362 363 362 362 363 363 361 361 360 360 359
341 337 322 321 320 323 326 327 329 329 332 332 332 327 330 340 346 347 347 348 349 352 356 357 365 363 363 361 362 361 361 360 361 361 361 361 361 362 362 362 361 362 362 362 360 361 361 359 363
331 333 318 317 318 322 325 329 329 331 330 331 329 328 329 342 343 343 345 346 350 352 356 357 362 362 362 361 362 361 360 361 360 359 360 361 361 362 362 362 362 362 362 362 360 360 360 359 361
330 326 321 321 318 319 324 332 330 328 329 328 333 325 332 338 340 343 346 346 350 354 353 354 355 359 362 362 361 360 361 360 360 360 360 361 361 361 361 362 362 362 362 361 360 359 359 360 361
336 329 323 323 319 318 327 332 336 330 328 335 336 325 327 334 342 344 344 347 349 351 354 353 352 353 353 355 361 361 361 360 360 359 360 361 361 361 361 364 363 362 361 360 360 358 359 359 360
341 323 317 319 319 321 331 329 336 340 331 332 334 333 336 341 342 339 340 343 345 349 349 351 350 350 351 352 356 360 361 360 359 358 361 357 349 351 355 361 361 360 359 359 359 358 357 357 356
331 318 320 328 327 325 330 331 333 333 330 330 330 337 341 342 339 336 339 340 342 345 346 348 348 348 349 355 352 351 352 350 350 349 350 348 346 348 354 359 361 360 358 358 358 357 357 355 346
326 322 329 329 329 330 330 331 334 329 327 329 327 332 337 338 338 339 341 342 343 345 346 347 348 348 348 350 350 349 349 348 342 344 345 345 350 350 350 350 351 350 355 351 353 349 350 350 349
321 328 330 330 332 330 330 333 328 334 334 333 334 336 336 335 336 338 338 340 343 343 345 347 347 346 344 348 348 347 347 347 345 343 346 345 346 346 345 347 348 348 345 345 346 346 349 351 351
327 328 333 334 333 334 336 332 331 332 338 336 335 336 335 336 337 335 335 339 343 343 345 346 345 344 347 349 347 345 346 346 345 348 350 349 342 341 344 345 346 349 341 339 343 344 347 342 343
330 327 332 333 333 335 330 331 331 333 337 333 332 333 336 338 337 334 337 340 342 345 345 342 343 345 347 346 344 343 344 343 346 347 348 347 345 343 341 342 346 346 343 341 343 345 343 340 340
328 321 327 329 332 331 333 326 327 333 335 330 330 330 332 336 338 334 340 340 344 345 344 345 347 345 342 341 343 344 343 346 347 346 344 349 348 345 340 341 343 342 342 345 344 345 343 340 342
323 320 313 326 330 331 327 317 330 334 332 328 329 330 330 330 333 340 341 341 345 344 344 348 349 345 342 338 343 345 346 348 348 347 345 347 348 346 344 344 343 346 349 342 343 341 340 341 337
314 309 314 320 331 329 325 318 330 333 333 328 329 328 331 330 331 339 343 344 344 344 344 342 346 344 345 344 345 345 348 347 348 348 348 349 349 341 343 347 343 349 347 341 342 341 341 341 339
297 302 310 316 326 328 322 321 327 332 333 328 329 328 329 329 329 337 342 345 345 344 344 343 344 342 344 346 343 345 344 345 347 346 347 348 351 352 346 344 346 351 345 342 340 342 343 338 337
303 302 305 318 325 320 320 318 323 329 331 329 328 328 328 330 331 333 341 344 343 342 342 340 342 341 342 343 343 342 340 340 346 348 346 347 347 352 345 348 346 345 343 341 341 340 338 341 337
303 300 303 321 324 319 319 319 323 326 329 330 329 327 328 330 330 331 335 339 339 337 342 342 344 341 340 341 344 343 342 345 346 348 347 349 348 350 351 348 345 344 344 344 345 341 341 341 339
300 297 300 312 320 320 318 314 316 322 325 331 331 330 330 330 330 330 333 335 338 337 343 342 345 341 341 343 345 344 345 341 341 343 346 351 350 352 347 348 349 346 346 344 342 339 337 338 335
294 304 306 314 309 303 315 298 316 318 320 327 327 327 328 331 333 332 332 335 337 338 344 345 346 343 342 346 343 341 340 338 339 342 345 351 351 350 351 349 347 345 342 342 346 349 345 340 337
300 305 305 311 307 311 310 306 309 320 320 323 326 327 328 332 333 333 331 335 337 341 344 345 345 345 344 347 345 342 341 345 343 345 344 348 349 350 351 351 347 342 341 342 342 346 344 346 342
306 304 308 306 304 296 306 306 304 316 320 324 329 330 331 331 333 335 336 338 337 341 343 347 345 344 341 345 347 344 340 341 339 341 343 346 347 349 352 351 348 349 346 346 342 343 344 343 344
301 297 291 290 294 294 303 306 306 319 326 326 328 330 331 332 334 333 335 337 338 339 342 347 345 342 342 343 346 345 341 335 337 341 343 343 345 346 346 349 348 346 346 345 345 347 345 344 340
296 297 292 288 289 294 306 302 307 321 328 328 329 329 328 329 335 333 335 337 338 339 342 343 346 343 344 344 346 346 343 341 338 341 344 344 345 346 349 350 350 349 349 348 347 345 346 345 345
296 294 300 295 292 293 303 306 313 318 316 317 319 323 325 332 334 336 336 339 340 340 342 342 345 346 345 345 345 346 346 344 343 343 341 342 344 347 349 352 351 351 348 347 349 344 344 346 344
298 302 295 293 288 287 300 302 302 311 308 311 312 316 318 321 325 331 333 335 339 342 342 342 343 346 347 346 346 348 346 347 345 343 339 344 343 350 347 349 350 350 350 349 349 346 344 343 343
299 296 298 296 293 290 293 298 316 310 309 307 308 313 314 318 321 323 328 334 338 339 340 340 340 342 339 341 341 347 349 348 347 347 347 348 346 347 346 344 343 344 346 350 349 346 346 345 343
302 297 297 295 294 297 297 302 316 311 311 309 308 310 313 316 318 320 321 327 332 333 337 338 338 337 338 340 341 343 345 347 348 348 348 347 345 344 343 340 338 338 343 347 348 346 348 346 344

GFSSGP_sfc_thetae_087.txt.gz
Theta_e
351 349 345 336 320 318 313 316 324 323 321 319 315 317 317 322 320 313 338 345 349 352 355 358 362 359 360 361 360 360 359 359 358 360 361 361 362 362 362 362 361 361 363 361 361 360 360 360 359
348 345 339 329 315 309 312 322 321 327 328 319 317 328 328 325 336 334 338 347 351 353 354 356 362 363 362 361 360 360 359 360 361 359 360 360 362 363 362 362 362 362 363 362 361 359 358 358 358
345 344 327 321 315 310 311 322 325 330 329 318 326 334 332 329 336 337 344 348 352 353 354 354 361 363 361 361 360 360 360 360 360 360 360 361 361 361 362 362 363 363 362 361 361 359 358 357 356
340 338 336 320 314 317 318 325 329 329 332 334 332 326 335 341 338 343 347 351 351 353 352 360 362 362 361 360 360 361 360 360 359 359 360 360 361 362 362 362 362 362 361 361 361 360 359 358 358
342 337 322 319 317 321 324 328 329 327 331 331 331 326 329 340 345 347 347 351 350 351 354 357 362 362 361 361 361 361 360 359 360 359 360 361 362 361 362 361 362 362 361 361 360 359 359 360 361
331 334 319 314 318 322 326 330 328 329 330 330 329 327 328 342 343 345 348 349 353 353 354 356 362 362 360 361 361 360 360 360 360 360 360 361 361 362 361 361 362 362 360 360 360 359 360 361 360
329 327 320 319 318 320 324 332 328 328 327 327 333 324 332 338 343 345 346 349 352 354 353 352 354 358 361 361 359 360 360 359 359 360 360 360 361 361 361 360 360 362 360 359 360 359 359 360 361
335 328 322 321 316 317 327 331 333 329 327 335 335 324 326 336 342 343 343 347 349 351 352 350 351 353 352 353 360 360 359 359 359 359 360 360 360 361 361 359 362 362 359 359 358 358 356 358 360
341 322 315 319 318 321 329 329 336 339 330 332 334 333 336 339 342 340 342 344 345 350 347 348 349 349 350 352 356 358 359 358 358 359 360 354 349 351 355 359 360 359 359 358 358 357 357 358 360
328 316 319 327 325 324 330 331 333 329 327 328 331 335 338 339 337 336 336 339 340 343 346 347 347 347 348 354 350 349 353 349 349 350 347 346 346 349 355 357 359 358 358 357 356 355 356 352 346
327 320 328 326 328 331 329 330 333 326 324 328 327 331 335 335 335 335 336 338 339 344 346 346 345 347 347 349 349 348 346 345 344 345 345 344 347 349 350 349 350 349 354 349 350 349 349 347 345
320 327 331 329 332 331 329 333 330 330 332 333 335 336 335 334 334 337 338 340 342 343 343 345 346 345 344 348 347 346 345 343 339 342 344 345 345 345 345 346 347 347 344 343 344 344 346 348 349
324 329 333 331 331 333 334 330 329 332 338 336 338 337 335 335 336 340 341 342 343 341 343 345 345 344 343 347 346 345 345 344 343 345 345 345 342 340 342 344 344 346 341 339 341 343 344 342 342
328 331 330 332 329 334 330 329 331 332 336 333 334 334 335 335 337 338 339 340 340 341 343 344 344 344 345 345 343 343 343 343 344 346 347 345 340 341 342 341 343 344 342 340 340 343 342 338 338
329 324 326 330 332 330 333 325 326 334 334 331 332 333 334 336 335 334 337 340 342 342 343 342 342 344 344 344 343 342 343 344 345 344 347 346 345 342 338 339 342 341 341 343 343 343 340 339 339
321 320 313 325 330 332 327 318 328 335 333 329 331 333 333 336 335 333 338 341 343 342 341 342 348 344 340 340 342 342 344 346 345 341 344 347 348 345 343 342 342 345 346 341 340 339 338 338 336
305 307 311 321 330 328 325 319 329 334 332 325 328 330 333 333 336 337 341 342 344 342 341 343 342 339 338 342 343 342 345 346 347 344 346 345 348 345 344 344 343 346 345 338 340 339 340 339 337
297 304 310 317 325 326 322 321 327 331 332 326 326 328 329 330 332 337 340 343 343 342 343 343 341 341 340 343 343 343 343 344 345 345 346 348 349 344 345 346 341 348 344 341 339 339 340 337 336
302 300 301 317 327 324 321 320 325 329 331 326 326 326 326 328 334 339 341 343 342 342 340 341 340 340 342 340 340 339 339 339 344 345 345 346 347 349 345 344 345 344 342 340 341 340 337 338 336
302 299 306 319 323 322 320 319 323 326 329 329 327 326 327 327 333 338 339 341 341 340 340 338 340 339 341 341 342 342 340 341 344 346 345 346 348 348 348 345 342 342 342 341 343 341 338 337 337
296 296 300 312 318 320 319 315 319 325 327 331 333 331 329 327 329 335 338 339 340 339 339 339 340 338 339 342 344 343 342 340 341 343 345 347 349 349 349 346 345 343 345 342 341 339 336 333 335
292 301 306 316 309 305 315 302 312 318 319 324 330 329 328 327 329 334 337 337 337 338 341 340 341 337 338 343 342 341 339 337 339 340 344 347 350 349 349 347 347 343 340 342 344 349 342 338 336
299 302 304 315 305 306 309 301 304 316 314 319 327 327 329 330 328 332 335 337 338 340 342 342 342 338 340 342 341 340 338 339 342 344 340 345 347 349 350 348 344 342 339 341 342 343 342 343 340
304 301 303 302 300 296 303 303 302 312 315 320 327 328 328 330 330 332 335 337 338 340 343 343 342 340 342 343 341 340 339 340 339 339 341 344 345 347 349 349 345 343 340 341 341 344 342 341 343
298 295 291 292 293 294 301 303 301 315 322 325 325 328 330 331 331 331 333 334 336 337 342 343 341 339 341 343 343 343 340 340 339 340 341 344 343 344 346 347 345 345 344 345 343 343 344 341 338
295 294 290 287 289 293 303 298 304 317 324 327 329 330 330 332 332 333 333 335 337 338 341 343 341 340 339 340 343 343 341 337 336 340 342 342 343 345 347 348 347 346 347 344 344 345 345 344 344
294 293 298 292 291 291 300 303 313 316 313 319 322 324 323 328 333 333 335 337 337 338 340 343 343 341 341 340 342 343 341 340 337 338 342 343 344 345 346 348 349 348 347 345 346 344 342 343 343
298 300 293 292 287 286 298 298 301 312 310 313 316 318 321 324 325 330 333 337 338 338 341 342 345 344 344 341 341 343 343 343 342 342 340 340 342 343 346 348 349 348 347 345 345 344 343 342 341
296 295 295 294 292 289 292 297 309 310 309 308 312 314 318 320 323 325 328 337 339 341 342 342 341 343 340 343 343 344 344 344 343 343 342 340 341 344 348 346 346 347 346 347 346 345 344 342 341
296 292 295 293 291 293 294 297 312 310 309 309 309 313 316 318 320 322 325 329 335 338 340 341 340 338 338 339 340 342 344 345 344 344 345 345 346 344 343 344 342 342 342 345 346 346 347 344 342

GFSSGP_sfc_thetae_090.txt.gz
Theta_e
350 348 344 336 319 318 313 315 323 315 314 315 314 313 313 323 319 310 336 344 350 353 354 356 362 357 358 358 360 359 357 357 360 360 361 361 361 361 362 362 361 363 363 361 359 360 360 360 361
347 345 337 328 315 309 311 321 319 323 324 315 314 322 327 325 334 334 337 347 352 353 354 355 362 361 359 360 359 359 359 359 359 360 360 361 362 362 361 361 361 364 361 360 359 360 359 359 357
346 343 328 322 314 309 311 321 325 328 319 314 317 334 332 328 334 337 343 350 353 352 353 354 361 361 360 359 360 360 360 359 359 359 360 361 361 362 361 361 360 360 360 361 359 359 358 358 358
340 337 336 317 312 317 320 324 329 329 319 325 331 326 335 340 336 342 348 352 351 351 350 360 362 361 360 360 360 359 360 359 358 360 360 361 361 362 361 361 361 361 361 358 359 359 358 358 356
341 336 322 316 313 320 326 329 330 327 331 330 331 325 329 340 344 345 349 352 349 349 353 356 363 361 360 359 359 359 359 359 359 359 360 361 361 361 361 361 361 361 361 361 359 359 359 360 360
331 333 318 314 316 321 326 330 330 328 330 330 327 326 330 342 342 345 349 350 352 351 353 356 360 360 361 360 358 359 359 359 358 359 360 360 360 361 362 362 362 361 360 360 358 360 360 360 358
328 326 319 319 317 319 325 331 328 327 327 327 332 324 333 337 343 346 348 351 353 353 352 354 355 357 360 359 358 358 358 359 359 359 360 360 361 360 361 362 362 360 359 359 358 358 358 358 359
333 329 321 320 316 318 328 330 334 329 326 335 334 322 327 336 342 344 348 348 349 351 351 351 352 352 352 353 360 359 359 358 359 359 359 360 361 361 360 363 362 360 359 359 357 357 360 360 359
340 321 317 319 317 321 329 327 335 337 328 332 334 332 336 340 341 342 343 345 347 350 348 349 350 349 351 353 356 357 358 359 359 357 359 354 352 354 355 362 361 360 358 357 357 357 356 358 359
326 315 319 327 324 325 329 329 331 328 327 327 330 335 338 339 337 337 338 339 343 344 347 347 348 348 350 354 351 351 352 350 350 348 347 349 351 356 358 358 360 360 358 357 356 355 357 352 351
327 319 328 325 327 331 331 330 333 326 323 326 326 331 335 336 335 334 336 339 340 343 347 346 346 347 348 350 349 347 346 346 347 347 346 348 351 352 352 351 352 351 354 351 351 350 351 349 347
318 327 330 327 331 331 329 333 326 331 329 332 333 334 335 333 333 333 335 337 339 343 345 345 346 346 347 349 347 346 345 342 343 345 347 347 347 347 348 348 350 350 346 347 347 349 350 350 352
322 328 330 332 331 331 333 329 327 328 332 335 335 334 333 333 334 336 337 339 341 341 342 344 346 345 345 347 346 346 346 342 343 345 348 347 345 344 346 347 348 349 344 345 346 348 348 344 345
328 329 329 331 331 333 329 329 328 330 335 333 333 332 332 333 335 338 339 339 340 341 342 344 345 345 344 345 345 345 346 346 346 349 349 347 344 345 346 344 347 347 348 346 346 347 345 344 343
327 322 328 327 330 330 332 324 325 333 334 332 332 332 333 334 337 338 339 339 341 340 343 343 344 345 344 345 345 344 346 346 347 347 348 347 347 345 344 344 346 347 347 347 348 348 345 344 343
320 319 314 327 329 330 328 317 329 334 331 329 331 332 333 335 337 338 339 340 341 342 342 343 347 344 344 344 344 344 345 348 346 345 348 350 350 349 347 347 346 349 351 346 346 345 345 343 343
309 305 310 320 329 328 326 319 330 332 330 328 329 331 332 334 331 333 337 340 342 342 342 341 345 343 342 342 344 344 346 348 347 345 349 349 350 348 349 348 347 350 349 344 345 345 345 345 342
300 304 308 315 322 326 323 320 327 331 329 327 328 330 331 332 332 333 338 341 343 342 342 343 342 341 340 343 343 345 345 347 349 347 350 351 352 346 351 351 349 353 349 346 347 346 346 345 342
303 302 304 315 325 323 321 320 324 327 329 325 327 328 330 331 335 336 339 342 342 341 341 341 339 339 341 341 341 341 341 343 346 348 347 350 351 352 350 348 350 349 349 346 349 348 344 345 344
300 298 308 318 326 321 316 318 323 327 329 327 325 325 327 330 332 335 338 341 341 340 341 340 339 340 341 342 342 343 342 344 347 349 348 350 350 352 350 348 348 348 348 347 349 347 344 343 343
295 295 298 311 318 321 318 315 319 325 329 331 332 328 327 327 330 334 337 338 340 339 340 340 340 341 342 343 344 343 344 343 344 347 349 350 351 350 353 350 349 349 350 348 349 345 345 341 342
293 300 306 316 311 305 317 304 314 320 322 325 329 328 326 327 333 336 336 337 338 340 342 341 340 340 341 344 343 343 341 340 342 345 348 350 353 352 352 351 350 349 347 350 350 352 348 345 343
299 302 304 315 305 306 309 302 304 318 317 321 325 330 327 326 332 335 337 338 340 341 341 341 341 338 340 343 344 342 341 342 344 345 345 349 352 352 353 351 350 348 347 348 350 350 350 349 346
304 299 302 303 301 297 303 303 301 310 315 321 325 329 328 326 329 336 339 340 339 340 341 341 340 338 340 342 342 342 341 342 343 344 343 346 350 351 352 351 349 348 346 347 349 352 349 348 350
297 292 291 291 294 292 299 302 301 314 319 321 323 328 329 328 328 333 335 336 338 338 342 343 340 338 340 342 342 341 342 344 343 343 344 345 347 349 351 352 350 349 350 349 348 351 352 348 347
293 293 289 287 289 294 303 297 303 315 320 327 328 328 329 329 329 331 334 336 338 338 342 342 341 340 341 343 344 343 343 343 342 344 345 346 347 349 352 352 352 351 350 348 349 350 350 351 350
293 290 294 290 289 292 297 303 312 317 318 322 322 324 327 331 332 332 334 336 337 339 340 342 342 341 341 343 344 344 343 341 340 341 346 347 348 349 351 351 351 351 351 350 350 349 349 350 349
296 299 292 290 286 285 297 299 299 311 313 318 318 320 323 326 328 333 334 335 337 339 341 344 343 341 342 342 342 345 344 343 343 344 343 345 347 349 348 350 350 350 351 351 350 350 349 349 347
295 294 292 292 291 290 291 297 309 311 314 314 316 319 321 323 325 327 330 337 338 340 342 343 345 345 342 343 344 345 345 346 347 345 345 345 345 345 346 348 350 351 349 351 349 350 349 348 347
294 292 293 291 290 292 293 295 310 310 310 314 314 318 319 321 322 325 328 331 338 339 341 341 341 341 341 341 342 344 347 347 348 345 347 349 347 347 346 348 349 349 350 350 351 350 351 348 347

GFSSGP_sfc_thetae_093.txt.gz
Theta_e
352 348 348 342 322 323 316 318 325 314 313 317 317 314 320 327 322 312 342 348 352 353 356 358 361 358 358 360 360 357 358 361 361 361 361 362 362 361 360 360 362 362 362 360 361 361 361 360 360
349 345 342 335 318 313 315 323 314 318 318 319 318 321 327 328 335 336 342 350 354 354 356 353 362 362 361 360 361 360 359 360 360 361 361 361 361 361 361 361 362 362 362 361 360 360 358 357 354
345 345 334 325 315 313 315 324 327 326 320 317 327 335 333 330 335 340 347 353 355 355 353 359 362 361 361 359 359 359 360 359 359 360 361 361 361 360 361 360 360 362 362 362 360 360 360 359 359
342 341 339 317 311 319 321 327 330 320 317 324 334 329 336 341 338 345 351 354 353 352 353 361 361 361 361 361 360 360 360 359 360 360 361 361 361 361 360 362 362 361 360 360 358 358 359 357 356
345 339 318 315 315 321 328 331 332 319 316 325 333 327 330 341 348 348 351 352 348 349 359 360 362 360 360 360 360 359 358 359 359 360 360 361 361 362 361 362 361 362 361 360 360 360 360 360 360
332 334 319 312 315 322 329 332 332 330 329 330 330 328 330 345 345 348 352 351 348 354 355 357 360 359 361 359 359 359 360 359 360 360 361 361 361 360 360 361 362 362 360 360 360 360 360 359 358
328 328 319 317 318 319 327 334 331 330 331 329 334 325 333 339 346 350 352 352 349 354 355 356 356 360 359 358 358 359 359 360 360 360 361 360 360 360 361 360 361 361 360 359 359 359 359 359 356
333 331 321 321 316 320 329 330 334 332 329 337 334 324 327 339 348 351 352 350 349 354 354 357 359 359 357 357 359 359 359 359 360 361 361 362 361 361 361 361 362 360 359 358 359 359 359 359 358
339 324 318 319 319 324 332 329 335 336 331 333 335 332 338 344 347 347 348 347 347 351 354 355 354 357 360 359 358 359 359 360 361 361 360 360 359 360 361 362 361 359 357 358 358 358 359 359 359
331 326 321 327 328 326 331 331 331 329 330 331 334 339 342 343 343 342 342 342 344 347 352 355 354 355 357 357 359 360 359 359 358 359 361 360 361 362 358 361 360 359 358 358 358 358 357 354 359
330 324 329 328 331 333 330 330 332 328 326 331 331 335 339 340 341 341 339 343 344 349 350 353 355 358 358 360 356 354 355 355 356 357 358 361 360 359 358 358 356 356 355 353 353 354 355 353 355
322 329 331 330 334 333 328 332 328 329 330 335 336 338 339 339 338 337 337 342 344 348 350 352 354 356 357 356 353 353 353 354 353 354 358 358 355 356 357 356 357 354 354 355 357 357 357 356 357
325 329 331 333 334 332 333 329 329 330 334 337 338 339 337 336 335 336 337 342 345 345 349 350 353 356 356 356 354 353 352 352 353 355 357 356 353 354 357 357 357 355 355 355 357 357 354 353 353
329 331 331 333 332 332 327 329 329 331 335 335 335 335 337 337 337 336 337 340 343 345 347 349 351 355 356 355 357 356 354 355 354 354 355 357 354 356 355 355 356 356 356 357 358 356 354 352 354
331 326 329 330 332 330 332 323 324 332 334 332 333 335 337 338 340 338 338 339 344 346 348 348 350 353 354 356 357 356 356 355 356 356 358 354 357 355 357 355 354 355 360 359 360 356 356 352 351
324 326 319 328 330 330 329 318 329 333 332 331 332 334 335 338 340 342 341 342 346 347 349 350 348 351 352 355 356 355 356 357 355 357 357 357 359 358 358 355 356 360 358 357 356 354 353 352 353
318 315 317 321 330 328 325 318 330 333 332 330 332 333 335 337 341 344 343 345 347 349 351 350 352 352 353 356 355 356 356 358 356 357 358 360 359 358 359 358 357 361 354 355 355 355 357 354 353
312 313 317 318 325 326 323 322 328 331 332 330 332 334 335 335 339 343 345 346 348 350 352 352 352 354 355 355 356 355 355 358 358 356 358 358 359 357 361 359 359 363 360 357 356 357 357 355 352
317 315 312 317 326 324 322 322 325 329 330 329 332 333 333 334 341 343 344 346 348 350 351 352 353 354 352 351 351 351 350 355 356 355 359 359 361 358 363 358 359 360 359 357 360 358 356 352 353
309 310 309 322 326 323 321 319 323 329 328 331 331 333 333 336 339 340 343 345 347 349 351 353 353 354 353 353 353 354 354 354 357 358 358 359 360 361 361 360 358 359 356 359 359 358 353 352 352
306 306 317 316 320 320 317 313 319 326 332 331 333 335 336 336 337 339 341 344 346 348 350 352 354 354 354 355 354 354 354 354 354 355 355 356 359 359 362 360 359 360 360 356 359 357 356 348 353
304 308 312 319 316 309 318 303 314 322 325 329 330 332 334 336 338 340 341 343 344 347 351 353 354 353 353 356 354 355 354 355 352 353 356 357 359 358 360 360 360 362 360 360 360 361 358 357 351
306 307 310 319 314 314 311 307 311 321 320 325 331 331 332 334 337 339 341 344 345 348 349 351 353 353 353 355 356 353 357 353 353 354 357 359 361 360 360 360 361 359 357 361 361 361 362 357 354
309 309 312 315 313 303 312 309 308 316 321 326 330 333 333 333 336 340 339 343 345 347 348 349 352 352 355 354 355 356 354 356 352 353 352 354 357 359 361 359 361 359 358 359 360 361 360 359 358
306 302 298 299 300 298 309 311 312 321 323 326 327 332 335 333 335 339 339 341 344 345 345 343 351 351 352 353 354 355 355 356 357 356 353 353 356 360 359 361 360 357 359 358 359 363 361 358 355
304 303 298 294 297 301 309 304 311 320 324 329 331 333 336 335 335 338 341 341 338 340 345 345 348 351 352 351 353 356 357 352 354 356 356 354 358 363 363 362 361 360 360 359 360 356 358 362 359
301 299 307 302 302 302 307 312 317 321 322 327 329 331 333 335 333 336 341 343 343 339 344 348 348 350 350 350 352 354 355 355 354 356 358 357 359 356 360 361 361 361 361 360 358 355 358 360 359
305 307 300 301 296 296 304 307 311 317 318 321 324 325 329 333 334 336 339 342 344 342 341 346 345 349 351 350 351 356 357 357 356 355 353 356 358 358 359 359 360 360 361 361 360 357 358 359 357
303 302 303 304 302 298 298 305 318 320 321 319 321 324 325 328 331 333 338 340 342 341 341 344 346 350 349 345 348 352 356 356 356 355 356 356 356 356 357 358 357 359 360 359 360 360 359 357 358
304 304 305 299 300 305 305 305 317 319 323 323 322 325 327 327 328 330 334 339 341 342 342 343 346 349 349 350 346 346 353 355 356 356 356 357 356 357 357 357 357 357 357 361 360 357 355 357 356

GFSSGP_sfc_thetae_096.txt.gz
Theta_e
352 349 350 347 329 329 318 320 321 317 319 323 322 319 324 331 323 318 344 350 351 351 355 358 360 357 359 359 357 359 361 362 362 362 362 362 361 360 362 362 359 361 361 361 361 361 361 359 356
346 347 348 339 323 316 318 322 317 320 322 323 322 329 329 328 333 337 343 351 351 353 355 352 362 360 361 361 359 359 360 360 361 362 362 362 362 362 364 362 361 361 362 362 359 358 356 358 358
348 347 341 324 322 316 318 320 323 321 322 324 324 337 336 328 336 341 350 352 353 353 351 359 360 361 360 360 361 360 360 360 360 361 362 362 361 362 362 362 361 361 361 360 360 361 360 359 359
346 347 334 320 321 324 325 326 324 320 323 331 334 331 337 338 340 347 353 353 353 351 355 360 360 359 359 361 361 360 360 361 361 361 360 361 362 362 361 362 361 360 360 359 360 360 360 358 360
349 337 322 318 321 326 330 330 324 321 328 334 335 331 330 341 348 351 352 352 349 350 355 359 361 361 361 361 360 360 360 360 360 361 361 362 361 361 362 362 361 361 362 361 361 362 361 362 360
337 336 319 318 320 327 331 335 326 323 325 333 332 330 332 345 347 350 351 349 348 350 353 357 360 360 360 360 360 360 361 361 361 361 361 360 360 361 362 362 362 361 361 362 361 361 360 358 357
333 331 324 320 320 323 329 338 332 325 327 328 335 328 336 341 349 350 351 348 349 350 353 355 357 360 360 359 360 360 360 361 361 360 360 361 361 362 362 363 362 361 360 360 360 360 360 356 354
338 332 321 321 319 321 332 335 337 334 333 340 339 328 330 342 349 350 350 345 348 352 354 354 356 356 357 357 360 360 360 361 361 362 361 365 361 361 361 363 363 360 359 360 359 359 360 358 355
341 331 319 322 319 326 335 333 339 340 336 336 337 332 340 346 350 348 345 343 346 349 351 351 351 356 360 359 359 359 360 362 361 361 360 360 358 360 359 361 360 359 359 359 359 359 360 361 359
334 329 323 331 329 331 334 334 335 334 334 334 332 339 343 345 346 343 340 340 343 347 348 348 352 352 354 349 359 359 357 358 358 360 362 361 361 362 356 360 359 358 358 358 359 359 357 358 357
333 325 332 331 333 336 334 334 336 334 331 335 332 336 341 342 343 341 340 341 342 348 347 348 353 356 354 353 351 354 354 354 358 362 360 359 355 354 353 354 355 356 357 354 357 356 356 356 355
326 332 333 333 336 334 333 336 332 334 333 338 338 340 341 341 340 339 339 342 344 347 347 349 353 358 356 354 351 351 351 353 352 355 358 356 352 353 354 353 355 356 355 358 359 355 358 359 360
329 331 333 335 336 333 335 331 331 332 336 339 338 340 339 340 340 340 340 343 345 345 345 348 354 358 359 356 353 353 353 350 350 354 358 355 354 356 356 359 356 357 356 357 357 355 355 355 356
332 331 333 335 335 333 330 330 332 333 337 336 337 338 339 338 339 339 339 341 344 345 344 350 353 358 358 357 359 355 352 352 353 354 359 360 356 358 356 357 356 355 356 356 356 356 354 353 352
331 327 330 332 332 330 333 326 328 334 336 335 335 336 337 338 339 338 339 343 345 345 347 351 353 356 358 359 358 355 353 353 353 355 360 360 359 362 361 357 357 356 360 362 358 356 355 350 350
328 328 321 329 333 332 328 320 328 334 333 332 333 336 337 339 338 339 341 344 346 346 348 351 349 353 356 358 358 356 357 356 355 355 357 360 363 363 361 355 355 360 362 359 355 353 350 350 350
322 318 321 324 331 329 325 319 333 333 331 330 333 335 336 337 338 341 343 345 347 349 350 351 352 353 356 360 357 358 361 358 357 358 357 362 361 362 359 357 359 363 359 357 356 353 355 352 352
313 319 323 323 326 324 322 318 329 331 330 331 333 334 336 336 338 343 345 347 348 350 353 353 354 357 359 359 360 357 356 358 358 358 358 362 361 362 361 358 361 363 360 355 355 358 356 356 352
319 316 320 325 329 322 321 321 325 330 330 331 332 334 335 336 341 344 345 347 349 349 352 355 355 360 361 358 352 352 351 355 355 357 362 362 361 361 365 357 360 363 359 360 363 358 356 349 353
319 319 319 325 329 326 320 320 326 329 329 332 331 332 334 336 339 343 345 347 348 350 351 354 357 360 360 357 358 355 355 355 357 358 362 361 361 363 362 362 359 362 356 363 363 361 352 351 354
315 317 317 320 323 324 321 316 319 325 329 333 334 335 336 338 339 342 344 346 348 350 353 355 358 360 360 360 358 361 362 360 361 357 357 359 361 362 363 362 362 361 361 355 362 360 359 346 354
311 314 320 322 318 309 318 305 314 318 322 328 332 335 334 338 341 343 344 345 347 349 354 357 359 360 360 362 357 357 362 356 359 355 357 358 362 360 361 363 362 363 360 361 361 360 360 360 350
311 313 316 319 317 315 314 312 313 318 317 327 334 334 335 338 339 341 344 347 349 350 352 356 359 361 360 361 360 354 352 361 352 355 364 362 363 362 360 364 363 364 358 364 364 363 364 358 354
313 312 314 318 316 308 312 310 309 315 319 324 333 336 336 337 339 342 345 348 349 350 352 354 358 360 360 360 360 359 355 354 361 359 355 355 357 360 361 362 363 365 362 362 361 366 363 362 360
312 310 302 302 304 305 316 311 312 318 326 327 331 334 337 338 339 340 343 345 348 350 351 353 356 357 359 358 358 359 358 358 356 360 360 355 362 360 361 364 364 360 364 362 363 362 363 361 358
310 310 303 297 301 304 311 307 313 326 329 331 335 335 339 340 339 340 342 341 344 350 350 348 353 357 358 358 360 361 361 353 357 356 355 363 358 355 362 360 360 362 362 362 364 358 355 359 357
309 306 313 307 308 305 308 312 320 325 327 331 334 335 336 340 341 341 344 347 349 346 348 346 347 353 357 357 358 359 362 360 355 359 359 367 366 359 360 359 358 359 360 362 364 355 360 362 360
309 312 306 307 300 299 306 308 309 320 324 327 331 334 336 340 342 342 344 346 345 344 345 346 351 351 354 355 357 357 355 356 356 359 360 361 362 364 361 359 358 359 359 363 365 358 360 361 357
306 305 307 309 307 301 300 306 323 323 327 327 328 330 334 339 341 342 345 348 349 345 343 344 345 348 353 354 356 356 356 354 355 355 356 358 360 363 363 362 358 359 357 359 361 361 359 359 359
309 307 308 301 304 306 306 308 324 327 330 330 326 330 331 334 335 338 344 345 345 347 344 342 344 344 348 355 355 353 355 356 354 355 356 360 358 364 363 362 362 361 359 360 359 357 357 358 356

GFSSGP_sfc_thetae_099.txt.gz
Theta_e
349 351 352 347 329 326 319 318 324 320 320 325 325 325 328 331 325 320 344 349 349 350 354 358 358 356 359 358 360 362 362 362 362 363 362 361 362 362 362 362 361 362 362 361 361 360 356 356 360
350 349 350 341 323 315 316 321 319 322 324 324 328 332 327 325 336 338 342 348 349 350 354 351 360 359 359 358 360 361 360 362 363 363 362 362 363 363 361 362 362 363 363 359 358 357 358 358 360
350 351 341 324 320 316 315 321 322 323 324 325 331 337 330 330 338 342 347 350 353 351 350 360 360 360 360 360 360 360 360 361 362 362 362 362 361 362 362 362 362 360 359 360 359 359 359 358 359
347 346 334 325 318 322 321 324 323 322 327 333 335 327 334 341 341 345 348 351 350 350 352 358 360 360 360 361 360 360 360 362 362 362 362 362 363 362 361 361 361 360 360 360 360 361 359 360 359
346 338 324 320 321 323 328 325 324 323 330 332 333 326 331 341 347 349 347 349 347 348 352 356 360 361 360 360 360 360 361 362 361 362 361 362 363 363 361 361 361 362 362 361 362 363 362 359 359
335 335 322 318 319 324 329 327 327 333 332 334 331 329 334 345 344 346 349 348 348 348 351 355 361 361 360 360 360 360 361 361 362 361 361 362 361 363 363 362 362 362 362 362 361 359 357 357 356
333 329 324 322 321 323 329 331 328 329 328 332 335 329 336 341 344 347 346 347 346 349 350 352 355 360 361 360 360 361 361 362 360 361 361 362 362 362 363 362 362 361 361 360 361 361 357 355 355
338 329 322 322 322 323 333 332 328 327 327 338 338 329 331 342 347 347 345 344 349 347 348 350 353 356 353 357 360 361 361 362 362 361 361 363 362 363 362 363 362 360 361 359 360 361 358 357 355
342 328 320 321 324 327 334 331 336 339 336 337 338 336 341 345 347 344 342 343 347 349 346 348 349 354 357 355 358 361 361 363 362 360 361 362 357 356 360 363 360 359 360 360 360 360 360 359 358
335 330 323 331 330 331 334 333 334 334 332 334 333 339 343 344 344 340 338 339 342 343 343 349 350 350 355 349 358 358 356 357 358 360 362 365 360 360 353 358 358 358 359 360 360 360 362 363 356
333 328 332 333 335 337 334 333 338 331 329 332 332 336 341 342 342 339 338 339 342 344 342 350 353 350 348 353 351 355 354 353 358 362 364 364 352 352 351 354 355 356 359 355 358 357 355 353 354
326 333 333 333 336 336 333 337 333 333 333 337 339 340 340 340 339 338 338 340 342 343 343 350 352 354 350 349 349 352 350 352 356 357 358 356 350 354 360 355 352 356 356 356 356 353 356 354 354
329 331 334 334 335 335 336 332 331 333 337 340 339 340 339 339 339 340 340 342 345 341 344 351 355 357 356 353 350 352 350 349 352 355 356 353 355 355 356 361 357 358 359 360 354 352 353 354 352
333 333 332 334 336 336 331 331 332 333 337 337 337 337 339 339 338 339 340 342 344 342 345 351 353 357 362 355 358 353 352 350 351 352 356 359 358 359 355 355 359 353 361 361 353 355 352 351 347
334 327 330 331 335 330 332 326 326 334 336 335 335 337 338 338 339 338 340 343 344 343 348 351 352 354 358 359 355 355 350 350 352 355 360 360 360 363 363 356 357 354 357 360 358 354 353 347 346
331 327 319 328 332 332 330 319 329 334 334 332 334 335 335 336 337 338 343 345 345 345 348 350 349 351 354 358 363 361 355 354 356 355 357 361 363 361 365 354 358 356 362 352 355 349 346 346 347
328 316 319 323 332 329 328 322 332 334 332 331 332 332 334 336 336 339 343 344 345 347 349 349 351 351 356 357 357 360 360 360 356 357 359 362 361 361 360 364 357 364 356 354 356 348 356 348 346
317 314 322 322 327 328 321 318 328 332 330 328 330 333 334 333 335 340 342 345 347 349 351 351 350 358 361 355 357 356 356 358 358 359 358 361 360 360 363 357 359 360 359 352 354 363 351 352 349
318 316 314 325 326 322 322 319 325 328 327 330 330 330 332 331 337 341 342 344 346 349 351 352 357 359 358 356 351 354 352 355 355 358 361 361 360 361 364 359 359 360 363 361 358 354 357 346 350
321 318 313 324 327 322 321 319 325 326 325 327 331 330 332 334 336 339 341 343 344 347 351 354 357 360 361 356 358 359 354 358 358 359 361 362 360 362 361 365 360 363 356 360 360 361 353 345 349
316 318 313 312 323 322 319 315 320 325 325 329 333 334 332 334 336 338 340 342 345 348 349 353 357 361 360 357 362 361 361 361 356 358 357 359 361 360 363 363 362 361 365 355 360 357 360 350 348
310 321 319 317 320 314 320 306 318 320 321 325 333 330 331 333 334 339 340 342 343 349 353 355 357 360 361 360 362 357 361 358 353 353 357 360 361 359 360 362 361 365 362 371 363 357 363 361 346
313 318 321 320 319 318 316 311 315 322 317 320 332 331 332 334 337 338 340 343 345 349 351 354 358 360 361 361 364 355 356 359 357 354 360 357 364 361 358 361 362 363 359 363 370 362 366 354 356
319 315 316 320 319 306 314 312 312 316 318 320 326 332 333 336 337 341 341 345 345 348 352 353 358 360 361 361 360 358 353 356 358 356 359 355 357 358 361 361 363 365 364 363 361 364 363 368 364
318 312 304 303 303 306 314 312 313 322 322 324 326 331 334 334 337 338 340 340 346 347 351 353 358 359 360 359 358 357 357 358 356 359 351 348 350 353 363 363 362 361 365 362 364 365 364 361 361
314 313 306 300 302 305 315 308 313 322 325 326 331 335 337 337 335 337 342 341 348 348 350 353 357 359 359 358 359 360 359 353 352 356 360 353 351 353 365 362 361 361 363 362 363 357 355 364 357
311 310 316 307 310 304 308 316 322 324 324 329 331 334 336 338 336 338 341 347 349 350 352 354 358 359 358 357 359 360 360 359 357 358 360 357 363 359 360 360 359 360 361 362 363 355 358 358 361
311 315 308 309 301 298 306 309 310 320 324 329 331 334 337 339 341 339 344 347 346 345 354 351 351 355 358 358 357 358 358 358 357 358 358 360 355 361 362 358 358 359 359 361 363 361 362 361 357
307 307 311 311 309 302 302 308 321 324 328 329 333 336 337 340 342 346 346 348 351 351 351 348 352 353 356 357 359 360 357 358 359 356 356 358 360 362 359 361 359 359 359 360 364 364 361 360 361
311 308 309 304 305 308 306 307 326 328 331 333 334 337 341 344 344 345 346 348 348 348 342 345 344 346 346 352 357 357 355 357 357 355 356 358 359 360 360 361 361 361 359 362 362 358 357 358 357

GFSSGP_sfc_thetae_102.txt.gz
Theta_e
346 346 349 346 328 327 316 316 322 319 319 324 331 328 326 328 322 317 342 345 347 349 354 357 360 358 359 359 361 361 362 362 363 363 362 362 362 362 359 361 361 361 360 360 356 358 359 360 360
338 349 347 338 323 312 314 320 318 321 322 333 332 328 328 325 335 337 339 347 349 349 350 348 362 360 357 360 361 360 361 362 362 362 362 362 361 364 362 362 361 363 362 359 359 359 359 360 359
342 350 340 323 317 314 312 320 321 321 324 333 331 332 330 328 337 339 347 350 349 349 351 358 361 360 360 361 360 360 361 362 362 362 362 362 361 362 361 361 360 361 360 361 360 360 360 359 358
344 344 335 319 315 320 319 321 322 323 331 334 331 326 335 340 339 345 348 347 348 350 354 360 361 361 361 361 360 360 361 362 363 363 362 362 362 361 361 360 359 361 361 361 361 361 359 358 356
346 336 324 318 319 321 323 323 324 326 331 328 330 326 331 341 346 348 347 349 347 348 352 355 362 361 361 361 361 361 362 362 363 363 363 363 362 362 361 361 362 362 362 362 362 360 358 356 355
334 332 318 316 318 323 323 324 328 331 332 332 328 329 332 344 342 343 348 346 348 348 351 355 361 361 361 360 361 361 362 362 362 364 362 364 364 365 363 363 364 362 362 360 358 357 357 355 353
331 330 322 320 319 319 321 328 330 330 328 327 333 327 334 340 343 347 344 346 349 349 349 352 355 359 361 362 360 361 362 361 362 362 363 365 364 363 364 366 363 361 361 362 358 356 355 354 353
337 330 322 322 319 319 325 330 334 330 328 335 335 328 329 339 345 346 345 346 347 348 349 352 354 354 355 356 361 362 361 361 362 363 363 365 365 362 361 364 365 361 361 361 361 358 356 355 354
342 322 317 319 321 324 329 325 332 336 332 334 336 335 339 342 340 338 343 344 341 346 348 351 350 353 358 359 360 362 362 363 363 361 363 364 357 358 358 363 363 361 361 361 361 360 358 355 355
334 324 321 326 328 327 331 330 332 332 332 332 332 338 340 341 338 335 335 338 340 343 345 349 350 349 351 351 360 361 357 357 359 359 360 360 363 360 354 359 361 361 360 361 363 363 362 357 356
333 324 330 331 333 332 332 331 336 331 328 331 330 334 337 337 336 335 336 337 338 342 347 347 350 355 350 356 358 353 358 357 356 362 364 364 355 353 353 355 358 359 358 355 358 360 358 352 352
326 332 333 334 336 333 331 335 331 333 331 335 337 338 336 336 334 334 335 337 339 343 348 346 352 360 353 354 354 356 356 355 350 354 359 364 354 359 349 353 343 353 357 352 355 356 359 354 354
328 330 334 334 335 334 335 333 332 331 335 337 338 338 335 336 335 336 338 338 339 340 348 347 355 362 367 353 352 354 351 353 357 357 358 358 352 362 355 347 351 348 348 353 357 354 355 356 354
333 332 332 335 332 334 331 329 332 332 336 335 336 335 335 335 334 337 338 340 339 344 350 349 351 359 359 363 367 349 349 354 356 360 354 357 353 357 352 348 355 356 352 360 352 349 349 355 350
332 328 330 333 335 332 332 325 326 331 335 333 333 334 335 335 336 336 339 340 340 342 350 349 351 353 361 364 365 362 352 353 356 356 358 354 362 353 349 352 357 360 363 361 364 362 355 351 350
328 329 321 329 332 331 329 319 331 332 332 330 332 333 334 335 335 338 341 341 343 346 350 351 350 352 356 362 366 354 354 349 358 359 363 366 366 359 356 357 359 366 367 365 355 358 355 352 352
327 318 320 323 332 330 328 321 329 332 330 329 331 332 333 334 335 338 342 342 344 349 350 344 353 352 354 366 357 365 355 357 358 361 360 366 367 357 366 354 360 365 364 347 351 353 355 353 347
316 318 321 321 326 328 323 320 329 332 330 328 330 330 331 331 333 337 342 342 346 349 351 350 353 357 361 349 355 360 353 353 356 360 365 369 365 366 364 364 365 358 364 349 362 357 352 360 345
317 319 319 317 323 323 321 320 323 330 331 329 329 328 330 332 334 338 341 344 345 348 351 352 352 359 356 357 350 355 355 354 358 354 365 367 367 368 369 365 365 356 355 362 362 360 359 358 358
318 315 315 315 317 321 320 319 323 327 327 328 330 328 331 331 333 337 339 342 343 347 351 356 360 362 362 363 363 359 352 362 359 362 366 366 361 367 366 363 362 348 356 367 365 366 361 354 356
318 316 312 310 313 317 320 316 321 325 327 328 329 332 334 332 331 337 339 338 344 348 352 353 353 363 363 365 355 359 350 362 352 362 363 363 361 366 363 364 357 361 354 356 363 366 363 355 353
313 319 316 314 308 304 320 305 316 319 320 323 326 329 333 332 335 339 338 339 342 347 351 358 358 361 360 355 355 358 355 343 357 360 349 353 366 362 365 365 360 361 351 350 360 366 364 363 355
312 322 317 315 309 309 313 310 313 321 317 320 324 328 332 334 335 334 337 337 345 347 348 354 360 363 365 364 365 361 359 358 356 354 351 354 361 364 362 366 365 364 360 356 351 360 368 365 360
317 317 316 314 310 304 312 312 311 316 320 323 325 329 334 334 332 336 338 340 346 348 350 354 359 362 366 364 363 361 364 356 354 345 353 354 361 363 368 362 370 369 353 355 363 366 366 368 365
316 312 304 303 301 303 313 311 314 321 325 325 324 328 332 336 335 337 338 339 343 347 350 354 358 359 362 361 361 362 361 361 360 360 350 356 347 346 354 371 365 364 365 363 366 364 366 366 362
312 312 303 297 299 304 312 307 315 324 326 326 328 330 333 334 337 337 338 337 344 349 353 352 357 359 360 359 362 364 367 358 359 362 356 348 348 347 355 363 364 366 365 365 366 365 362 365 363
310 307 314 306 308 305 308 314 322 322 322 325 327 329 329 331 334 337 337 342 339 339 349 351 356 357 360 359 363 365 366 366 364 364 371 361 349 348 345 339 360 363 359 363 361 363 362 352 350
312 314 305 308 299 298 305 306 311 317 319 324 326 328 327 329 334 336 337 338 335 337 345 353 359 357 358 355 360 360 361 363 366 367 364 361 345 340 342 344 355 362 361 364 367 364 360 359 352
307 306 308 309 309 300 301 306 320 323 323 325 329 332 333 337 337 337 338 344 335 337 351 352 355 355 358 356 354 362 361 361 362 364 365 367 349 344 343 353 361 358 364 365 364 364 363 357 356
310 307 308 303 304 307 306 308 323 323 328 329 333 335 341 339 339 336 340 343 346 346 352 349 348 349 352 352 355 357 351 354 359 354 348 360 364 362 364 366 361 362 360 361 361 361 359 358 357

GFSSGP_sfc_thetae_108.txt.gz
Theta_e
343 344 346 344 323 319 311 315 321 320 321 328 328 327 323 325 320 313 339 346 348 350 355 356 362 359 359 360 361 361 362 361 363 361 362 362 360 360 361 362 362 359 358 360 360 360 360 359 357
332 336 344 333 314 307 309 321 318 322 327 331 330 328 325 323 333 335 338 347 350 352 352 354 361 360 361 361 362 361 360 361 361 361 361 361 360 362 362 361 358 357 358 359 360 359 359 359 357
336 344 328 320 312 309 306 321 322 326 330 328 328 331 330 326 335 336 343 348 351 347 349 353 361 361 361 361 362 362 362 362 362 361 361 361 360 362 361 358 361 360 360 361 359 358 359 359 359
333 337 330 315 313 320 314 323 324 326 330 332 330 326 334 340 337 340 347 349 346 349 351 359 359 361 360 361 361 362 362 362 361 361 361 361 361 360 360 360 360 360 359 358 358 357 358 358 360
329 330 317 316 316 319 322 327 326 325 329 329 330 325 329 338 342 343 345 348 349 350 354 356 362 361 360 361 361 362 362 362 362 361 361 361 360 361 361 361 360 361 360 358 356 355 356 356 359
328 327 316 313 314 316 323 329 327 328 329 330 328 328 329 340 342 344 348 348 352 351 353 355 361 361 360 361 361 362 362 362 362 362 361 361 361 361 362 361 360 362 361 355 355 354 353 355 357
329 323 316 317 312 314 321 329 326 328 328 328 333 325 329 336 342 346 347 348 350 352 351 352 354 357 361 361 362 362 362 362 362 362 361 361 362 362 361 361 359 356 355 354 352 351 351 352 354
334 326 320 319 311 312 324 332 331 329 329 336 335 324 324 335 343 345 346 347 348 350 350 350 351 352 352 355 362 362 362 362 363 363 362 363 363 361 360 363 362 358 355 353 351 351 351 350 352
338 318 315 319 315 317 330 329 332 335 331 331 334 331 335 341 342 341 340 342 344 347 347 348 349 349 351 353 357 361 363 363 363 362 362 359 352 352 355 359 360 358 357 354 353 352 351 352 354
331 318 317 325 326 324 329 329 328 329 329 328 329 335 338 341 338 337 336 337 339 342 346 345 346 348 351 356 351 352 355 354 354 354 352 350 349 349 355 356 359 358 354 354 357 358 358 356 348
330 320 326 325 327 328 330 328 333 327 325 327 327 332 335 336 336 336 337 339 340 343 345 344 346 347 346 351 350 351 350 349 349 349 349 349 351 348 341 338 339 337 343 333 338 341 355 343 343
324 329 328 329 331 331 329 334 328 330 329 332 331 335 335 334 334 335 337 339 340 341 342 342 342 343 345 349 349 348 348 343 344 347 348 344 344 345 334 332 332 332 338 338 338 339 347 351 351
327 326 330 331 331 330 332 330 328 329 334 333 334 334 332 333 332 338 340 340 338 338 340 342 342 342 347 348 347 348 346 334 342 348 349 350 340 343 337 333 337 339 341 343 342 342 345 346 345
332 331 329 330 328 331 329 331 328 331 333 330 332 330 330 328 335 337 338 337 336 338 341 344 345 346 345 345 345 347 346 341 347 346 346 347 345 343 337 335 337 340 344 343 342 342 336 339 341
333 326 327 327 331 328 333 325 323 330 331 329 329 328 330 331 336 336 338 337 338 340 341 342 343 349 347 344 344 345 345 347 345 342 345 347 344 342 340 339 341 344 347 345 344 343 341 342 342
326 324 317 326 327 326 330 316 326 330 328 327 327 328 329 331 335 338 340 340 339 341 340 341 346 345 344 346 345 342 345 348 346 340 346 350 345 340 340 340 344 346 342 350 348 345 345 343 340
323 310 316 322 326 327 325 318 327 329 329 326 327 326 328 329 331 337 342 341 340 340 339 337 341 344 346 348 346 348 349 345 346 347 349 349 350 350 348 346 345 347 348 341 343 341 342 340 338
307 313 314 313 319 323 317 320 328 330 327 325 326 327 328 329 328 337 341 341 341 341 340 340 340 345 344 345 345 343 346 348 347 348 349 351 348 352 351 347 343 338 347 346 348 345 347 343 338
318 314 312 315 319 318 315 316 322 328 328 325 323 324 326 328 331 336 340 341 341 340 341 341 340 342 340 343 343 338 340 344 346 351 352 350 350 353 350 350 343 342 345 346 347 347 347 345 342
316 312 312 315 318 316 314 314 319 326 326 326 327 324 325 328 330 335 337 338 339 339 342 342 341 342 343 345 346 345 343 347 346 347 350 352 349 351 351 348 345 346 344 340 342 349 348 345 340
314 313 311 311 315 316 313 311 315 325 327 328 328 329 331 326 329 332 333 334 338 339 344 343 343 343 347 347 345 343 345 345 344 346 347 348 353 351 350 347 346 343 339 329 337 348 348 343 345
307 318 316 313 309 302 313 303 315 320 321 324 327 327 328 330 332 333 333 333 339 341 344 344 345 346 347 345 343 341 339 338 342 343 344 346 344 350 351 345 346 342 331 335 342 348 349 346 343
313 318 314 313 307 308 309 305 312 319 317 320 324 326 329 331 332 332 334 334 339 343 344 346 346 346 347 345 344 342 339 341 344 344 343 340 344 350 354 343 348 342 341 344 346 348 348 349 344
319 314 313 312 307 298 307 306 307 312 317 321 324 327 329 330 330 333 335 336 337 342 344 345 344 344 346 345 346 344 341 342 341 341 342 344 346 346 347 351 349 347 343 339 339 348 349 348 347
314 305 299 298 298 297 308 305 308 317 320 321 322 326 329 332 332 331 331 335 337 339 342 344 342 341 346 345 345 344 344 343 341 340 341 343 344 342 343 347 348 343 341 332 343 345 344 348 346
310 302 299 294 294 300 310 303 310 320 322 324 325 327 330 332 332 333 333 335 337 342 342 344 343 341 346 344 343 344 346 344 343 341 344 345 343 342 345 347 348 349 349 346 348 345 346 346 343
308 302 306 300 299 300 305 311 317 320 322 322 323 325 327 331 334 333 333 336 337 340 343 345 344 344 345 346 345 345 346 345 345 347 344 344 346 346 345 347 343 341 347 348 348 345 344 344 341
309 310 298 296 293 293 300 302 305 311 315 321 323 323 327 330 332 333 335 339 340 339 338 344 346 346 347 347 347 344 347 346 346 345 344 346 347 345 346 343 340 340 344 348 347 347 346 344 343
297 297 296 299 299 296 296 301 312 312 315 319 322 325 326 328 330 334 336 340 341 342 343 340 342 347 348 347 347 346 348 347 346 344 343 342 341 340 341 339 339 343 347 348 346 345 347 344 343
300 297 296 291 292 298 299 303 319 318 318 321 322 324 326 328 331 335 335 335 337 338 339 340 339 342 346 345 346 348 348 347 346 345 345 342 340 338 335 338 344 348 349 348 347 346 349 346 344

GFSSGP_sfc_thetae_111.txt.gz
Theta_e
346 348 346 343 318 315 311 313 320 317 316 323 325 323 321 325 318 307 335 342 344 345 352 355 360 358 360 361 361 361 360 360 360 360 361 361 360 359 360 360 360 360 360 360 360 360 359 358 358
335 334 342 329 311 305 309 319 317 322 327 328 328 327 325 322 333 334 335 344 345 349 351 353 361 359 360 360 360 361 361 359 360 360 360 360 359 360 360 356 355 356 359 359 360 359 358 357 358
335 344 327 320 311 303 309 320 322 326 330 328 327 332 328 326 335 335 342 347 350 349 349 352 357 360 360 361 361 361 361 360 360 360 359 360 359 357 357 358 358 358 360 358 359 359 359 359 359
332 336 329 315 310 317 316 321 325 326 329 332 330 325 333 338 336 340 346 349 345 346 349 356 357 360 360 360 360 360 361 361 361 360 360 360 360 360 360 360 359 359 358 358 358 359 359 360 358
328 329 315 316 317 318 323 326 327 326 328 328 329 325 327 338 342 344 345 346 346 347 351 352 360 360 360 361 361 361 361 361 361 360 360 359 359 359 359 360 359 360 359 357 356 357 358 359 360
327 325 312 312 314 315 324 327 329 327 328 328 328 327 327 339 340 343 346 346 350 350 353 354 359 360 360 360 361 361 361 361 361 360 360 360 360 360 360 360 360 360 357 355 355 355 356 358 361
326 321 316 315 309 315 323 330 326 326 326 327 331 323 329 335 340 344 347 349 351 352 351 352 352 355 359 361 361 361 362 361 361 361 361 361 362 361 360 357 356 355 354 354 353 353 354 355 357
331 323 319 317 309 311 325 329 331 328 327 334 334 322 324 335 344 346 346 346 346 348 349 349 350 352 352 355 362 362 362 362 362 360 361 362 361 360 359 360 359 356 354 353 351 352 352 354 355
337 318 314 317 314 320 329 326 333 336 330 332 333 331 335 340 343 342 342 344 345 347 346 347 348 348 351 353 357 361 362 362 361 360 361 357 351 352 354 357 357 358 357 355 354 353 354 355 356
329 318 318 326 326 323 329 327 329 328 326 327 329 334 339 340 339 338 338 338 340 342 345 345 346 348 350 355 352 351 355 355 354 353 350 348 347 348 354 356 358 356 353 351 357 357 359 348 343
328 320 324 325 327 327 327 329 332 325 322 326 327 331 336 336 336 336 337 338 338 342 346 344 345 347 348 350 349 350 349 349 349 349 347 347 348 345 341 339 338 337 343 333 338 338 343 350 344
324 329 328 326 329 328 327 332 328 327 328 332 333 335 335 334 334 335 336 337 338 342 343 343 345 345 345 348 347 348 347 346 344 345 346 344 344 341 334 331 331 332 337 341 342 341 340 343 347
326 327 330 331 331 330 331 329 329 327 331 335 335 335 334 334 335 337 338 340 340 340 341 342 342 341 346 348 347 346 344 341 343 346 347 344 341 341 333 332 336 338 341 341 341 341 341 337 341
330 328 329 331 329 330 328 329 330 330 331 332 333 332 333 333 334 336 338 338 338 338 338 340 341 342 346 345 344 345 343 336 344 345 346 345 339 340 336 334 338 340 342 343 341 341 340 337 339
332 325 326 327 329 328 332 324 324 330 330 328 330 331 332 333 335 336 338 336 337 338 341 341 341 343 345 343 345 344 344 342 344 342 346 346 343 341 337 338 341 343 341 346 346 344 340 340 341
325 324 315 324 328 327 328 317 327 330 327 326 329 328 330 330 335 337 338 336 338 340 340 341 347 345 343 342 343 343 344 344 342 337 345 345 342 342 341 341 342 343 334 346 341 342 343 342 339
315 310 315 318 326 325 324 318 327 328 326 325 328 324 327 331 334 336 338 336 339 340 339 339 342 342 343 344 342 343 343 346 343 338 346 345 343 343 346 346 344 344 345 345 343 342 340 339 337
303 310 312 313 320 322 318 319 324 327 326 326 326 324 328 331 332 337 337 338 340 339 337 338 342 344 346 345 343 345 344 343 343 345 347 347 348 349 347 344 341 342 344 345 345 343 345 340 336
317 314 312 315 320 317 315 316 320 326 327 324 322 324 325 328 334 338 340 339 339 337 336 337 341 340 342 341 338 338 339 342 343 349 347 348 349 351 347 344 335 341 343 342 347 346 343 339 339
316 312 310 315 319 316 315 314 317 322 326 327 323 324 325 326 332 337 337 338 337 336 337 338 341 339 340 342 341 342 342 344 343 346 348 350 348 349 348 345 344 344 338 337 345 346 343 343 342
312 310 310 310 315 316 314 311 315 322 327 328 328 327 327 325 330 335 335 336 337 337 338 338 340 339 342 344 343 343 344 343 342 344 345 347 351 351 348 346 342 341 335 329 340 345 345 340 343
306 318 315 312 309 302 314 301 312 317 320 325 327 327 325 325 331 334 333 334 336 338 341 339 340 343 344 343 341 340 338 337 340 340 342 345 343 349 350 345 343 338 331 338 343 347 347 342 338
310 318 314 312 306 307 309 303 310 318 315 320 325 326 326 327 331 333 333 334 337 341 342 341 342 343 343 342 342 340 337 338 341 341 341 341 341 347 351 342 345 340 340 342 344 346 346 346 340
318 313 310 308 305 298 307 305 305 312 315 319 325 328 329 329 331 333 333 334 337 340 342 342 341 342 343 341 342 341 339 339 340 339 341 341 342 345 346 349 346 344 342 339 341 346 346 346 343
311 302 293 293 295 297 306 304 305 315 321 323 324 327 329 331 331 331 330 331 336 338 341 342 341 340 342 342 342 342 341 340 340 340 340 340 341 341 343 346 346 343 340 337 337 344 343 345 344
307 300 294 290 292 297 308 302 308 318 322 326 326 328 330 331 330 331 332 332 335 339 341 342 340 339 342 341 342 342 343 342 341 340 339 341 342 342 343 345 348 346 345 340 346 345 344 346 342
308 299 303 298 296 296 303 310 315 318 318 321 323 325 328 330 332 331 332 334 335 337 340 341 340 339 342 342 341 341 343 342 342 342 342 342 343 343 344 346 345 346 347 347 346 344 342 342 340
307 308 298 297 293 289 298 303 303 312 316 321 321 322 326 330 333 333 332 335 337 340 340 341 342 340 342 343 341 342 342 343 344 345 343 342 343 345 340 343 342 340 342 345 347 345 344 342 340
297 298 296 297 297 293 293 299 312 312 314 320 321 323 325 329 332 334 334 337 338 341 342 343 342 342 344 344 344 343 343 344 344 344 344 343 342 341 341 342 339 337 342 345 346 345 345 343 341
296 295 295 292 290 296 297 300 317 316 316 320 323 323 326 329 332 334 337 337 338 340 341 341 340 343 345 345 345 344 344 344 344 343 343 342 339 338 336 337 336 341 346 346 346 344 348 345 343

GFSSGP_sfc_thetae_114.txt.gz
Theta_e
345 349 346 341 315 313 307 312 317 313 314 320 324 321 320 325 318 305 333 339 341 342 350 351 356 355 359 361 361 360 360 361 360 359 360 360 360 361 360 359 359 359 360 360 359 359 359 359 359
339 338 340 327 309 304 308 318 315 320 323 323 327 327 324 322 333 332 332 342 343 348 350 351 358 357 360 361 361 360 360 360 361 359 360 360 360 359 357 356 358 360 359 359 359 359 359 358 359
332 337 326 315 308 304 308 318 321 324 328 327 327 331 327 325 333 333 340 346 349 349 350 352 357 359 360 360 360 359 358 360 360 360 360 359 359 358 358 358 358 360 358 359 360 359 359 359 361
331 334 326 314 309 315 316 321 325 326 329 331 328 324 332 338 334 339 346 348 346 346 348 354 357 358 359 359 360 360 360 361 360 360 360 361 359 360 360 359 360 359 358 359 360 360 360 359 362
331 330 316 315 315 317 322 325 327 325 327 327 329 324 326 337 342 345 345 346 345 345 349 353 359 360 360 360 360 360 361 360 360 360 361 360 360 360 359 359 360 359 358 358 359 359 359 360 360
326 325 313 311 311 319 323 328 328 326 328 328 327 325 326 338 340 342 345 345 348 348 351 352 357 358 360 359 360 360 361 360 359 360 359 359 359 360 360 361 360 357 357 357 357 357 359 360 360
325 320 316 310 311 317 322 330 326 325 325 326 331 322 327 333 340 344 346 348 350 352 351 351 354 355 360 361 361 361 361 360 360 361 360 360 360 361 358 357 356 355 355 355 355 356 357 358 359
329 323 319 316 313 313 326 329 331 327 325 333 333 322 322 333 344 346 346 347 347 349 350 349 350 352 353 355 361 361 361 361 360 360 361 361 361 361 361 360 358 355 354 354 354 355 356 357 358
337 316 313 318 312 320 328 326 332 333 328 331 332 330 334 341 344 342 342 344 344 347 347 348 349 350 351 354 357 360 361 361 359 359 362 356 352 354 355 358 358 359 357 356 355 355 356 357 355
328 318 319 326 325 323 328 327 329 327 326 326 329 335 339 340 339 338 338 338 340 343 345 346 347 349 351 357 350 352 356 351 354 353 350 350 349 352 354 358 357 355 350 352 353 354 357 350 345
328 321 324 325 328 328 326 327 331 324 320 326 326 331 336 337 336 336 338 339 338 342 346 345 346 348 349 349 350 351 351 351 351 350 349 350 349 344 342 341 339 338 344 340 342 343 344 346 350
323 329 328 326 328 328 327 332 326 326 327 331 333 335 336 334 334 334 334 337 338 341 344 345 346 347 347 350 349 348 348 347 347 349 349 348 346 341 336 333 335 337 343 345 346 346 346 345 347
324 328 330 331 330 330 331 329 328 325 331 334 335 335 334 334 334 336 337 338 339 340 342 343 345 345 347 349 348 348 347 345 346 347 350 347 347 342 337 338 342 344 346 347 346 345 344 342 344
329 328 329 331 329 330 327 328 329 329 332 332 333 332 333 334 334 335 337 337 338 340 340 342 343 344 346 347 347 347 343 342 345 348 349 346 345 343 339 339 344 346 347 347 347 346 344 343 344
328 324 325 328 329 328 330 323 324 330 331 330 330 332 332 333 335 335 337 338 339 337 339 340 341 342 345 346 346 346 345 340 346 347 348 347 343 344 341 341 345 347 343 350 349 348 347 348 347
323 322 314 323 329 328 326 314 328 332 329 327 329 330 331 332 334 336 339 338 338 338 339 341 344 342 344 344 345 346 345 343 346 343 348 348 346 345 343 344 346 347 342 350 349 349 347 347 346
310 307 314 317 325 326 323 318 327 329 326 326 328 328 330 330 333 336 339 337 337 339 339 340 343 342 343 344 344 344 346 346 345 342 348 346 345 345 346 349 348 350 351 351 349 351 347 346 343
302 308 312 313 320 321 315 315 325 327 325 325 327 326 328 328 331 336 337 337 338 339 339 340 342 343 344 344 344 345 345 346 345 343 348 347 346 350 351 349 346 349 351 351 350 350 349 345 344
314 312 310 315 321 318 314 314 320 323 326 324 323 322 325 328 333 336 337 337 339 338 337 339 342 343 343 341 340 341 341 344 345 348 350 349 349 352 350 348 342 349 349 347 352 351 347 347 345
314 310 309 314 319 316 315 313 319 321 323 327 325 322 326 328 331 334 336 337 337 337 336 339 341 341 342 342 341 343 344 346 347 349 351 351 350 352 350 347 346 349 344 347 352 351 348 347 347
311 308 309 310 315 316 314 310 315 321 324 328 328 324 326 328 329 332 334 335 337 336 336 338 341 340 343 344 344 344 345 345 345 347 348 350 352 352 352 349 349 347 341 345 350 353 350 347 345
304 315 314 312 308 301 314 300 311 317 319 324 326 324 323 326 331 334 334 334 335 337 338 339 341 340 343 344 343 343 341 339 342 345 346 349 348 351 350 350 346 343 338 347 351 353 352 348 346
304 317 312 311 305 305 308 303 309 315 313 318 324 326 325 325 330 333 334 335 336 337 339 339 341 341 344 343 343 341 340 341 344 345 345 347 346 351 353 349 349 343 347 349 352 353 353 352 345
316 311 308 306 303 296 305 304 303 310 312 317 323 327 327 325 330 334 336 336 336 339 341 340 340 342 343 343 342 342 340 340 342 343 343 344 346 348 351 351 346 349 348 347 349 353 353 352 347
310 299 292 291 292 294 305 302 305 316 320 320 323 326 328 326 329 332 333 332 334 338 340 340 340 341 343 342 342 342 342 342 343 343 343 344 345 346 348 351 351 349 349 346 343 350 350 351 352
304 298 292 287 289 294 306 299 306 317 322 324 326 328 329 329 329 332 333 332 335 337 340 341 340 340 343 343 342 343 344 343 343 344 344 345 345 346 348 348 352 350 348 343 345 349 349 351 349
306 299 302 296 293 295 301 307 314 318 319 323 324 327 327 330 330 331 332 332 335 337 339 341 340 340 342 343 343 343 345 344 344 345 345 344 347 347 347 349 351 350 351 351 351 350 348 348 347
307 310 298 296 289 288 297 301 302 311 314 321 323 324 326 330 330 331 332 333 334 338 340 341 341 340 342 343 342 343 344 346 345 347 346 346 345 346 346 347 347 348 348 350 351 351 350 348 346
298 299 297 297 296 292 291 296 310 312 316 320 323 326 327 328 331 331 333 334 335 337 339 340 341 340 341 344 343 343 344 345 346 346 346 346 347 347 346 345 346 344 344 348 350 349 350 348 348
299 299 297 292 289 295 294 297 316 315 316 321 322 324 326 329 331 333 333 335 335 338 339 339 341 341 343 345 345 344 345 346 346 345 346 345 344 344 344 346 344 342 345 350 350 348 351 349 348

GFSSGP_sfc_thetae_117.txt.gz
Theta_e
344 351 350 346 324 322 313 313 321 316 318 324 326 323 322 327 319 314 338 341 342 342 348 350 350 352 357 360 360 361 361 359 358 360 360 360 360 360 360 359 361 361 360 360 360 360 361 361 361
347 344 343 332 318 310 314 320 317 318 323 328 329 328 326 324 334 333 336 342 343 346 349 350 355 355 354 360 360 360 361 361 360 361 360 360 360 358 358 360 361 360 359 359 359 359 359 361 361
337 337 332 323 315 312 314 321 323 325 326 328 328 332 327 326 333 334 342 343 346 350 351 353 357 358 357 360 359 359 360 359 361 360 360 359 359 357 357 359 361 360 360 359 358 358 359 361 361
336 341 333 319 315 318 320 324 327 326 329 332 329 323 333 337 335 342 345 346 347 351 351 356 359 359 359 360 360 359 360 361 360 361 360 359 361 360 360 360 359 360 360 361 360 360 361 361 361
337 336 323 317 316 321 326 328 329 327 328 328 328 323 326 340 346 345 346 346 347 350 352 351 359 358 360 359 361 360 360 361 361 359 360 359 360 360 359 360 359 359 360 360 359 360 361 360 358
333 331 319 313 315 323 326 330 330 328 329 329 326 327 330 344 344 345 346 347 349 347 354 355 358 359 359 359 360 360 360 360 360 360 360 360 360 359 360 359 357 358 359 358 358 360 360 361 358
331 325 319 316 317 320 324 332 328 328 328 327 332 324 333 339 345 346 347 349 348 351 351 356 355 358 359 360 360 360 360 360 360 360 360 360 359 359 358 357 356 357 357 357 358 358 360 359 358
336 329 318 317 316 318 328 330 331 328 327 335 334 324 326 338 345 346 348 346 352 353 352 356 355 357 358 359 360 361 360 360 359 361 359 359 361 360 359 360 359 356 356 356 356 356 357 359 359
337 325 317 317 317 321 330 327 332 335 329 331 334 332 337 343 345 344 343 346 350 351 351 354 354 357 361 361 360 361 359 360 360 361 361 361 357 357 355 360 358 357 356 355 356 356 357 356 357
330 324 320 327 325 324 329 328 330 327 327 329 333 338 341 343 342 341 339 341 345 346 350 352 355 355 358 358 361 362 360 363 362 361 361 358 358 360 358 357 355 354 351 354 354 354 354 353 356
329 323 324 325 329 329 328 328 332 326 324 329 329 335 339 341 341 339 338 341 342 346 349 353 356 358 359 359 358 358 358 359 360 360 359 359 358 353 351 349 349 350 348 351 352 353 355 354 357
324 328 327 325 327 327 327 332 328 327 328 333 334 339 339 339 339 337 339 340 342 345 348 352 354 357 359 357 358 357 355 355 354 357 359 358 352 350 349 345 348 352 353 355 357 356 355 354 354
325 329 329 330 326 325 331 329 328 328 332 336 338 338 338 339 339 339 341 341 342 344 347 350 354 356 358 358 356 357 354 351 354 358 360 360 357 353 348 351 354 356 358 358 358 356 354 355 352
331 331 331 332 330 329 328 329 330 329 334 333 336 336 338 339 339 339 340 340 341 343 346 350 352 356 357 356 358 356 354 353 355 358 360 358 358 356 352 351 355 357 358 360 359 359 357 356 351
332 326 329 329 330 327 330 324 325 332 334 332 334 336 338 339 341 339 341 341 343 344 347 349 350 353 355 356 357 357 355 353 356 358 360 357 355 356 357 353 356 355 352 361 360 360 361 358 350
326 325 318 325 328 329 326 315 327 333 332 330 333 335 336 339 339 342 343 343 345 345 348 350 347 350 352 355 356 356 355 353 356 358 359 358 355 357 356 356 356 354 357 362 361 360 357 355 352
320 312 316 318 327 326 323 317 327 333 331 328 332 334 335 337 339 342 343 345 345 347 348 349 350 350 352 356 356 356 356 352 357 355 359 358 356 355 357 358 358 362 363 363 361 362 359 352 351
310 313 316 316 321 321 320 319 323 328 331 329 330 332 335 335 337 342 344 345 346 348 349 350 350 353 355 355 356 355 355 355 355 355 359 356 354 357 362 359 358 363 363 362 360 361 359 356 355
312 314 314 318 323 319 316 316 321 325 328 328 328 329 333 335 339 342 344 345 345 347 348 350 350 353 353 352 351 351 357 353 354 354 359 358 360 361 363 359 356 362 360 362 364 361 359 356 358
313 312 314 317 320 319 317 315 321 322 325 327 326 328 332 334 337 340 342 343 344 346 348 350 351 354 354 352 353 353 354 354 355 358 360 361 359 362 360 360 356 362 358 363 364 363 357 357 357
312 309 314 313 317 318 316 313 316 323 325 329 330 331 331 333 335 338 340 342 344 345 347 349 353 355 355 355 354 355 356 360 354 356 357 359 360 361 360 360 361 360 356 359 364 363 360 354 354
303 316 316 315 313 308 316 306 313 319 321 325 328 331 331 332 336 339 340 341 343 344 348 350 353 355 355 356 355 357 351 348 357 364 363 358 361 361 359 359 358 359 351 359 362 363 361 361 353
303 319 317 316 312 311 310 308 312 318 315 322 325 328 333 332 335 337 340 341 343 345 346 348 352 354 355 356 357 352 358 352 356 355 359 359 358 360 360 360 359 355 353 361 363 364 364 359 354
320 316 314 313 311 304 309 309 310 313 315 320 325 327 331 333 334 337 341 343 343 345 345 346 349 352 354 356 355 356 356 356 352 356 352 356 355 355 361 361 358 359 359 358 362 365 362 362 357
316 312 302 300 302 300 311 308 311 318 320 322 322 326 331 333 333 336 339 340 342 343 344 345 348 350 352 354 354 355 355 356 355 357 360 356 359 358 359 363 358 359 361 358 356 362 361 362 360
312 307 298 293 297 302 310 305 311 320 324 323 324 327 332 331 332 335 339 340 342 342 345 346 346 348 352 353 354 355 356 352 352 356 358 354 353 354 358 359 362 363 360 358 356 355 358 359 360
311 307 310 305 307 303 308 312 317 321 322 323 323 328 330 328 332 335 339 338 342 343 345 346 347 348 351 352 354 354 356 355 353 356 356 354 356 355 357 357 358 361 360 359 359 354 358 359 358
315 316 305 308 296 295 303 306 309 316 319 322 323 326 330 331 330 335 338 339 342 344 346 348 348 348 350 352 353 353 354 357 357 356 356 356 356 357 358 356 356 359 360 361 361 361 360 359 357
310 309 309 309 307 298 297 302 315 318 321 321 324 328 330 330 330 333 335 336 340 345 346 348 349 350 349 351 353 353 353 354 356 356 358 358 357 356 355 356 356 357 357 357 358 360 360 359 358
312 310 310 303 300 305 305 302 321 320 322 325 326 329 330 331 332 333 335 335 340 342 345 346 349 349 351 352 354 353 354 355 355 356 357 357 356 356 356 356 354 354 355 355 357 357 356 357 357

GFSSGP_sfc_thetae_120.txt.gz
Theta_e
345 353 352 350 329 323 315 316 324 321 322 327 329 325 325 330 323 318 340 344 342 342 347 349 353 357 359 359 360 360 359 360 362 361 361 360 360 361 361 362 362 361 362 361 361 362 362 361 361
349 348 348 339 321 313 315 322 320 324 327 331 330 328 327 326 333 334 337 344 343 344 347 348 354 356 359 360 361 361 361 361 361 361 361 360 360 360 362 361 361 359 360 361 360 361 362 363 363
345 345 334 328 321 314 315 323 324 327 330 331 330 334 330 328 334 336 342 344 345 347 349 354 357 357 360 360 360 360 360 361 360 359 360 358 358 358 361 361 360 359 358 359 360 361 361 362 362
342 346 336 322 317 322 322 326 328 326 329 333 332 326 333 338 337 341 344 345 347 350 351 355 359 358 360 360 359 360 361 361 361 359 360 361 361 362 361 361 360 361 361 362 361 363 361 361 360
343 341 327 319 318 324 328 330 331 328 329 330 328 324 330 341 343 344 344 345 346 347 350 352 359 359 360 359 360 360 361 361 361 361 360 360 360 360 361 360 360 361 360 360 361 361 360 358 358
338 336 321 313 320 326 330 332 332 330 331 329 327 328 333 344 342 343 345 346 346 345 347 353 359 359 359 359 358 360 360 359 360 361 359 360 360 360 360 358 360 360 360 360 361 362 362 358 356
333 330 321 320 321 323 328 334 329 330 329 328 333 327 335 339 343 345 346 346 345 349 350 353 355 360 360 359 360 361 360 359 360 360 359 360 360 360 357 358 359 359 359 360 360 361 360 359 357
339 333 321 321 320 321 330 331 333 330 329 337 335 324 330 340 344 345 346 345 348 348 351 353 354 354 357 358 359 361 361 360 361 360 360 360 359 357 357 360 358 358 358 358 359 359 361 360 358
341 327 320 320 321 324 332 329 334 336 331 332 334 331 338 343 344 344 343 345 347 346 349 352 352 356 360 360 359 359 361 360 360 359 358 357 351 353 356 359 356 356 356 356 356 358 358 358 358
336 328 324 329 328 325 329 330 331 328 329 331 333 337 341 342 342 340 339 340 343 343 345 350 352 353 356 355 360 362 357 356 356 356 356 352 354 357 354 356 355 356 357 357 357 357 355 354 356
329 324 330 328 329 330 329 330 333 327 326 331 331 335 338 339 341 340 339 341 342 344 345 350 352 356 356 356 355 356 354 355 356 358 354 356 353 353 352 352 351 353 352 352 353 354 356 355 354
326 329 327 332 331 328 325 333 330 330 331 335 335 338 339 339 340 339 339 340 342 344 346 350 352 356 357 355 353 353 353 353 351 355 358 357 351 352 353 350 352 355 354 356 359 355 358 356 355
327 329 329 332 330 330 331 331 330 330 333 335 337 339 338 339 340 340 341 341 343 343 346 349 353 358 358 357 354 353 352 351 353 355 358 357 353 351 353 354 355 359 358 358 360 359 356 355 352
332 333 333 333 332 331 328 331 333 332 334 334 336 337 339 339 340 341 339 340 342 344 347 349 352 357 358 356 357 353 352 353 354 355 357 360 355 357 353 356 355 358 361 361 360 358 356 352 351
334 328 331 331 331 329 332 327 327 334 335 334 334 336 337 340 341 341 341 340 342 344 348 349 352 356 357 357 361 354 353 352 353 355 361 358 359 359 363 356 357 357 362 364 361 359 357 350 350
327 326 320 328 331 332 330 318 329 335 335 332 332 334 337 340 341 343 344 341 343 345 348 350 349 353 357 358 358 354 353 354 355 358 358 360 360 362 362 357 357 361 364 361 357 355 351 351 350
319 314 317 322 331 328 326 321 328 333 335 333 332 334 335 339 342 345 345 344 343 346 349 349 350 352 356 359 357 357 359 355 357 357 358 362 359 360 362 357 359 368 365 364 360 355 354 350 349
309 312 315 317 326 328 324 324 325 331 335 334 334 334 333 337 340 345 346 346 345 347 350 350 352 355 358 358 359 356 354 355 356 356 357 360 359 360 363 358 364 364 361 361 360 362 360 357 355
313 312 312 322 326 325 324 325 325 328 329 333 334 331 333 335 341 345 346 346 346 348 350 353 354 358 356 354 352 351 349 354 354 355 360 361 362 363 365 358 361 365 362 363 366 360 360 355 361
313 311 312 321 325 323 322 322 325 330 327 332 334 331 334 335 338 343 345 346 346 347 350 353 355 358 359 357 358 354 352 353 354 355 359 360 362 363 362 365 360 364 360 368 366 365 355 357 362
311 310 310 314 321 323 321 319 322 327 330 331 335 336 333 335 336 340 344 345 346 347 349 352 356 358 359 359 357 357 364 358 357 355 355 358 361 362 364 364 363 365 361 359 366 364 361 352 361
306 313 312 318 315 311 320 307 320 324 327 328 329 334 330 334 338 340 342 345 346 347 350 352 356 359 359 360 361 359 351 347 356 356 357 360 360 361 362 362 363 365 360 363 364 364 364 363 355
306 313 313 318 315 314 314 311 316 324 323 325 329 333 330 335 336 338 341 345 346 348 349 352 356 360 360 362 362 352 352 350 352 353 358 360 363 362 359 364 364 363 356 362 366 364 367 361 355
314 313 316 318 315 305 310 312 312 319 321 324 327 331 334 337 337 339 343 345 346 348 349 351 355 358 358 361 358 358 355 353 353 353 351 355 354 356 362 362 365 364 362 361 361 366 364 364 361
314 310 303 301 302 301 315 310 314 321 326 327 327 330 335 338 337 338 341 342 345 347 348 350 353 355 357 359 358 356 355 356 355 354 351 354 352 353 360 363 363 359 365 363 362 366 365 363 360
310 309 302 295 298 302 314 306 315 324 326 329 332 332 336 337 338 338 341 343 345 347 349 350 351 353 355 356 356 359 359 359 354 354 356 352 353 354 358 359 360 361 363 362 363 357 358 360 359
310 308 312 305 306 303 306 313 320 324 324 327 328 328 329 333 337 339 340 344 346 348 349 351 351 353 353 353 356 358 361 360 355 358 364 356 366 363 363 362 360 359 360 361 362 356 358 360 361
317 318 306 306 298 297 302 307 309 316 321 325 327 327 328 333 336 340 341 344 347 348 350 351 352 352 353 353 355 356 357 360 360 360 363 359 360 363 362 362 362 362 362 363 365 359 361 360 357
312 311 312 310 308 299 298 304 316 319 323 325 327 330 330 333 334 339 341 345 347 349 350 352 352 352 353 354 355 356 356 357 359 358 361 363 365 363 362 363 362 361 362 362 364 362 360 360 359
310 311 311 305 303 308 306 304 322 324 325 327 328 328 331 335 336 335 342 345 346 347 348 351 352 352 353 355 356 357 358 358 356 358 359 363 363 364 363 362 361 360 361 361 362 360 358 358 357

GFSSGP_sfc_thetae_123.txt.gz
Theta_e
341 353 354 349 334 324 314 317 323 321 322 330 329 326 325 328 324 318 340 346 343 344 350 353 359 356 355 355 355 359 359 360 360 360 361 361 361 361 362 362 361 362 362 362 362 362 362 361 361
348 351 348 340 324 312 314 321 320 325 329 332 331 329 326 324 333 335 337 343 345 344 349 351 358 358 356 356 357 361 360 360 360 361 360 361 361 362 361 359 360 361 361 361 363 362 362 362 361
350 348 339 331 320 313 314 322 325 328 332 331 329 334 330 328 335 337 342 343 345 346 349 355 359 361 359 359 359 361 360 360 361 360 357 358 361 362 360 359 359 360 362 361 361 362 362 362 362
344 345 339 323 317 322 322 325 328 328 331 333 331 326 333 338 337 341 343 343 343 348 351 357 360 362 361 360 360 360 361 359 359 361 362 361 361 362 362 361 361 362 360 362 362 361 361 360 360
343 340 326 322 319 322 327 329 330 327 329 329 329 327 329 338 342 342 344 345 343 346 351 354 360 362 361 360 360 361 360 361 362 361 361 360 362 360 361 361 361 361 362 363 361 359 358 359 359
334 338 320 316 318 325 329 331 330 328 330 329 329 329 332 341 340 342 344 344 344 343 349 352 359 361 360 360 359 360 360 359 361 360 360 360 361 361 359 361 361 360 362 363 363 360 358 356 357
331 328 318 320 320 323 328 332 330 328 328 327 332 326 334 337 341 343 343 343 343 345 346 350 353 360 360 360 360 360 359 360 360 361 361 361 361 359 358 361 360 360 361 362 361 361 360 358 354
337 331 321 321 318 320 330 331 332 329 329 334 335 326 328 337 342 342 343 343 346 347 348 349 350 353 355 356 360 360 360 361 361 360 360 360 358 357 358 360 360 359 360 360 361 361 360 359 357
341 328 318 320 320 325 331 329 335 334 330 331 332 333 338 340 342 340 340 342 343 346 348 349 350 355 361 357 358 360 361 362 360 358 359 359 351 353 356 359 358 357 357 357 357 358 360 360 359
334 325 323 331 328 325 329 330 331 328 328 329 332 338 339 340 339 338 337 338 340 342 345 346 349 351 353 351 359 359 357 357 355 353 356 351 356 353 353 359 359 358 358 359 359 358 358 359 358
331 326 331 329 330 331 330 330 333 328 324 330 330 334 337 338 339 336 338 340 340 341 346 347 349 355 352 354 355 355 351 350 352 355 354 353 349 352 348 351 353 352 356 353 356 356 356 354 352
327 331 331 332 332 326 323 330 329 329 330 334 335 337 337 337 337 336 337 339 340 342 345 347 351 355 356 352 350 353 351 349 349 352 355 354 349 351 351 350 352 354 350 353 355 350 354 353 353
328 330 330 335 332 327 328 327 330 330 334 335 337 337 336 336 338 339 340 341 341 341 346 347 354 360 363 356 357 354 350 349 349 352 354 352 349 352 352 353 352 360 350 350 352 353 353 353 352
330 332 333 334 330 332 326 329 335 332 334 334 335 335 337 336 337 339 338 340 341 344 346 349 353 359 356 360 360 353 352 352 353 352 354 359 353 356 352 353 351 351 354 352 352 356 354 350 350
332 327 332 332 333 331 331 326 329 335 334 333 332 335 336 336 338 338 339 340 342 345 348 348 352 355 356 355 355 352 349 348 350 353 359 357 357 359 358 353 358 351 357 359 356 356 355 349 347
325 327 320 330 331 332 329 319 331 335 334 332 331 333 334 335 337 340 339 340 344 346 348 350 350 352 354 356 357 352 354 351 355 354 355 358 359 360 363 353 353 355 358 353 351 352 350 348 346
320 312 316 324 332 331 329 319 329 335 333 330 331 332 333 336 337 341 341 341 343 347 349 350 352 354 356 359 358 360 356 356 354 358 354 359 359 360 361 358 356 364 353 353 354 351 351 349 346
311 312 314 317 329 330 326 324 331 331 332 331 332 333 332 336 337 341 341 342 343 348 350 351 351 357 359 356 362 357 353 354 354 353 358 359 357 360 363 356 360 365 353 359 364 367 355 353 349
314 314 312 322 328 326 325 325 330 331 329 330 331 332 331 334 339 341 342 343 343 346 348 350 352 358 357 352 349 351 349 355 354 356 360 360 359 362 365 356 360 361 361 359 360 358 360 354 354
313 311 312 321 326 325 323 323 329 333 329 330 330 333 331 333 336 341 342 342 342 345 349 351 354 358 360 354 365 358 357 356 352 359 359 359 360 363 361 366 358 362 357 366 363 360 356 351 355
312 311 312 312 323 325 322 319 324 330 334 332 333 334 335 333 333 339 340 342 343 345 348 352 356 358 359 361 356 359 364 360 352 353 354 357 360 361 363 363 363 363 364 358 362 364 364 348 353
307 314 312 311 315 308 322 306 321 327 328 332 332 334 336 333 335 337 340 342 342 346 348 352 356 358 359 362 359 360 351 347 349 352 356 356 360 360 360 362 362 365 361 365 360 358 365 364 353
308 313 311 312 313 313 314 312 314 325 325 328 331 333 336 336 335 337 338 343 344 347 348 350 356 361 362 362 365 355 356 354 355 356 358 362 361 361 358 362 362 363 358 363 365 364 365 362 354
312 310 312 315 313 305 310 310 311 318 325 329 332 334 334 335 336 338 340 344 344 347 349 350 356 361 361 360 358 362 361 354 350 354 354 354 354 356 360 360 363 364 363 362 361 365 365 365 364
310 309 303 302 303 302 312 310 312 317 328 328 331 334 335 338 336 335 338 341 345 346 348 349 353 356 357 358 356 358 359 358 357 357 352 354 354 351 363 365 364 361 365 364 364 366 366 363 360
309 309 303 298 300 304 313 307 314 321 327 328 331 335 337 336 335 335 338 341 347 347 348 350 352 354 355 357 358 361 359 354 353 357 353 352 352 352 361 362 361 362 363 362 364 359 357 364 357
310 307 312 306 307 303 309 313 319 322 320 326 328 332 331 335 336 337 338 341 347 347 349 351 352 354 354 355 357 360 359 358 354 365 360 356 360 356 360 360 362 362 361 362 364 357 358 360 361
312 318 306 306 299 298 304 306 312 316 316 322 326 330 333 335 338 338 338 339 344 347 351 351 353 353 354 353 354 355 356 359 358 365 361 359 366 363 362 362 361 361 361 363 367 362 365 361 357
311 309 310 310 309 301 300 306 313 317 320 325 326 329 331 332 334 339 338 341 345 348 349 352 352 354 353 353 358 358 356 357 359 358 361 363 365 363 362 364 365 363 361 362 366 363 364 362 361
314 312 312 305 304 305 304 304 319 322 320 326 326 329 332 336 336 339 341 341 343 348 349 351 353 352 353 356 361 359 359 358 356 357 358 364 364 367 367 365 364 363 363 364 363 361 358 359 356

GFSSGP_sfc_thetae_126.txt.gz
Theta_e
348 340 350 347 328 324 314 316 322 319 322 328 329 325 322 326 322 315 341 342 345 344 350 355 359 355 356 356 354 358 361 360 359 360 360 361 362 362 361 361 362 361 362 362 362 362 362 362 362
336 343 348 338 320 313 314 321 320 323 330 333 330 326 325 323 332 336 338 344 345 345 349 352 359 357 357 358 357 359 360 361 360 361 361 362 362 361 360 361 362 362 362 363 362 362 362 362 362
344 349 338 325 319 312 314 321 323 327 330 328 326 329 327 326 333 334 340 342 343 345 349 354 362 359 358 358 359 359 361 361 361 360 360 361 361 360 360 361 362 362 362 362 362 363 362 362 361
341 342 339 321 317 320 320 323 325 327 331 331 328 323 330 338 334 337 341 341 345 349 351 361 362 360 357 359 360 360 360 360 362 363 360 362 362 361 362 360 361 362 362 362 362 361 361 360 359
343 337 322 317 318 322 325 327 327 326 326 327 327 322 327 335 339 339 341 346 347 348 352 357 364 364 360 361 359 360 360 361 361 362 362 361 363 361 362 362 362 362 362 359 358 359 360 359 358
332 327 313 316 317 323 327 330 329 327 326 328 327 326 328 337 338 340 341 347 349 347 348 354 363 362 361 361 360 361 361 361 361 363 361 361 364 363 362 361 362 362 363 362 359 356 357 357 354
328 322 316 319 318 321 326 332 327 326 326 325 332 323 329 333 338 341 341 343 347 348 346 352 355 359 361 361 360 359 361 361 361 361 363 361 361 361 361 361 362 362 361 361 361 360 357 355 351
336 325 319 320 316 319 328 329 332 328 326 335 334 323 324 334 339 341 341 342 344 347 345 349 353 353 354 356 360 360 362 360 361 362 362 361 359 360 361 364 362 360 360 361 361 360 359 357 356
340 324 318 319 320 323 330 327 330 332 327 331 332 331 334 336 339 337 338 340 343 345 347 345 349 355 358 357 358 361 362 362 361 360 361 362 353 355 356 362 360 359 359 359 361 361 361 360 359
333 321 321 328 327 319 324 329 327 327 326 329 330 335 335 336 336 335 336 336 339 343 343 346 350 352 353 350 359 361 360 356 356 357 359 358 354 358 355 358 359 358 359 359 361 362 361 361 356
332 324 331 330 330 328 328 329 334 326 324 328 330 331 333 334 335 334 336 335 341 341 341 344 352 351 351 355 357 353 353 355 355 363 355 357 350 350 349 354 354 355 360 354 358 357 355 354 356
327 331 331 332 331 328 320 329 329 330 329 334 334 334 334 334 333 333 335 336 341 344 343 346 349 344 344 355 353 356 352 350 350 360 361 362 354 357 354 353 355 356 356 356 355 355 357 356 356
328 330 331 334 330 327 326 323 328 329 334 335 335 335 333 334 334 336 337 337 340 341 345 349 352 344 347 354 350 352 353 349 350 355 359 355 353 355 358 357 357 356 350 357 356 359 356 357 353
330 330 332 333 330 328 323 328 326 331 332 331 333 333 335 335 334 337 338 338 339 343 344 351 353 360 359 354 366 356 348 349 352 359 361 360 355 362 358 360 359 351 357 353 359 363 362 357 350
332 326 331 332 333 330 330 323 325 333 335 329 330 332 335 336 336 336 337 338 340 344 347 353 352 355 362 364 363 351 347 353 354 352 367 363 360 366 364 359 359 360 363 364 359 360 360 352 350
322 324 318 330 332 332 329 317 323 332 334 329 329 332 334 335 334 338 338 339 344 345 350 353 348 354 355 360 364 365 345 355 356 357 360 362 366 366 366 360 355 360 365 362 358 358 355 352 349
319 311 315 320 333 330 326 317 327 329 333 329 330 330 332 334 335 337 339 340 343 347 350 352 349 352 360 362 363 355 357 350 350 349 358 366 364 365 367 356 362 368 362 357 361 356 356 352 349
311 313 316 318 328 328 324 323 323 330 332 332 333 332 333 333 335 337 337 340 343 349 351 354 352 356 351 360 365 352 358 349 354 353 362 365 366 364 368 354 364 369 356 350 352 367 356 360 353
314 314 316 323 327 324 323 323 329 331 330 332 329 331 331 334 337 339 338 340 343 347 349 354 350 353 354 358 354 348 357 356 351 347 366 366 364 367 371 367 367 346 339 350 351 360 360 357 356
313 311 311 320 325 321 320 321 328 332 329 330 325 326 333 333 334 339 339 339 340 346 349 355 356 358 353 357 361 359 351 356 352 360 364 363 365 370 367 364 360 348 340 347 346 342 350 351 356
311 309 311 314 323 323 319 316 320 330 333 332 332 334 335 334 334 337 339 340 342 345 349 353 357 359 362 362 353 358 362 355 346 357 357 361 362 366 363 367 364 352 353 358 345 341 348 341 345
306 313 312 312 310 306 320 304 317 323 329 331 330 333 332 335 337 336 339 337 341 345 350 353 358 359 361 364 364 355 354 349 354 360 363 361 359 364 363 368 368 368 363 351 361 359 336 338 339
309 313 312 311 309 309 314 310 313 323 322 327 331 332 336 335 333 337 333 341 342 346 348 354 358 359 360 362 365 359 360 359 357 347 364 368 368 368 359 366 368 367 366 366 365 364 363 361 356
312 310 309 311 310 303 309 309 308 316 323 327 331 333 335 334 334 337 336 343 343 344 346 353 357 357 361 361 359 362 359 357 344 356 349 359 359 360 364 367 370 371 368 367 365 368 368 367 366
309 305 299 299 300 300 313 307 314 321 322 328 330 333 335 334 335 336 336 336 342 344 347 351 355 354 358 357 358 358 363 359 355 354 352 358 359 359 362 368 369 367 371 370 368 370 369 366 366
308 306 300 297 299 302 313 306 312 325 328 328 328 330 335 336 336 336 336 337 340 346 347 350 354 355 355 357 359 362 362 360 357 361 358 358 360 349 353 361 369 367 369 368 368 367 363 362 363
307 306 310 303 306 302 306 314 320 321 319 320 327 333 334 337 338 335 339 340 341 348 349 350 354 355 357 355 358 360 362 360 358 359 365 363 371 361 360 364 366 366 366 366 367 363 363 363 365
309 314 306 305 298 296 303 307 308 315 318 325 326 329 332 338 340 336 341 337 344 348 347 352 355 354 356 355 356 355 356 361 361 367 367 366 369 368 368 367 365 364 366 368 367 363 362 361 361
309 307 309 308 307 300 300 304 317 317 320 325 327 324 332 334 338 341 340 339 340 344 350 352 353 355 354 355 357 356 356 358 360 358 363 363 365 368 364 365 366 365 365 364 364 364 362 361 360
312 309 311 303 302 306 305 305 320 321 321 328 322 326 333 333 332 339 338 339 340 343 347 351 353 354 354 355 359 357 359 359 355 359 361 362 360 366 366 368 367 365 364 364 363 360 359 361 360